﻿<?xml version="1.0" encoding="utf-8"?><gpx creator="Garmin Desktop App" version="1.1" xsi:schemaLocation="http://www.topografix.com/GPX/1/1 http://www.topografix.com/GPX/1/1/gpx.xsd http://www.garmin.com/xmlschemas/WaypointExtension/v1 http://www8.garmin.com/xmlschemas/WaypointExtensionv1.xsd http://www.garmin.com/xmlschemas/TrackPointExtension/v1 http://www.garmin.com/xmlschemas/TrackPointExtensionv1.xsd http://www.garmin.com/xmlschemas/GpxExtensions/v3 http://www8.garmin.com/xmlschemas/GpxExtensionsv3.xsd http://www.garmin.com/xmlschemas/ActivityExtension/v1 http://www8.garmin.com/xmlschemas/ActivityExtensionv1.xsd http://www.garmin.com/xmlschemas/AdventuresExtensions/v1 http://www8.garmin.com/xmlschemas/AdventuresExtensionv1.xsd http://www.garmin.com/xmlschemas/PressureExtension/v1 http://www.garmin.com/xmlschemas/PressureExtensionv1.xsd http://www.garmin.com/xmlschemas/TripExtensions/v1 http://www.garmin.com/xmlschemas/TripExtensionsv1.xsd http://www.garmin.com/xmlschemas/TripMetaDataExtensions/v1 http://www.garmin.com/xmlschemas/TripMetaDataExtensionsv1.xsd http://www.garmin.com/xmlschemas/ViaPointTransportationModeExtensions/v1 http://www.garmin.com/xmlschemas/ViaPointTransportationModeExtensionsv1.xsd http://www.garmin.com/xmlschemas/CreationTimeExtension/v1 http://www.garmin.com/xmlschemas/CreationTimeExtensionsv1.xsd http://www.garmin.com/xmlschemas/AccelerationExtension/v1 http://www.garmin.com/xmlschemas/AccelerationExtensionv1.xsd http://www.garmin.com/xmlschemas/PowerExtension/v1 http://www.garmin.com/xmlschemas/PowerExtensionv1.xsd http://www.garmin.com/xmlschemas/VideoExtension/v1 http://www.garmin.com/xmlschemas/VideoExtensionv1.xsd" xmlns="http://www.topografix.com/GPX/1/1" xmlns:xsi="http://www.w3.org/2001/XMLSchema-instance" xmlns:wptx1="http://www.garmin.com/xmlschemas/WaypointExtension/v1" xmlns:gpxtrx="http://www.garmin.com/xmlschemas/GpxExtensions/v3" xmlns:gpxtpx="http://www.garmin.com/xmlschemas/TrackPointExtension/v1" xmlns:gpxx="http://www.garmin.com/xmlschemas/GpxExtensions/v3" xmlns:trp="http://www.garmin.com/xmlschemas/TripExtensions/v1" xmlns:adv="http://www.garmin.com/xmlschemas/AdventuresExtensions/v1" xmlns:prs="http://www.garmin.com/xmlschemas/PressureExtension/v1" xmlns:tmd="http://www.garmin.com/xmlschemas/TripMetaDataExtensions/v1" xmlns:vptm="http://www.garmin.com/xmlschemas/ViaPointTransportationModeExtensions/v1" xmlns:ctx="http://www.garmin.com/xmlschemas/CreationTimeExtension/v1" xmlns:gpxacc="http://www.garmin.com/xmlschemas/AccelerationExtension/v1" xmlns:gpxpx="http://www.garmin.com/xmlschemas/PowerExtension/v1" xmlns:vidx1="http://www.garmin.com/xmlschemas/VideoExtension/v1">

  <metadata>
    <link href="http://www.garmin.com">
      <text>Garmin International</text>
    </link>
    <time>2021-01-10T11:30:51Z</time>
    <bounds maxlat="46.265115849673748" maxlon="11.855328977108002" minlat="46.230387026444077" minlon="11.803625961765647" />
  </metadata>

  <trk>
    <name>ferrata velo porton</name>
    <extensions>
      <gpxx:TrackExtension>
        <gpxx:DisplayColor>Yellow</gpxx:DisplayColor>
      </gpxx:TrackExtension>
    </extensions>
    <trkseg>
      <trkpt lat="46.244296040385962" lon="11.854415014386177">
        <ele>2277.5309999999999</ele>
        <time>2015-08-09T10:54:54Z</time>
      </trkpt>
      <trkpt lat="46.244269972667098" lon="11.854430017992854">
        <ele>2277.538</ele>
        <time>2015-08-09T10:55:10Z</time>
      </trkpt>
      <trkpt lat="46.244280030950904" lon="11.854427000507712">
        <ele>2277.5920000000001</ele>
        <time>2015-08-09T10:55:23Z</time>
      </trkpt>
      <trkpt lat="46.24427299015224" lon="11.854419959709048">
        <ele>2277.085</ele>
        <time>2015-08-09T10:55:42Z</time>
      </trkpt>
      <trkpt lat="46.244281036779284" lon="11.854444015771151">
        <ele>2277.5889999999999</ele>
        <time>2015-08-09T10:56:02Z</time>
      </trkpt>
      <trkpt lat="46.24425396323204" lon="11.854493971914053">
        <ele>2277.0169999999998</ele>
        <time>2015-08-09T10:56:17Z</time>
      </trkpt>
      <trkpt lat="46.244238037616014" lon="11.854464970529079">
        <ele>2277.0079999999998</ele>
        <time>2015-08-09T10:56:37Z</time>
      </trkpt>
      <trkpt lat="46.244218004867435" lon="11.854461031034589">
        <ele>2285.7689999999998</ele>
        <time>2015-08-09T10:57:03Z</time>
      </trkpt>
      <trkpt lat="46.244224961847067" lon="11.854491960257292">
        <ele>2296.739</ele>
        <time>2015-08-09T10:57:28Z</time>
      </trkpt>
      <trkpt lat="46.244161007925868" lon="11.854448961094022">
        <ele>2311.6529999999998</ele>
        <time>2015-08-09T10:57:46Z</time>
      </trkpt>
      <trkpt lat="46.244175005704165" lon="11.854454996064305">
        <ele>2311.6529999999998</ele>
        <time>2015-08-09T10:58:00Z</time>
      </trkpt>
      <trkpt lat="46.244262009859085" lon="11.854683989658952">
        <ele>2319.357</ele>
        <time>2015-08-09T10:58:28Z</time>
      </trkpt>
      <trkpt lat="46.244344990700483" lon="11.854947013780475">
        <ele>2334.27</ele>
        <time>2015-08-09T10:58:51Z</time>
      </trkpt>
      <trkpt lat="46.244420008733869" lon="11.855096966028214">
        <ele>2342.9270000000001</ele>
        <time>2015-08-09T10:59:11Z</time>
      </trkpt>
      <trkpt lat="46.244492009282112" lon="11.855327971279621">
        <ele>2358.761</ele>
        <time>2015-08-09T10:59:35Z</time>
      </trkpt>
      <trkpt lat="46.244431994855404" lon="11.855316990986466">
        <ele>2370.3560000000002</ele>
        <time>2015-08-09T11:00:02Z</time>
      </trkpt>
      <trkpt lat="46.244350019842386" lon="11.855328977108002">
        <ele>2388.5590000000002</ele>
        <time>2015-08-09T11:00:29Z</time>
      </trkpt>
      <trkpt lat="46.244020024314523" lon="11.854885993525386">
        <ele>2401.0140000000001</ele>
        <time>2015-08-09T11:00:40Z</time>
      </trkpt>
      <trkpt lat="46.243882980197668" lon="11.854738974943757">
        <ele>2411.1080000000002</ele>
        <time>2015-08-09T11:00:49Z</time>
      </trkpt>
      <trkpt lat="46.243838975206017" lon="11.854478968307376">
        <ele>2411.1759999999999</ele>
        <time>2015-08-09T11:00:54Z</time>
      </trkpt>
      <trkpt lat="46.243841992691159" lon="11.854315018281341">
        <ele>2413.1460000000002</ele>
        <time>2015-08-09T11:01:08Z</time>
      </trkpt>
      <trkpt lat="46.243861019611359" lon="11.854272019118071">
        <ele>2416.4099999999999</ele>
        <time>2015-08-09T11:01:18Z</time>
      </trkpt>
      <trkpt lat="46.243893038481474" lon="11.854231031611562">
        <ele>2416.4200000000001</ele>
        <time>2015-08-09T11:01:22Z</time>
      </trkpt>
      <trkpt lat="46.244128989055753" lon="11.853968007490039">
        <ele>2378.4940000000001</ele>
        <time>2015-08-09T11:01:38Z</time>
      </trkpt>
      <trkpt lat="46.244440963491797" lon="11.853860970586538">
        <ele>2309.2869999999998</ele>
        <time>2015-08-09T11:01:50Z</time>
      </trkpt>
      <trkpt lat="46.244497038424015" lon="11.853802967816591">
        <ele>2299.634</ele>
        <time>2015-08-09T11:01:59Z</time>
      </trkpt>
      <trkpt lat="46.244459990411997" lon="11.853649998083711">
        <ele>2291.9679999999998</ele>
        <time>2015-08-09T11:02:13Z</time>
      </trkpt>
      <trkpt lat="46.244383966550231" lon="11.853543967008591">
        <ele>2291.444</ele>
        <time>2015-08-09T11:02:29Z</time>
      </trkpt>
      <trkpt lat="46.244382038712502" lon="11.853528963401914">
        <ele>2292.4050000000002</ele>
        <time>2015-08-09T11:02:36Z</time>
      </trkpt>
      <trkpt lat="46.244236025959253" lon="11.853376999497414">
        <ele>2289.0149999999999</ele>
        <time>2015-08-09T11:02:53Z</time>
      </trkpt>
      <trkpt lat="46.244094958528876" lon="11.853295024484396">
        <ele>2283.808</ele>
        <time>2015-08-09T11:03:07Z</time>
      </trkpt>
      <trkpt lat="46.244111973792315" lon="11.853201985359192">
        <ele>2284.7950000000001</ele>
        <time>2015-08-09T11:03:14Z</time>
      </trkpt>
      <trkpt lat="46.244065035134554" lon="11.853059995919466">
        <ele>2287.1550000000002</ele>
        <time>2015-08-09T11:03:26Z</time>
      </trkpt>
      <trkpt lat="46.243998985737562" lon="11.85298103839159">
        <ele>2288.6289999999999</ele>
        <time>2015-08-09T11:03:36Z</time>
      </trkpt>
      <trkpt lat="46.243964033201337" lon="11.852900991216302">
        <ele>2287.1990000000001</ele>
        <time>2015-08-09T11:03:48Z</time>
      </trkpt>
      <trkpt lat="46.243933020159602" lon="11.85280803591013">
        <ele>2288.1329999999998</ele>
        <time>2015-08-09T11:03:59Z</time>
      </trkpt>
      <trkpt lat="46.243902007117867" lon="11.852705022320151">
        <ele>2289.5259999999998</ele>
        <time>2015-08-09T11:04:13Z</time>
      </trkpt>
      <trkpt lat="46.243805028498173" lon="11.852589016780257">
        <ele>2290.0929999999998</ele>
        <time>2015-08-09T11:04:28Z</time>
      </trkpt>
      <trkpt lat="46.243764963001013" lon="11.852545011788607">
        <ele>2290.0970000000002</ele>
        <time>2015-08-09T11:04:34Z</time>
      </trkpt>
      <trkpt lat="46.243663961067796" lon="11.852463036775589">
        <ele>2290.5790000000002</ele>
        <time>2015-08-09T11:04:47Z</time>
      </trkpt>
      <trkpt lat="46.243597995489836" lon="11.852386007085443">
        <ele>2291.9050000000002</ele>
        <time>2015-08-09T11:05:03Z</time>
      </trkpt>
      <trkpt lat="46.243642000481486" lon="11.852329010143876">
        <ele>2292.4250000000002</ele>
        <time>2015-08-09T11:05:15Z</time>
      </trkpt>
      <trkpt lat="46.243643006309867" lon="11.852241000160575">
        <ele>2293.808</ele>
        <time>2015-08-09T11:05:27Z</time>
      </trkpt>
      <trkpt lat="46.243633031845093" lon="11.852184003219008">
        <ele>2295.3580000000002</ele>
        <time>2015-08-09T11:05:42Z</time>
      </trkpt>
      <trkpt lat="46.243563964962959" lon="11.852160030975938">
        <ele>2296.348</ele>
        <time>2015-08-09T11:05:55Z</time>
      </trkpt>
      <trkpt lat="46.243492970243096" lon="11.852193977683783">
        <ele>2298.7420000000002</ele>
        <time>2015-08-09T11:06:11Z</time>
      </trkpt>
      <trkpt lat="46.243471009656787" lon="11.852149972692132">
        <ele>2300.152</ele>
        <time>2015-08-09T11:06:24Z</time>
      </trkpt>
      <trkpt lat="46.243463968858123" lon="11.852134969085455">
        <ele>2303.096</ele>
        <time>2015-08-09T11:06:43Z</time>
      </trkpt>
      <trkpt lat="46.243458017706871" lon="11.852133041247725">
        <ele>2303.9989999999998</ele>
        <time>2015-08-09T11:06:49Z</time>
      </trkpt>
      <trkpt lat="46.243447959423065" lon="11.852146033197641">
        <ele>2304.4960000000001</ele>
        <time>2015-08-09T11:07:00Z</time>
      </trkpt>
      <trkpt lat="46.243462963029742" lon="11.852160030975938">
        <ele>2305.9299999999998</ele>
        <time>2015-08-09T11:07:20Z</time>
      </trkpt>
      <trkpt lat="46.24339397996664" lon="11.85203698463738">
        <ele>2307.8780000000002</ele>
        <time>2015-08-09T11:07:34Z</time>
      </trkpt>
      <trkpt lat="46.243345029652119" lon="11.851828023791313">
        <ele>2307.3330000000001</ele>
        <time>2015-08-09T11:07:49Z</time>
      </trkpt>
      <trkpt lat="46.24332801438868" lon="11.851701959967613">
        <ele>2306.826</ele>
        <time>2015-08-09T11:08:03Z</time>
      </trkpt>
      <trkpt lat="46.243323991075158" lon="11.851604981347919">
        <ele>2304.9079999999999</ele>
        <time>2015-08-09T11:08:26Z</time>
      </trkpt>
      <trkpt lat="46.243323991075158" lon="11.851592995226383">
        <ele>2304.9879999999998</ele>
        <time>2015-08-09T11:08:27Z</time>
      </trkpt>
      <trkpt lat="46.243273029103875" lon="11.851394008845091">
        <ele>2303.518</ele>
        <time>2015-08-09T11:08:42Z</time>
      </trkpt>
      <trkpt lat="46.243240004405379" lon="11.851400965824723">
        <ele>2300.172</ele>
        <time>2015-08-09T11:08:46Z</time>
      </trkpt>
      <trkpt lat="46.243238998576999" lon="11.851336006075144">
        <ele>2297.232</ele>
        <time>2015-08-09T11:08:58Z</time>
      </trkpt>
      <trkpt lat="46.243233969435096" lon="11.851278003305197">
        <ele>2295.3159999999998</ele>
        <time>2015-08-09T11:09:10Z</time>
      </trkpt>
      <trkpt lat="46.243168003857136" lon="11.85122100636363">
        <ele>2294.3890000000001</ele>
        <time>2015-08-09T11:09:23Z</time>
      </trkpt>
      <trkpt lat="46.243172027170658" lon="11.851096032187343">
        <ele>2291.0659999999998</ele>
        <time>2015-08-09T11:09:36Z</time>
      </trkpt>
      <trkpt lat="46.243161968886852" lon="11.850947001948953">
        <ele>2290.0900000000001</ele>
        <time>2015-08-09T11:09:51Z</time>
      </trkpt>
      <trkpt lat="46.243174038827419" lon="11.85091900639236">
        <ele>2292.9430000000002</ele>
        <time>2015-08-09T11:10:06Z</time>
      </trkpt>
      <trkpt lat="46.243187030777335" lon="11.850943984463811">
        <ele>2294.864</ele>
        <time>2015-08-09T11:10:18Z</time>
      </trkpt>
      <trkpt lat="46.243188958615065" lon="11.850956976413727">
        <ele>2296.71</ele>
        <time>2015-08-09T11:10:33Z</time>
      </trkpt>
      <trkpt lat="46.243154006078839" lon="11.850850023329258">
        <ele>2313.1080000000002</ele>
        <time>2015-08-09T11:10:48Z</time>
      </trkpt>
      <trkpt lat="46.243163980543613" lon="11.85061901807785">
        <ele>2345.8850000000002</ele>
        <time>2015-08-09T11:11:03Z</time>
      </trkpt>
      <trkpt lat="46.243017967790365" lon="11.850436041131616">
        <ele>2384.2150000000001</ele>
        <time>2015-08-09T11:11:21Z</time>
      </trkpt>
      <trkpt lat="46.243008999153972" lon="11.850350964814425">
        <ele>2388.5990000000002</ele>
        <time>2015-08-09T11:11:33Z</time>
      </trkpt>
      <trkpt lat="46.242996007204056" lon="11.850250968709588">
        <ele>2395.3890000000001</ele>
        <time>2015-08-09T11:11:44Z</time>
      </trkpt>
      <trkpt lat="46.242915960028768" lon="11.850174022838473">
        <ele>2378.4830000000002</ele>
        <time>2015-08-09T11:14:01Z</time>
      </trkpt>
      <trkpt lat="46.24283398501575" lon="11.850392036139965">
        <ele>2384.7959999999998</ele>
        <time>2015-08-09T11:14:15Z</time>
      </trkpt>
      <trkpt lat="46.242742035537958" lon="11.850694036111236">
        <ele>2399.683</ele>
        <time>2015-08-09T11:14:43Z</time>
      </trkpt>
      <trkpt lat="46.242706999182701" lon="11.850752038881183">
        <ele>2402.0770000000002</ele>
        <time>2015-08-09T11:14:54Z</time>
      </trkpt>
      <trkpt lat="46.242659976705909" lon="11.850795038044453">
        <ele>2402.5639999999999</ele>
        <time>2015-08-09T11:15:04Z</time>
      </trkpt>
      <trkpt lat="46.242628963664174" lon="11.850824961438775">
        <ele>2400.6060000000002</ele>
        <time>2015-08-09T11:15:15Z</time>
      </trkpt>
      <trkpt lat="46.242585964500904" lon="11.850881958380342">
        <ele>2398.616</ele>
        <time>2015-08-09T11:15:25Z</time>
      </trkpt>
      <trkpt lat="46.24253299087286" lon="11.850873995572329">
        <ele>2393.808</ele>
        <time>2015-08-09T11:15:40Z</time>
      </trkpt>
      <trkpt lat="46.242516981437802" lon="11.850865026935935">
        <ele>2388.5569999999998</ele>
        <time>2015-08-09T11:15:52Z</time>
      </trkpt>
      <trkpt lat="46.242528967559338" lon="11.850928980857134">
        <ele>2388.1170000000002</ele>
        <time>2015-08-09T11:16:07Z</time>
      </trkpt>
      <trkpt lat="46.242506001144648" lon="11.850977009162307">
        <ele>2384.721</ele>
        <time>2015-08-09T11:16:17Z</time>
      </trkpt>
      <trkpt lat="46.242463001981378" lon="11.850927975028753">
        <ele>2381.3310000000001</ele>
        <time>2015-08-09T11:16:30Z</time>
      </trkpt>
      <trkpt lat="46.242432994768023" lon="11.850880030542612">
        <ele>2378.9850000000001</ele>
        <time>2015-08-09T11:16:44Z</time>
      </trkpt>
      <trkpt lat="46.242465013638139" lon="11.850866032764316">
        <ele>2377.0880000000002</ele>
        <time>2015-08-09T11:16:58Z</time>
      </trkpt>
      <trkpt lat="46.242458978667855" lon="11.850915988907218">
        <ele>2377.0749999999998</ele>
        <time>2015-08-09T11:17:25Z</time>
      </trkpt>
      <trkpt lat="46.242445986717939" lon="11.850849017500877">
        <ele>2375.6689999999999</ele>
        <time>2015-08-09T11:17:37Z</time>
      </trkpt>
      <trkpt lat="46.242413967847824" lon="11.850743992254138">
        <ele>2375.123</ele>
        <time>2015-08-09T11:17:50Z</time>
      </trkpt>
      <trkpt lat="46.242371974512935" lon="11.850679032504559">
        <ele>2357.3829999999998</ele>
        <time>2015-08-09T11:18:02Z</time>
      </trkpt>
      <trkpt lat="46.242354037240148" lon="11.850712979212403">
        <ele>2330.4110000000001</ele>
        <time>2015-08-09T11:18:08Z</time>
      </trkpt>
      <trkpt lat="46.242402987554669" lon="11.850593034178019">
        <ele>2259.7080000000001</ele>
        <time>2015-08-09T11:18:21Z</time>
      </trkpt>
      <trkpt lat="46.242371974512935" lon="11.850525978952646">
        <ele>2255.413</ele>
        <time>2015-08-09T11:18:37Z</time>
      </trkpt>
      <trkpt lat="46.242440035566688" lon="11.850456995889544">
        <ele>2247.2429999999999</ele>
        <time>2015-08-09T11:18:52Z</time>
      </trkpt>
      <trkpt lat="46.242418996989727" lon="11.850419025868177">
        <ele>2244.857</ele>
        <time>2015-08-09T11:19:10Z</time>
      </trkpt>
      <trkpt lat="46.242447998374701" lon="11.850320035591722">
        <ele>2229.4769999999999</ele>
        <time>2015-08-09T11:20:52Z</time>
      </trkpt>
      <trkpt lat="46.242328975349665" lon="11.850235965102911">
        <ele>2233.3209999999999</ele>
        <time>2015-08-09T11:21:23Z</time>
      </trkpt>
      <trkpt lat="46.242457972839475" lon="11.850177962332964">
        <ele>2234.7440000000001</ele>
        <time>2015-08-09T11:21:48Z</time>
      </trkpt>
      <trkpt lat="46.242545982822776" lon="11.850244011729956">
        <ele>2229.491</ele>
        <time>2015-08-09T11:22:21Z</time>
      </trkpt>
      <trkpt lat="46.242566015571356" lon="11.850086012855172">
        <ele>2232.8850000000002</ele>
        <time>2015-08-09T11:22:51Z</time>
      </trkpt>
      <trkpt lat="46.242487980052829" lon="11.850138986483216">
        <ele>2238.181</ele>
        <time>2015-08-09T11:23:23Z</time>
      </trkpt>
      <trkpt lat="46.24246995896101" lon="11.850192965939641">
        <ele>2237.1610000000001</ele>
        <time>2015-08-09T11:23:43Z</time>
      </trkpt>
      <trkpt lat="46.242458978667855" lon="11.850217022001743">
        <ele>2234.7170000000001</ele>
        <time>2015-08-09T11:24:04Z</time>
      </trkpt>
      <trkpt lat="46.242541037499905" lon="11.850228002294898">
        <ele>2240.5079999999998</ele>
        <time>2015-08-09T11:24:33Z</time>
      </trkpt>
      <trkpt lat="46.242536008358002" lon="11.850218027830124">
        <ele>2239.5390000000002</ele>
        <time>2015-08-09T11:25:01Z</time>
      </trkpt>
      <trkpt lat="46.242499966174364" lon="11.850206041708589">
        <ele>2236.259</ele>
        <time>2015-08-09T11:25:19Z</time>
      </trkpt>
      <trkpt lat="46.242482028901577" lon="11.850298997014761">
        <ele>2237.163</ele>
        <time>2015-08-09T11:25:42Z</time>
      </trkpt>
      <trkpt lat="46.24246995896101" lon="11.850321041420102">
        <ele>2237.1129999999998</ele>
        <time>2015-08-09T11:25:55Z</time>
      </trkpt>
      <trkpt lat="46.242475993931293" lon="11.85031802393496">
        <ele>2235.2869999999998</ele>
        <time>2015-08-09T11:26:07Z</time>
      </trkpt>
      <trkpt lat="46.242533996701241" lon="11.850295979529619">
        <ele>2230.9699999999998</ele>
        <time>2015-08-09T11:26:40Z</time>
      </trkpt>
      <trkpt lat="46.242497032508254" lon="11.850212998688221">
        <ele>2231.4470000000001</ele>
        <time>2015-08-09T11:26:50Z</time>
      </trkpt>
      <trkpt lat="46.242529973387718" lon="11.850217022001743">
        <ele>2228.511</ele>
        <time>2015-08-09T11:27:05Z</time>
      </trkpt>
      <trkpt lat="46.242530979216099" lon="11.8501450214535">
        <ele>2223.2539999999999</ele>
        <time>2015-08-09T11:27:28Z</time>
      </trkpt>
      <trkpt lat="46.242525028064847" lon="11.850132029503584">
        <ele>2224.6559999999999</ele>
        <time>2015-08-09T11:27:51Z</time>
      </trkpt>
      <trkpt lat="46.242552017793059" lon="11.850036978721619">
        <ele>2217.9110000000001</ele>
        <time>2015-08-09T11:28:02Z</time>
      </trkpt>
      <trkpt lat="46.242546988651156" lon="11.850033961236477">
        <ele>2217.4079999999999</ele>
        <time>2015-08-09T11:28:12Z</time>
      </trkpt>
      <trkpt lat="46.242528967559338" lon="11.850046031177044">
        <ele>2216.9659999999999</ele>
        <time>2015-08-09T11:28:15Z</time>
      </trkpt>
      <trkpt lat="46.242487980052829" lon="11.850119037553668">
        <ele>2216.0859999999998</ele>
        <time>2015-08-09T11:28:27Z</time>
      </trkpt>
      <trkpt lat="46.24244699254632" lon="11.850195983424783">
        <ele>2212.1700000000001</ele>
        <time>2015-08-09T11:28:38Z</time>
      </trkpt>
      <trkpt lat="46.242383038625121" lon="11.850200006738305">
        <ele>2210.2399999999998</ele>
        <time>2015-08-09T11:28:50Z</time>
      </trkpt>
      <trkpt lat="46.242364011704922" lon="11.850221967324615">
        <ele>2208.8739999999998</ele>
        <time>2015-08-09T11:29:02Z</time>
      </trkpt>
      <trkpt lat="46.241045035421848" lon="11.850182991474867">
        <ele>2288.1770000000001</ele>
        <time>2015-08-09T11:48:19Z</time>
      </trkpt>
      <trkpt lat="46.241017961874604" lon="11.850163964554667">
        <ele>2286.6840000000002</ele>
        <time>2015-08-09T11:48:34Z</time>
      </trkpt>
      <trkpt lat="46.240998012945056" lon="11.85008198954165">
        <ele>2283.3679999999999</ele>
        <time>2015-08-09T11:48:52Z</time>
      </trkpt>
      <trkpt lat="46.240976974368095" lon="11.850052988156676">
        <ele>2281.817</ele>
        <time>2015-08-09T11:49:09Z</time>
      </trkpt>
      <trkpt lat="46.240932969376445" lon="11.850012000650167">
        <ele>2278.9870000000001</ele>
        <time>2015-08-09T11:49:25Z</time>
      </trkpt>
      <trkpt lat="46.240902962163091" lon="11.849987022578716">
        <ele>2280.415</ele>
        <time>2015-08-09T11:49:37Z</time>
      </trkpt>
      <trkpt lat="46.240859962999821" lon="11.849963972344995">
        <ele>2281.808</ele>
        <time>2015-08-09T11:49:53Z</time>
      </trkpt>
      <trkpt lat="46.240836996585131" lon="11.849922984838486">
        <ele>2281.8620000000001</ele>
        <time>2015-08-09T11:50:09Z</time>
      </trkpt>
      <trkpt lat="46.240884019061923" lon="11.84990999288857">
        <ele>2286.6819999999998</ele>
        <time>2015-08-09T11:50:28Z</time>
      </trkpt>
      <trkpt lat="46.240879995748401" lon="11.849885014817119">
        <ele>2290.5459999999998</ele>
        <time>2015-08-09T11:50:43Z</time>
      </trkpt>
      <trkpt lat="46.240864992141724" lon="11.849862970411777">
        <ele>2291.0459999999998</ele>
        <time>2015-08-09T11:50:57Z</time>
      </trkpt>
      <trkpt lat="46.240830961614847" lon="11.849852995947003">
        <ele>2291.0300000000002</ele>
        <time>2015-08-09T11:51:12Z</time>
      </trkpt>
      <trkpt lat="46.24081302434206" lon="11.849842015653849">
        <ele>2292.4929999999999</ele>
        <time>2015-08-09T11:51:26Z</time>
      </trkpt>
      <trkpt lat="46.24083498492837" lon="11.849809996783733">
        <ele>2293.8099999999999</ele>
        <time>2015-08-09T11:51:46Z</time>
      </trkpt>
      <trkpt lat="46.240809001028538" lon="11.849769009277225">
        <ele>2294.3240000000001</ele>
        <time>2015-08-09T11:51:59Z</time>
      </trkpt>
      <trkpt lat="46.240781005471945" lon="11.849744031205773">
        <ele>2293.8969999999999</ele>
        <time>2015-08-09T11:52:14Z</time>
      </trkpt>
      <trkpt lat="46.240793997421861" lon="11.849721986800432">
        <ele>2293.8229999999999</ele>
        <time>2015-08-09T11:52:35Z</time>
      </trkpt>
      <trkpt lat="46.240829033777118" lon="11.849698014557362">
        <ele>2296.3249999999998</ele>
        <time>2015-08-09T11:53:05Z</time>
      </trkpt>
      <trkpt lat="46.240806989371777" lon="11.849721986800432">
        <ele>2296.7080000000001</ele>
        <time>2015-08-09T11:53:30Z</time>
      </trkpt>
      <trkpt lat="46.240816963836551" lon="11.84971796348691">
        <ele>2297.7600000000002</ele>
        <time>2015-08-09T11:53:52Z</time>
      </trkpt>
      <trkpt lat="46.240830039605498" lon="11.84971896931529">
        <ele>2299.6300000000001</ele>
        <time>2015-08-09T11:54:05Z</time>
      </trkpt>
      <trkpt lat="46.240842025727034" lon="11.849687034264207">
        <ele>2302.5540000000001</ele>
        <time>2015-08-09T11:54:21Z</time>
      </trkpt>
      <trkpt lat="46.240807995200157" lon="11.84967597015202">
        <ele>2303.5540000000001</ele>
        <time>2015-08-09T11:54:42Z</time>
      </trkpt>
      <trkpt lat="46.240783017128706" lon="11.849661972373724">
        <ele>2304.4879999999998</ele>
        <time>2015-08-09T11:55:02Z</time>
      </trkpt>
      <trkpt lat="46.240802966058254" lon="11.849645962938666">
        <ele>2305.931</ele>
        <time>2015-08-09T11:55:22Z</time>
      </trkpt>
      <trkpt lat="46.240771031007171" lon="11.849669013172388">
        <ele>2311.6979999999999</ele>
        <time>2015-08-09T11:55:37Z</time>
      </trkpt>
      <trkpt lat="46.240779999643564" lon="11.849655015394092">
        <ele>2312.192</ele>
        <time>2015-08-09T11:55:58Z</time>
      </trkpt>
      <trkpt lat="46.24081302434206" lon="11.849630959331989">
        <ele>2312.6819999999998</ele>
        <time>2015-08-09T11:56:17Z</time>
      </trkpt>
      <trkpt lat="46.240741023793817" lon="11.849568011239171">
        <ele>2313.643</ele>
        <time>2015-08-09T11:56:35Z</time>
      </trkpt>
      <trkpt lat="46.239950023591518" lon="11.848630998283625">
        <ele>2349.6170000000002</ele>
        <time>2015-08-09T12:06:30Z</time>
      </trkpt>
      <trkpt lat="46.239894032478333" lon="11.848422959446907">
        <ele>2339.5079999999998</ele>
        <time>2015-08-09T12:09:22Z</time>
      </trkpt>
      <trkpt lat="46.239900989457965" lon="11.848389012739062">
        <ele>2333.7190000000001</ele>
        <time>2015-08-09T12:09:41Z</time>
      </trkpt>
      <trkpt lat="46.239891014993191" lon="11.848265966400504">
        <ele>2328.049</ele>
        <time>2015-08-09T12:09:55Z</time>
      </trkpt>
      <trkpt lat="46.239881040528417" lon="11.848213998600841">
        <ele>2325.6529999999998</ele>
        <time>2015-08-09T12:10:14Z</time>
      </trkpt>
      <trkpt lat="46.239893026649952" lon="11.848108973354101">
        <ele>2322.2730000000001</ele>
        <time>2015-08-09T12:10:30Z</time>
      </trkpt>
      <trkpt lat="46.239908030256629" lon="11.848058011382818">
        <ele>2323.2370000000001</ele>
        <time>2015-08-09T12:10:49Z</time>
      </trkpt>
      <trkpt lat="46.240004003047943" lon="11.848024986684322">
        <ele>2330.4499999999998</ele>
        <time>2015-08-09T12:12:17Z</time>
      </trkpt>
      <trkpt lat="46.24025696888566" lon="11.848005037754774">
        <ele>2340.587</ele>
        <time>2015-08-09T12:12:29Z</time>
      </trkpt>
      <trkpt lat="46.240336010232568" lon="11.847947034984827">
        <ele>2344.3409999999999</ele>
        <time>2015-08-09T12:12:42Z</time>
      </trkpt>
      <trkpt lat="46.240375991910696" lon="11.847939994186163">
        <ele>2348.239</ele>
        <time>2015-08-09T12:12:55Z</time>
      </trkpt>
      <trkpt lat="46.24042502604425" lon="11.847820971161127">
        <ele>2347.201</ele>
        <time>2015-08-09T12:13:12Z</time>
      </trkpt>
      <trkpt lat="46.240456039085984" lon="11.847690967842937">
        <ele>2346.721</ele>
        <time>2015-08-09T12:13:25Z</time>
      </trkpt>
      <trkpt lat="46.24046802520752" lon="11.847616033628583">
        <ele>2346.2080000000001</ele>
        <time>2015-08-09T12:13:42Z</time>
      </trkpt>
      <trkpt lat="46.240465007722378" lon="11.84754797257483">
        <ele>2349.194</ele>
        <time>2015-08-09T12:13:57Z</time>
      </trkpt>
      <trkpt lat="46.24044799245894" lon="11.84754797257483">
        <ele>2352.5540000000001</ele>
        <time>2015-08-09T12:14:13Z</time>
      </trkpt>
      <trkpt lat="46.24042502604425" lon="11.847489969804883">
        <ele>2355.998</ele>
        <time>2015-08-09T12:14:30Z</time>
      </trkpt>
      <trkpt lat="46.240435000509024" lon="11.847432972863317">
        <ele>2356.8980000000001</ele>
        <time>2015-08-09T12:14:41Z</time>
      </trkpt>
      <trkpt lat="46.240427037701011" lon="11.847402965649962">
        <ele>2358.7420000000002</ele>
        <time>2015-08-09T12:14:58Z</time>
      </trkpt>
      <trkpt lat="46.240393007174134" lon="11.847398020327091">
        <ele>2358.3249999999998</ele>
        <time>2015-08-09T12:15:11Z</time>
      </trkpt>
      <trkpt lat="46.240360988304019" lon="11.847357032820582">
        <ele>2359.2719999999999</ele>
        <time>2015-08-09T12:15:22Z</time>
      </trkpt>
      <trkpt lat="46.240357970818877" lon="11.847339011728764">
        <ele>2361.1559999999999</ele>
        <time>2015-08-09T12:15:34Z</time>
      </trkpt>
      <trkpt lat="46.240352019667625" lon="11.847360972315073">
        <ele>2364.0540000000001</ele>
        <time>2015-08-09T12:15:47Z</time>
      </trkpt>
      <trkpt lat="46.240328969433904" lon="11.847345968708396">
        <ele>2364.056</ele>
        <time>2015-08-09T12:15:59Z</time>
      </trkpt>
      <trkpt lat="46.240327041596174" lon="11.847288971766829">
        <ele>2365.511</ele>
        <time>2015-08-09T12:16:12Z</time>
      </trkpt>
      <trkpt lat="46.240358976647258" lon="11.847239015623927">
        <ele>2369.308</ele>
        <time>2015-08-09T12:16:35Z</time>
      </trkpt>
      <trkpt lat="46.240335004404187" lon="11.847229041159153">
        <ele>2368.846</ele>
        <time>2015-08-09T12:16:46Z</time>
      </trkpt>
      <trkpt lat="46.240414967760444" lon="11.847185036167502">
        <ele>2367.4760000000001</ele>
        <time>2015-08-09T12:16:59Z</time>
      </trkpt>
      <trkpt lat="46.240410022437572" lon="11.847118986770511">
        <ele>2366.9400000000001</ele>
        <time>2015-08-09T12:17:13Z</time>
      </trkpt>
      <trkpt lat="46.240419996902347" lon="11.847110018134117">
        <ele>2366.9899999999998</ele>
        <time>2015-08-09T12:17:18Z</time>
      </trkpt>
      <trkpt lat="46.240400969982147" lon="11.847134996205568">
        <ele>2365.9639999999999</ele>
        <time>2015-08-09T12:17:33Z</time>
      </trkpt>
      <trkpt lat="46.240400969982147" lon="11.847120998427272">
        <ele>2365.567</ele>
        <time>2015-08-09T12:17:45Z</time>
      </trkpt>
      <trkpt lat="46.240278007462621" lon="11.846964005380869">
        <ele>2524.674</ele>
        <time>2015-08-09T12:21:44Z</time>
      </trkpt>
      <trkpt lat="46.240053959190845" lon="11.846754960715771">
        <ele>2513.018</ele>
        <time>2015-08-09T12:22:07Z</time>
      </trkpt>
      <trkpt lat="46.239779032766819" lon="11.846581036224961">
        <ele>2500.1930000000002</ele>
        <time>2015-08-09T12:22:32Z</time>
      </trkpt>
      <trkpt lat="46.239644000306726" lon="11.846476010978222">
        <ele>2496.7649999999999</ele>
        <time>2015-08-09T12:22:49Z</time>
      </trkpt>
      <trkpt lat="46.239563031122088" lon="11.846453966572881">
        <ele>2495.721</ele>
        <time>2015-08-09T12:23:07Z</time>
      </trkpt>
      <trkpt lat="46.239520031958818" lon="11.846431000158191">
        <ele>2493.308</ele>
        <time>2015-08-09T12:23:24Z</time>
      </trkpt>
      <trkpt lat="46.239472003653646" lon="11.846533007919788">
        <ele>2490.9200000000001</ele>
        <time>2015-08-09T12:23:47Z</time>
      </trkpt>
      <trkpt lat="46.239511985331774" lon="11.846584975719452">
        <ele>2490.4499999999998</ele>
        <time>2015-08-09T12:24:10Z</time>
      </trkpt>
      <trkpt lat="46.239498993381858" lon="11.846537031233311">
        <ele>2490.0839999999998</ele>
        <time>2015-08-09T12:24:30Z</time>
      </trkpt>
      <trkpt lat="46.239367984235287" lon="11.84655798599124">
        <ele>2489.5839999999998</ele>
        <time>2015-08-09T12:25:00Z</time>
      </trkpt>
      <trkpt lat="46.239325990900397" lon="11.846639038994908">
        <ele>2491.498</ele>
        <time>2015-08-09T12:25:27Z</time>
      </trkpt>
      <trkpt lat="46.239322973415256" lon="11.846637027338147">
        <ele>2491.431</ele>
        <time>2015-08-09T12:25:49Z</time>
      </trkpt>
      <trkpt lat="46.239277040585876" lon="11.846616994589567">
        <ele>2493.8180000000002</ele>
        <time>2015-08-09T12:26:11Z</time>
      </trkpt>
      <trkpt lat="46.239340994507074" lon="11.846630992367864">
        <ele>2494.3119999999999</ele>
        <time>2015-08-09T12:26:38Z</time>
      </trkpt>
      <trkpt lat="46.239232029765844" lon="11.846640966832638">
        <ele>2504.422</ele>
        <time>2015-08-09T12:27:03Z</time>
      </trkpt>
      <trkpt lat="46.239176038652658" lon="11.846667034551501">
        <ele>2502.5619999999999</ele>
        <time>2015-08-09T12:27:16Z</time>
      </trkpt>
      <trkpt lat="46.239243010058999" lon="11.846711039543152">
        <ele>2484.7080000000001</ele>
        <time>2015-08-09T12:27:28Z</time>
      </trkpt>
      <trkpt lat="46.239192970097065" lon="11.8467309884727">
        <ele>2482.7080000000001</ele>
        <time>2015-08-09T12:27:40Z</time>
      </trkpt>
      <trkpt lat="46.239231023937464" lon="11.846789997071028">
        <ele>2479.4430000000002</ele>
        <time>2015-08-09T12:27:57Z</time>
      </trkpt>
      <trkpt lat="46.239250972867012" lon="11.846771975979209">
        <ele>2472.7330000000002</ele>
        <time>2015-08-09T12:28:09Z</time>
      </trkpt>
      <trkpt lat="46.239296989515424" lon="11.846749009564519">
        <ele>2470.2469999999998</ele>
        <time>2015-08-09T12:28:22Z</time>
      </trkpt>
      <trkpt lat="46.23931098729372" lon="11.846797037869692">
        <ele>2467.4569999999999</ele>
        <time>2015-08-09T12:28:36Z</time>
      </trkpt>
      <trkpt lat="46.239404026418924" lon="11.846824027597904">
        <ele>2456.3910000000001</ele>
        <time>2015-08-09T12:29:01Z</time>
      </trkpt>
      <trkpt lat="46.239420035853982" lon="11.846881024539471">
        <ele>2452.0639999999999</ele>
        <time>2015-08-09T12:29:20Z</time>
      </trkpt>
      <trkpt lat="46.239401008933783" lon="11.846906002610922">
        <ele>2451.0410000000002</ele>
        <time>2015-08-09T12:29:27Z</time>
      </trkpt>
      <trkpt lat="46.239386005327106" lon="11.846938021481037">
        <ele>2450.5349999999999</ele>
        <time>2015-08-09T12:29:31Z</time>
      </trkpt>
      <trkpt lat="46.239320039749146" lon="11.847019996494055">
        <ele>2449.6770000000001</ele>
        <time>2015-08-09T12:29:43Z</time>
      </trkpt>
      <trkpt lat="46.239306963980198" lon="11.847048997879028">
        <ele>2449.1610000000001</ele>
        <time>2015-08-09T12:29:48Z</time>
      </trkpt>
      <trkpt lat="46.239248961210251" lon="11.847167015075684">
        <ele>2447.7269999999999</ele>
        <time>2015-08-09T12:30:00Z</time>
      </trkpt>
      <trkpt lat="46.23918198980391" lon="11.847241027280688">
        <ele>2446.2080000000001</ele>
        <time>2015-08-09T12:30:11Z</time>
      </trkpt>
      <trkpt lat="46.239132033661008" lon="11.847328031435609">
        <ele>2443.3879999999999</ele>
        <time>2015-08-09T12:30:25Z</time>
      </trkpt>
      <trkpt lat="46.239090040326118" lon="11.847369018942118">
        <ele>2439.0680000000002</ele>
        <time>2015-08-09T12:30:39Z</time>
      </trkpt>
      <trkpt lat="46.2390529923141" lon="11.847300035879016">
        <ele>2434.2820000000002</ele>
        <time>2015-08-09T12:30:53Z</time>
      </trkpt>
      <trkpt lat="46.239041006192565" lon="11.847263993695378">
        <ele>2429.9319999999998</ele>
        <time>2015-08-09T12:31:11Z</time>
      </trkpt>
      <trkpt lat="46.239019967615604" lon="11.847208002582192">
        <ele>2428.9659999999999</ele>
        <time>2015-08-09T12:31:25Z</time>
      </trkpt>
      <trkpt lat="46.23896699398756" lon="11.847189981490374">
        <ele>2428.0189999999998</ele>
        <time>2015-08-09T12:31:38Z</time>
      </trkpt>
      <trkpt lat="46.238947967067361" lon="11.847190987318754">
        <ele>2427.5160000000001</ele>
        <time>2015-08-09T12:31:47Z</time>
      </trkpt>
      <trkpt lat="46.23890002258122" lon="11.847205990925431">
        <ele>2426.52</ele>
        <time>2015-08-09T12:31:59Z</time>
      </trkpt>
      <trkpt lat="46.238866997882724" lon="11.847185036167502">
        <ele>2428.4870000000001</ele>
        <time>2015-08-09T12:32:21Z</time>
      </trkpt>
      <trkpt lat="46.238821987062693" lon="11.847306992858648">
        <ele>2424.6419999999998</ele>
        <time>2015-08-09T12:32:33Z</time>
      </trkpt>
      <trkpt lat="46.238783011212945" lon="11.847400031983852">
        <ele>2423.6260000000002</ele>
        <time>2015-08-09T12:32:44Z</time>
      </trkpt>
      <trkpt lat="46.238761972635984" lon="11.847493993118405">
        <ele>2419.308</ele>
        <time>2015-08-09T12:32:58Z</time>
      </trkpt>
      <trkpt lat="46.238736994564533" lon="11.847481001168489">
        <ele>2417.4389999999999</ele>
        <time>2015-08-09T12:33:10Z</time>
      </trkpt>
      <trkpt lat="46.238689972087741" lon="11.847487036138773">
        <ele>2416.9989999999998</ele>
        <time>2015-08-09T12:33:21Z</time>
      </trkpt>
      <trkpt lat="46.238619983196259" lon="11.84745904058218">
        <ele>2416.973</ele>
        <time>2015-08-09T12:33:33Z</time>
      </trkpt>
      <trkpt lat="46.238614032045007" lon="11.847464991733432">
        <ele>2416.9929999999999</ele>
        <time>2015-08-09T12:33:34Z</time>
      </trkpt>
      <trkpt lat="46.238572960719466" lon="11.847443031147122">
        <ele>2416.4169999999999</ele>
        <time>2015-08-09T12:33:47Z</time>
      </trkpt>
      <trkpt lat="46.238501965999603" lon="11.84748200699687">
        <ele>2416.4200000000001</ele>
        <time>2015-08-09T12:34:01Z</time>
      </trkpt>
      <trkpt lat="46.23844999819994" lon="11.847541015595198">
        <ele>2416.4270000000001</ele>
        <time>2015-08-09T12:34:13Z</time>
      </trkpt>
      <trkpt lat="46.238381015136838" lon="11.847576973959804">
        <ele>2416.4209999999998</ele>
        <time>2015-08-09T12:34:26Z</time>
      </trkpt>
      <trkpt lat="46.238303985446692" lon="11.847614021971822">
        <ele>2415.9549999999999</ele>
        <time>2015-08-09T12:34:36Z</time>
      </trkpt>
      <trkpt lat="46.238208012655377" lon="11.847646962851286">
        <ele>2415.9070000000002</ele>
        <time>2015-08-09T12:34:51Z</time>
      </trkpt>
      <trkpt lat="46.238136012107134" lon="11.847672024741769">
        <ele>2416.4169999999999</ele>
        <time>2015-08-09T12:35:05Z</time>
      </trkpt>
      <trkpt lat="46.23802101239562" lon="11.847733967006207">
        <ele>2417.4079999999999</ele>
        <time>2015-08-09T12:35:21Z</time>
      </trkpt>
      <trkpt lat="46.237943982705474" lon="11.847732039168477">
        <ele>2418.386</ele>
        <time>2015-08-09T12:35:32Z</time>
      </trkpt>
      <trkpt lat="46.23791397549212" lon="11.847660038620234">
        <ele>2420.3760000000002</ele>
        <time>2015-08-09T12:35:54Z</time>
      </trkpt>
      <trkpt lat="46.238144980743527" lon="11.847405983135104">
        <ele>2402.0799999999999</ele>
        <time>2015-08-09T12:36:25Z</time>
      </trkpt>
      <trkpt lat="46.238104999065399" lon="11.847520982846618">
        <ele>2395.73</ele>
        <time>2015-08-09T12:36:39Z</time>
      </trkpt>
      <trkpt lat="46.238126959651709" lon="11.847584014758468">
        <ele>2385.7840000000001</ele>
        <time>2015-08-09T12:36:54Z</time>
      </trkpt>
      <trkpt lat="46.238068034872413" lon="11.847639000043273">
        <ele>2379.4569999999999</ele>
        <time>2015-08-09T12:37:14Z</time>
      </trkpt>
      <trkpt lat="46.238036016002297" lon="11.847660960629582">
        <ele>2377.0439999999999</ele>
        <time>2015-08-09T12:37:18Z</time>
      </trkpt>
      <trkpt lat="46.238024029880762" lon="11.847662972286344">
        <ele>2375.6579999999999</ele>
        <time>2015-08-09T12:37:20Z</time>
      </trkpt>
      <trkpt lat="46.237996034324169" lon="11.847659032791853">
        <ele>2375.1109999999999</ele>
        <time>2015-08-09T12:37:25Z</time>
      </trkpt>
      <trkpt lat="46.237964015454054" lon="11.847701026126742">
        <ele>2374.6210000000001</ele>
        <time>2015-08-09T12:37:28Z</time>
      </trkpt>
      <trkpt lat="46.237884974107146" lon="11.847701026126742">
        <ele>2373.203</ele>
        <time>2015-08-09T12:37:38Z</time>
      </trkpt>
      <trkpt lat="46.237721024081111" lon="11.847793981432915">
        <ele>2372.2080000000001</ele>
        <time>2015-08-09T12:37:50Z</time>
      </trkpt>
      <trkpt lat="46.237606024369597" lon="11.847821976989508">
        <ele>2369.3820000000001</ele>
        <time>2015-08-09T12:38:04Z</time>
      </trkpt>
      <trkpt lat="46.237552966922522" lon="11.847839998081326">
        <ele>2367.482</ele>
        <time>2015-08-09T12:38:12Z</time>
      </trkpt>
      <trkpt lat="46.237457999959588" lon="11.847820971161127">
        <ele>2364.096</ele>
        <time>2015-08-09T12:38:24Z</time>
      </trkpt>
      <trkpt lat="46.237364038825035" lon="11.847774032503366">
        <ele>2365.0859999999998</ele>
        <time>2015-08-09T12:38:36Z</time>
      </trkpt>
      <trkpt lat="46.237294971942902" lon="11.847711000591516">
        <ele>2363.1500000000001</ele>
        <time>2015-08-09T12:38:50Z</time>
      </trkpt>
      <trkpt lat="46.237235963344574" lon="11.847640005871654">
        <ele>2362.623</ele>
        <time>2015-08-09T12:39:04Z</time>
      </trkpt>
      <trkpt lat="46.23716002330184" lon="11.847583008930087">
        <ele>2360.73</ele>
        <time>2015-08-09T12:39:18Z</time>
      </trkpt>
      <trkpt lat="46.237135967239738" lon="11.847492987290025">
        <ele>2360.2939999999999</ele>
        <time>2015-08-09T12:39:30Z</time>
      </trkpt>
      <trkpt lat="46.237110989168286" lon="11.847385028377175">
        <ele>2360.277</ele>
        <time>2015-08-09T12:39:41Z</time>
      </trkpt>
      <trkpt lat="46.237091040238738" lon="11.847344962880015">
        <ele>2358.3609999999999</ele>
        <time>2015-08-09T12:40:00Z</time>
      </trkpt>
      <trkpt lat="46.237070001661777" lon="11.847295006737113">
        <ele>2355.9270000000001</ele>
        <time>2015-08-09T12:40:12Z</time>
      </trkpt>
      <trkpt lat="46.237024990841746" lon="11.847195010632277">
        <ele>2354.9079999999999</ele>
        <time>2015-08-09T12:40:25Z</time>
      </trkpt>
      <trkpt lat="46.236941004171968" lon="11.847061989828944">
        <ele>2360.2280000000001</ele>
        <time>2015-08-09T12:40:38Z</time>
      </trkpt>
      <trkpt lat="46.236896999180317" lon="11.847013039514422">
        <ele>2361.1880000000001</ele>
        <time>2015-08-09T12:40:45Z</time>
      </trkpt>
      <trkpt lat="46.236830027773976" lon="11.846896028146148">
        <ele>2363.1120000000001</ele>
        <time>2015-08-09T12:40:59Z</time>
      </trkpt>
      <trkpt lat="46.236736988648772" lon="11.84683601371944">
        <ele>2365.0920000000001</ele>
        <time>2015-08-09T12:41:15Z</time>
      </trkpt>
      <trkpt lat="46.236694995313883" lon="11.846826961264014">
        <ele>2370.826</ele>
        <time>2015-08-09T12:41:29Z</time>
      </trkpt>
      <trkpt lat="46.236699018627405" lon="11.846760995686054">
        <ele>2372.259</ele>
        <time>2015-08-09T12:41:52Z</time>
      </trkpt>
      <trkpt lat="46.236648978665471" lon="11.846740962937474">
        <ele>2373.6460000000002</ele>
        <time>2015-08-09T12:42:19Z</time>
      </trkpt>
      <trkpt lat="46.236605979502201" lon="11.846737023442984">
        <ele>2372.79</ele>
        <time>2015-08-09T12:42:34Z</time>
      </trkpt>
      <trkpt lat="46.236544959247112" lon="11.846715984866023">
        <ele>2373.6860000000001</ele>
        <time>2015-08-09T12:42:48Z</time>
      </trkpt>
      <trkpt lat="46.236483016982675" lon="11.846628980711102">
        <ele>2376.0599999999999</ele>
        <time>2015-08-09T12:43:07Z</time>
      </trkpt>
      <trkpt lat="46.236477987840772" lon="11.846620012074709">
        <ele>2377.5259999999998</ele>
        <time>2015-08-09T12:43:32Z</time>
      </trkpt>
      <trkpt lat="46.236461978405714" lon="11.846607020124793">
        <ele>2379.9079999999999</ele>
        <time>2015-08-09T12:43:53Z</time>
      </trkpt>
      <trkpt lat="46.236447980627418" lon="11.846642978489399">
        <ele>2377.5990000000002</ele>
        <time>2015-08-09T12:44:12Z</time>
      </trkpt>
      <trkpt lat="46.236444963142276" lon="11.846652030944824">
        <ele>2378.4389999999999</ele>
        <time>2015-08-09T12:44:27Z</time>
      </trkpt>
      <trkpt lat="46.236429959535599" lon="11.846618000417948">
        <ele>2375.6329999999998</ele>
        <time>2015-08-09T12:44:40Z</time>
      </trkpt>
      <trkpt lat="46.23630004003644" lon="11.846549017354846">
        <ele>2374.183</ele>
        <time>2015-08-09T12:44:55Z</time>
      </trkpt>
      <trkpt lat="46.236185962334275" lon="11.846562009304762">
        <ele>2373.2669999999998</ele>
        <time>2015-08-09T12:45:09Z</time>
      </trkpt>
      <trkpt lat="46.236081020906568" lon="11.846631998196244">
        <ele>2373.6199999999999</ele>
        <time>2015-08-09T12:45:22Z</time>
      </trkpt>
      <trkpt lat="46.235981024801731" lon="11.846710033714771">
        <ele>2375.1570000000002</ele>
        <time>2015-08-09T12:45:36Z</time>
      </trkpt>
      <trkpt lat="46.235912041738629" lon="11.846709027886391">
        <ele>2375.6210000000001</ele>
        <time>2015-08-09T12:45:42Z</time>
      </trkpt>
      <trkpt lat="46.235781032592058" lon="11.846745992079377">
        <ele>2371.7660000000001</ele>
        <time>2015-08-09T12:45:55Z</time>
      </trkpt>
      <trkpt lat="46.235715989023447" lon="11.846866020932794">
        <ele>2365.9290000000001</ele>
        <time>2015-08-09T12:46:08Z</time>
      </trkpt>
      <trkpt lat="46.23570098541677" lon="11.846883036196232">
        <ele>2365.9209999999998</ele>
        <time>2015-08-09T12:46:10Z</time>
      </trkpt>
      <trkpt lat="46.235675001516938" lon="11.846927041187882">
        <ele>2364.0079999999998</ele>
        <time>2015-08-09T12:46:14Z</time>
      </trkpt>
      <trkpt lat="46.235554972663522" lon="11.846962999552488">
        <ele>2360.2570000000001</ele>
        <time>2015-08-09T12:46:26Z</time>
      </trkpt>
      <trkpt lat="46.235481966286898" lon="11.847000969573855">
        <ele>2360.2869999999998</ele>
        <time>2015-08-09T12:46:37Z</time>
      </trkpt>
      <trkpt lat="46.235439972952008" lon="11.847028965130448">
        <ele>2361.1210000000001</ele>
        <time>2015-08-09T12:46:48Z</time>
      </trkpt>
      <trkpt lat="46.235355986282229" lon="11.847046986222267">
        <ele>2365.0509999999999</ele>
        <time>2015-08-09T12:47:00Z</time>
      </trkpt>
      <trkpt lat="46.235281974077225" lon="11.847042040899396">
        <ele>2368.835</ele>
        <time>2015-08-09T12:47:14Z</time>
      </trkpt>
      <trkpt lat="46.235179966315627" lon="11.847021002322435">
        <ele>2371.2979999999998</ele>
        <time>2015-08-09T12:47:28Z</time>
      </trkpt>
      <trkpt lat="46.23511902987957" lon="11.84698898345232">
        <ele>2372.7350000000001</ele>
        <time>2015-08-09T12:47:38Z</time>
      </trkpt>
      <trkpt lat="46.235126992687583" lon="11.846929974853992">
        <ele>2375.1289999999999</ele>
        <time>2015-08-09T12:47:50Z</time>
      </trkpt>
      <trkpt lat="46.235039988532662" lon="11.846873983740807">
        <ele>2375.174</ele>
        <time>2015-08-09T12:48:01Z</time>
      </trkpt>
      <trkpt lat="46.23503596521914" lon="11.846820004284382">
        <ele>2378.056</ele>
        <time>2015-08-09T12:48:11Z</time>
      </trkpt>
      <trkpt lat="46.23496999964118" lon="11.846753032878041">
        <ele>2377.5210000000002</ele>
        <time>2015-08-09T12:48:22Z</time>
      </trkpt>
      <trkpt lat="46.234956001862884" lon="11.846640966832638">
        <ele>2381.308</ele>
        <time>2015-08-09T12:48:36Z</time>
      </trkpt>
      <trkpt lat="46.234914008527994" lon="11.846563015133142">
        <ele>2380.8879999999999</ele>
        <time>2015-08-09T12:48:48Z</time>
      </trkpt>
      <trkpt lat="46.234862962737679" lon="11.84655798599124">
        <ele>2380.4279999999999</ele>
        <time>2015-08-09T12:49:11Z</time>
      </trkpt>
      <trkpt lat="46.234795991331339" lon="11.846538037061691">
        <ele>2383.3319999999999</ele>
        <time>2015-08-09T12:49:24Z</time>
      </trkpt>
      <trkpt lat="46.23473203741014" lon="11.846470981836319">
        <ele>2387.1619999999998</ele>
        <time>2015-08-09T12:49:37Z</time>
      </trkpt>
      <trkpt lat="46.23473203741014" lon="11.846392024308443">
        <ele>2386.1260000000002</ele>
        <time>2015-08-09T12:49:50Z</time>
      </trkpt>
      <trkpt lat="46.234757015481591" lon="11.846412979066372">
        <ele>2389.0390000000002</ele>
        <time>2015-08-09T12:50:09Z</time>
      </trkpt>
      <trkpt lat="46.234704963862896" lon="11.846448015421629">
        <ele>2383.7559999999999</ele>
        <time>2015-08-09T12:50:25Z</time>
      </trkpt>
      <trkpt lat="46.234714016318321" lon="11.846438040956855">
        <ele>2385.2199999999998</ele>
        <time>2015-08-09T12:50:38Z</time>
      </trkpt>
      <trkpt lat="46.234742011874914" lon="11.846434017643332">
        <ele>2389.0909999999999</ele>
        <time>2015-08-09T12:50:59Z</time>
      </trkpt>
      <trkpt lat="46.23475500382483" lon="11.846420019865036">
        <ele>2390.5810000000001</ele>
        <time>2015-08-09T12:51:26Z</time>
      </trkpt>
      <trkpt lat="46.23473497107625" lon="11.846418008208275">
        <ele>2390.0189999999998</ele>
        <time>2015-08-09T12:52:01Z</time>
      </trkpt>
      <trkpt lat="46.234735976904631" lon="11.846431000158191">
        <ele>2390.5079999999998</ele>
        <time>2015-08-09T12:52:30Z</time>
      </trkpt>
      <trkpt lat="46.234747041016817" lon="11.846413984894753">
        <ele>2390.0799999999999</ele>
        <time>2015-08-09T12:53:08Z</time>
      </trkpt>
      <trkpt lat="46.234749974682927" lon="11.846422031521797">
        <ele>2392.4400000000001</ele>
        <time>2015-08-09T12:53:42Z</time>
      </trkpt>
      <trkpt lat="46.234733965247869" lon="11.846431000158191">
        <ele>2391.9839999999999</ele>
        <time>2015-08-09T12:54:17Z</time>
      </trkpt>
      <trkpt lat="46.23473203741014" lon="11.846438962966204">
        <ele>2390.5439999999999</ele>
        <time>2015-08-09T12:54:46Z</time>
      </trkpt>
      <trkpt lat="46.234730025753379" lon="11.846438040956855">
        <ele>2391.9479999999999</ele>
        <time>2015-08-09T12:55:09Z</time>
      </trkpt>
      <trkpt lat="46.234735976904631" lon="11.846427982673049">
        <ele>2393.3510000000001</ele>
        <time>2015-08-09T12:55:34Z</time>
      </trkpt>
      <trkpt lat="46.234738994389772" lon="11.846426976844668">
        <ele>2392.4879999999998</ele>
        <time>2015-08-09T12:55:59Z</time>
      </trkpt>
      <trkpt lat="46.234750980511308" lon="11.846412979066372">
        <ele>2393.3519999999999</ele>
        <time>2015-08-09T12:56:22Z</time>
      </trkpt>
      <trkpt lat="46.23477797023952" lon="11.846464024856687">
        <ele>2391.9679999999998</ele>
        <time>2015-08-09T12:56:34Z</time>
      </trkpt>
      <trkpt lat="46.234771013259888" lon="11.846469976007938">
        <ele>2391.442</ele>
        <time>2015-08-09T12:56:47Z</time>
      </trkpt>
      <trkpt lat="46.234784005209804" lon="11.846468970179558">
        <ele>2390.9259999999999</ele>
        <time>2015-08-09T12:57:07Z</time>
      </trkpt>
      <trkpt lat="46.23477503657341" lon="11.84649302624166">
        <ele>2388.5079999999998</ele>
        <time>2015-08-09T12:57:21Z</time>
      </trkpt>
      <trkpt lat="46.234781993553042" lon="11.846466958522797">
        <ele>2389.047</ele>
        <time>2015-08-09T12:57:37Z</time>
      </trkpt>
      <trkpt lat="46.234761038795114" lon="11.846390012651682">
        <ele>2390.9569999999999</ele>
        <time>2015-08-09T12:57:50Z</time>
      </trkpt>
      <trkpt lat="46.23473497107625" lon="11.846336033195257">
        <ele>2391.4810000000002</ele>
        <time>2015-08-09T12:58:00Z</time>
      </trkpt>
      <trkpt lat="46.234701024368405" lon="11.846265038475394">
        <ele>2391.971</ele>
        <time>2015-08-09T12:58:12Z</time>
      </trkpt>
      <trkpt lat="46.234665988013148" lon="11.846224972978234">
        <ele>2391.415</ele>
        <time>2015-08-09T12:58:17Z</time>
      </trkpt>
      <trkpt lat="46.234614020213485" lon="11.846156995743513">
        <ele>2391.4580000000001</ele>
        <time>2015-08-09T12:58:26Z</time>
      </trkpt>
      <trkpt lat="46.234477981925011" lon="11.846095975488424">
        <ele>2390.5749999999998</ele>
        <time>2015-08-09T12:58:39Z</time>
      </trkpt>
      <trkpt lat="46.234399024397135" lon="11.846060017123818">
        <ele>2389.5790000000002</ele>
        <time>2015-08-09T12:58:46Z</time>
      </trkpt>
      <trkpt lat="46.234354013577104" lon="11.846023974940181">
        <ele>2389.0250000000001</ele>
        <time>2015-08-09T12:58:49Z</time>
      </trkpt>
      <trkpt lat="46.234318977221847" lon="11.845958009362221">
        <ele>2388.5259999999998</ele>
        <time>2015-08-09T12:58:54Z</time>
      </trkpt>
      <trkpt lat="46.23421898111701" lon="11.845799004659057">
        <ele>2387.1080000000002</ele>
        <time>2015-08-09T12:59:07Z</time>
      </trkpt>
      <trkpt lat="46.234181011095643" lon="11.84567503631115">
        <ele>2386.1080000000002</ele>
        <time>2015-08-09T12:59:16Z</time>
      </trkpt>
      <trkpt lat="46.234117979183793" lon="11.845590965822339">
        <ele>2386.683</ele>
        <time>2015-08-09T12:59:29Z</time>
      </trkpt>
      <trkpt lat="46.234090989455581" lon="11.845543021336198">
        <ele>2386.623</ele>
        <time>2015-08-09T12:59:34Z</time>
      </trkpt>
      <trkpt lat="46.234025023877621" lon="11.845546960830688">
        <ele>2387.1869999999999</ele>
        <time>2015-08-09T12:59:47Z</time>
      </trkpt>
      <trkpt lat="46.234063999727368" lon="11.845535980537534">
        <ele>2387.6970000000001</ele>
        <time>2015-08-09T13:00:06Z</time>
      </trkpt>
      <trkpt lat="46.234025023877621" lon="11.845581997185946">
        <ele>2387.6709999999998</ele>
        <time>2015-08-09T13:00:18Z</time>
      </trkpt>
      <trkpt lat="46.233951011672616" lon="11.845558024942875">
        <ele>2390.0340000000001</ele>
        <time>2015-08-09T13:00:34Z</time>
      </trkpt>
      <trkpt lat="46.233901977539062" lon="11.845536986365914">
        <ele>2390.5410000000002</ele>
        <time>2015-08-09T13:00:49Z</time>
      </trkpt>
      <trkpt lat="46.233897032216191" lon="11.845498010516167">
        <ele>2389.5549999999998</ele>
        <time>2015-08-09T13:01:00Z</time>
      </trkpt>
      <trkpt lat="46.233961991965771" lon="11.845503961667418">
        <ele>2392.991</ele>
        <time>2015-08-09T13:01:19Z</time>
      </trkpt>
      <trkpt lat="46.23396098613739" lon="11.845476971939206">
        <ele>2388.5810000000001</ele>
        <time>2015-08-09T13:01:35Z</time>
      </trkpt>
      <trkpt lat="46.233947994187474" lon="11.845449982210994">
        <ele>2385.7190000000001</ele>
        <time>2015-08-09T13:01:47Z</time>
      </trkpt>
      <trkpt lat="46.233952017500997" lon="11.845402959734201">
        <ele>2384.2080000000001</ele>
        <time>2015-08-09T13:02:00Z</time>
      </trkpt>
      <trkpt lat="46.233932990580797" lon="11.845371024683118">
        <ele>2384.7399999999998</ele>
        <time>2015-08-09T13:02:15Z</time>
      </trkpt>
      <trkpt lat="46.233946988359094" lon="11.845347974449396">
        <ele>2383.3600000000001</ele>
        <time>2015-08-09T13:02:29Z</time>
      </trkpt>
      <trkpt lat="46.233954029157758" lon="11.845304975286126">
        <ele>2379.924</ele>
        <time>2015-08-09T13:02:45Z</time>
      </trkpt>
      <trkpt lat="46.233962997794151" lon="11.845301035791636">
        <ele>2378.9340000000002</ele>
        <time>2015-08-09T13:03:02Z</time>
      </trkpt>
      <trkpt lat="46.23393701389432" lon="11.845253007486463">
        <ele>2376.518</ele>
        <time>2015-08-09T13:03:22Z</time>
      </trkpt>
      <trkpt lat="46.233939025551081" lon="11.845234986394644">
        <ele>2374.1210000000001</ele>
        <time>2015-08-09T13:03:39Z</time>
      </trkpt>
      <trkpt lat="46.233939025551081" lon="11.845233980566263">
        <ele>2371.7979999999998</ele>
        <time>2015-08-09T13:03:54Z</time>
      </trkpt>
      <trkpt lat="46.233952017500997" lon="11.845200033858418">
        <ele>2370.8820000000001</ele>
        <time>2015-08-09T13:04:13Z</time>
      </trkpt>
      <trkpt lat="46.233961991965771" lon="11.8451629858464">
        <ele>2370.8710000000001</ele>
        <time>2015-08-09T13:04:28Z</time>
      </trkpt>
      <trkpt lat="46.233952017500997" lon="11.84514001943171">
        <ele>2370.3409999999999</ele>
        <time>2015-08-09T13:04:34Z</time>
      </trkpt>
      <trkpt lat="46.233935002237558" lon="11.845128033310175">
        <ele>2368.415</ele>
        <time>2015-08-09T13:04:50Z</time>
      </trkpt>
      <trkpt lat="46.233953023329377" lon="11.845143036916852">
        <ele>2365.9079999999999</ele>
        <time>2015-08-09T13:05:23Z</time>
      </trkpt>
      <trkpt lat="46.233943970873952" lon="11.8451820127666">
        <ele>2365.9879999999998</ele>
        <time>2015-08-09T13:05:47Z</time>
      </trkpt>
      <trkpt lat="46.233927039429545" lon="11.845156028866768">
        <ele>2364.0680000000002</ele>
        <time>2015-08-09T13:06:02Z</time>
      </trkpt>
      <trkpt lat="46.233931984752417" lon="11.845100037753582">
        <ele>2360.2820000000002</ele>
        <time>2015-08-09T13:06:20Z</time>
      </trkpt>
      <trkpt lat="46.233910024166107" lon="11.845095008611679">
        <ele>2360.7620000000002</ele>
        <time>2015-08-09T13:06:35Z</time>
      </trkpt>
      <trkpt lat="46.233965009450912" lon="11.84505301527679">
        <ele>2363.5360000000001</ele>
        <time>2015-08-09T13:06:56Z</time>
      </trkpt>
      <trkpt lat="46.23395998030901" lon="11.845114035531878">
        <ele>2366.9989999999998</ele>
        <time>2015-08-09T13:07:17Z</time>
      </trkpt>
      <trkpt lat="46.233954029157758" lon="11.845124009996653">
        <ele>2367.4259999999999</ele>
        <time>2015-08-09T13:07:36Z</time>
      </trkpt>
      <trkpt lat="46.233911029994488" lon="11.845185030251741">
        <ele>2359.7199999999998</ele>
        <time>2015-08-09T13:08:04Z</time>
      </trkpt>
      <trkpt lat="46.23391798697412" lon="11.845098026096821">
        <ele>2359.279</ele>
        <time>2015-08-09T13:08:22Z</time>
      </trkpt>
      <trkpt lat="46.233930978924036" lon="11.845078999176621">
        <ele>2354.4050000000002</ele>
        <time>2015-08-09T13:08:42Z</time>
      </trkpt>
      <trkpt lat="46.233909018337727" lon="11.845046980306506">
        <ele>2354.4250000000002</ele>
        <time>2015-08-09T13:08:58Z</time>
      </trkpt>
      <trkpt lat="46.233888985589147" lon="11.845018984749913">
        <ele>2353.4079999999999</ele>
        <time>2015-08-09T13:09:14Z</time>
      </trkpt>
      <trkpt lat="46.233858978375793" lon="11.845030970871449">
        <ele>2353.4879999999998</ele>
        <time>2015-08-09T13:09:32Z</time>
      </trkpt>
      <trkpt lat="46.233882028609514" lon="11.845049997791648">
        <ele>2353.4780000000001</ele>
        <time>2015-08-09T13:09:44Z</time>
      </trkpt>
      <trkpt lat="46.233918992802501" lon="11.844972968101501">
        <ele>2351.0720000000001</ele>
        <time>2015-08-09T13:10:01Z</time>
      </trkpt>
      <trkpt lat="46.233957968652248" lon="11.845027031376958">
        <ele>2346.7820000000002</ele>
        <time>2015-08-09T13:10:17Z</time>
      </trkpt>
      <trkpt lat="46.233898960053921" lon="11.845002975314856">
        <ele>2347.2460000000001</ele>
        <time>2015-08-09T13:10:34Z</time>
      </trkpt>
      <trkpt lat="46.233842968940735" lon="11.844971962273121">
        <ele>2349.1790000000001</ele>
        <time>2015-08-09T13:10:53Z</time>
      </trkpt>
      <trkpt lat="46.233810028061271" lon="11.844902979210019">
        <ele>2350.6460000000002</ele>
        <time>2015-08-09T13:11:16Z</time>
      </trkpt>
      <trkpt lat="46.233799969777465" lon="11.8448849581182">
        <ele>2351.02</ele>
        <time>2015-08-09T13:11:36Z</time>
      </trkpt>
      <trkpt lat="46.233818996697664" lon="11.84488101862371">
        <ele>2352.5830000000001</ele>
        <time>2015-08-09T13:11:52Z</time>
      </trkpt>
      <trkpt lat="46.233806004747748" lon="11.844869032502174">
        <ele>2349.625</ele>
        <time>2015-08-09T13:12:10Z</time>
      </trkpt>
      <trkpt lat="46.233817990869284" lon="11.84486098587513">
        <ele>2348.6170000000002</ele>
        <time>2015-08-09T13:12:22Z</time>
      </trkpt>
      <trkpt lat="46.233834000304341" lon="11.844844976440072">
        <ele>2345.808</ele>
        <time>2015-08-09T13:12:38Z</time>
      </trkpt>
      <trkpt lat="46.233824025839567" lon="11.844788985326886">
        <ele>2342.4989999999998</ele>
        <time>2015-08-09T13:12:51Z</time>
      </trkpt>
      <trkpt lat="46.233812961727381" lon="11.844750009477139">
        <ele>2339.0390000000002</ele>
        <time>2015-08-09T13:13:02Z</time>
      </trkpt>
      <trkpt lat="46.233816985040903" lon="11.844701981171966">
        <ele>2336.1129999999998</ele>
        <time>2015-08-09T13:13:12Z</time>
      </trkpt>
      <trkpt lat="46.233828971162438" lon="11.844600979238749">
        <ele>2331.873</ele>
        <time>2015-08-09T13:13:25Z</time>
      </trkpt>
      <trkpt lat="46.233807010576129" lon="11.844535013660789">
        <ele>2329.4270000000001</ele>
        <time>2015-08-09T13:13:37Z</time>
      </trkpt>
      <trkpt lat="46.233770968392491" lon="11.844437029212713">
        <ele>2329.4400000000001</ele>
        <time>2015-08-09T13:13:50Z</time>
      </trkpt>
      <trkpt lat="46.23376602306962" lon="11.844435017555952">
        <ele>2328.9670000000001</ele>
        <time>2015-08-09T13:14:04Z</time>
      </trkpt>
      <trkpt lat="46.233714977279305" lon="11.844461001455784">
        <ele>2327.5210000000002</ele>
        <time>2015-08-09T13:14:21Z</time>
      </trkpt>
      <trkpt lat="46.233673989772797" lon="11.844410039484501">
        <ele>2326.5149999999999</ele>
        <time>2015-08-09T13:14:34Z</time>
      </trkpt>
      <trkpt lat="46.233652029186487" lon="11.844351030886173">
        <ele>2325.665</ele>
        <time>2015-08-09T13:14:47Z</time>
      </trkpt>
      <trkpt lat="46.233664015308022" lon="11.844317000359297">
        <ele>2332.8110000000001</ele>
        <time>2015-08-09T13:15:00Z</time>
      </trkpt>
      <trkpt lat="46.233669966459274" lon="11.844363017007709">
        <ele>2335.2080000000001</ele>
        <time>2015-08-09T13:15:24Z</time>
      </trkpt>
      <trkpt lat="46.233665021136403" lon="11.844324041157961">
        <ele>2334.7620000000002</ele>
        <time>2015-08-09T13:15:55Z</time>
      </trkpt>
      <trkpt lat="46.233639037236571" lon="11.844311971217394">
        <ele>2335.7220000000002</ele>
        <time>2015-08-09T13:16:14Z</time>
      </trkpt>
      <trkpt lat="46.233598971739411" lon="11.844277018681169">
        <ele>2334.2460000000001</ele>
        <time>2015-08-09T13:16:29Z</time>
      </trkpt>
      <trkpt lat="46.23355002142489" lon="11.844202000647783">
        <ele>2332.826</ele>
        <time>2015-08-09T13:16:42Z</time>
      </trkpt>
      <trkpt lat="46.233557984232903" lon="11.844122959300876">
        <ele>2333.79</ele>
        <time>2015-08-09T13:16:52Z</time>
      </trkpt>
      <trkpt lat="46.233542980626225" lon="11.84406797401607">
        <ele>2335.2730000000001</ele>
        <time>2015-08-09T13:17:04Z</time>
      </trkpt>
      <trkpt lat="46.233557984232903" lon="11.843978958204389">
        <ele>2335.25</ele>
        <time>2015-08-09T13:17:16Z</time>
      </trkpt>
      <trkpt lat="46.23357399366796" lon="11.843913998454809">
        <ele>2332.8339999999998</ele>
        <time>2015-08-09T13:17:29Z</time>
      </trkpt>
      <trkpt lat="46.233587991446257" lon="11.843874016776681">
        <ele>2331.8119999999999</ele>
        <time>2015-08-09T13:17:42Z</time>
      </trkpt>
      <trkpt lat="46.233595032244921" lon="11.84385297819972">
        <ele>2328.9319999999998</ele>
        <time>2015-08-09T13:17:56Z</time>
      </trkpt>
      <trkpt lat="46.233600983396173" lon="11.843880973756313">
        <ele>2327.0050000000001</ele>
        <time>2015-08-09T13:18:16Z</time>
      </trkpt>
      <trkpt lat="46.233626967296004" lon="11.843865970149636">
        <ele>2327.0079999999998</ele>
        <time>2015-08-09T13:18:30Z</time>
      </trkpt>
      <trkpt lat="46.233655968680978" lon="11.843883991241455">
        <ele>2326.5619999999999</ele>
        <time>2015-08-09T13:18:46Z</time>
      </trkpt>
      <trkpt lat="46.233713971450925" lon="11.843855995684862">
        <ele>2328.9920000000002</ele>
        <time>2015-08-09T13:18:59Z</time>
      </trkpt>
      <trkpt lat="46.233756970614195" lon="11.843820959329605">
        <ele>2328.9960000000001</ele>
        <time>2015-08-09T13:19:17Z</time>
      </trkpt>
      <trkpt lat="46.233746996149421" lon="11.843800004571676">
        <ele>2327.056</ele>
        <time>2015-08-09T13:19:30Z</time>
      </trkpt>
      <trkpt lat="46.23374498449266" lon="11.843798998743296">
        <ele>2322.79</ele>
        <time>2015-08-09T13:19:56Z</time>
      </trkpt>
      <trkpt lat="46.23376501724124" lon="11.843818025663495">
        <ele>2327.0529999999999</ele>
        <time>2015-08-09T13:20:12Z</time>
      </trkpt>
      <trkpt lat="46.233789995312691" lon="11.843776032328606">
        <ele>2326.1100000000001</ele>
        <time>2015-08-09T13:20:28Z</time>
      </trkpt>
      <trkpt lat="46.233792006969452" lon="11.843771003186703">
        <ele>2326.154</ele>
        <time>2015-08-09T13:20:51Z</time>
      </trkpt>
      <trkpt lat="46.233783038333058" lon="11.843772009015083">
        <ele>2325.1959999999999</ele>
        <time>2015-08-09T13:21:17Z</time>
      </trkpt>
      <trkpt lat="46.233785971999168" lon="11.843781983479857">
        <ele>2325.1309999999999</ele>
        <time>2015-08-09T13:21:39Z</time>
      </trkpt>
      <trkpt lat="46.233821008354425" lon="11.843746025115252">
        <ele>2324.1239999999998</ele>
        <time>2015-08-09T13:21:58Z</time>
      </trkpt>
      <trkpt lat="46.233838023617864" lon="11.843731021508574">
        <ele>2321.7080000000001</ele>
        <time>2015-08-09T13:22:14Z</time>
      </trkpt>
      <trkpt lat="46.233827965334058" lon="11.843732027336955">
        <ele>2316.9200000000001</ele>
        <time>2015-08-09T13:22:37Z</time>
      </trkpt>
      <trkpt lat="46.233829976990819" lon="11.84372398070991">
        <ele>2316.9699999999998</ele>
        <time>2015-08-09T13:23:03Z</time>
      </trkpt>
      <trkpt lat="46.233835006132722" lon="11.84372297488153">
        <ele>2316.4639999999999</ele>
        <time>2015-08-09T13:23:22Z</time>
      </trkpt>
      <trkpt lat="46.233845986425877" lon="11.843734038993716">
        <ele>2315.5340000000001</ele>
        <time>2015-08-09T13:23:35Z</time>
      </trkpt>
      <trkpt lat="46.233838023617864" lon="11.843690034002066">
        <ele>2314.078</ele>
        <time>2015-08-09T13:23:47Z</time>
      </trkpt>
      <trkpt lat="46.233817990869284" lon="11.843645023182034">
        <ele>2312.6909999999998</ele>
        <time>2015-08-09T13:24:03Z</time>
      </trkpt>
      <trkpt lat="46.233811033889651" lon="11.843648962676525">
        <ele>2310.248</ele>
        <time>2015-08-09T13:24:18Z</time>
      </trkpt>
      <trkpt lat="46.233774991706014" lon="11.843651980161667">
        <ele>2308.712</ele>
        <time>2015-08-09T13:24:33Z</time>
      </trkpt>
      <trkpt lat="46.23378798365593" lon="11.843567993491888">
        <ele>2309.2530000000002</ele>
        <time>2015-08-09T13:24:47Z</time>
      </trkpt>
      <trkpt lat="46.233812039718032" lon="11.843534968793392">
        <ele>2306.8040000000001</ele>
        <time>2015-08-09T13:25:06Z</time>
      </trkpt>
      <trkpt lat="46.233829976990819" lon="11.843541003763676">
        <ele>2303.9140000000002</ele>
        <time>2015-08-09T13:25:25Z</time>
      </trkpt>
      <trkpt lat="46.233847998082638" lon="11.843548966571689">
        <ele>2303.0079999999998</ele>
        <time>2015-08-09T13:25:43Z</time>
      </trkpt>
      <trkpt lat="46.233882028609514" lon="11.84355097822845">
        <ele>2301.1559999999999</ele>
        <time>2015-08-09T13:26:02Z</time>
      </trkpt>
      <trkpt lat="46.233865013346076" lon="11.843553995713592">
        <ele>2300.1260000000002</ele>
        <time>2015-08-09T13:26:25Z</time>
      </trkpt>
      <trkpt lat="46.233860990032554" lon="11.843577967956662">
        <ele>2297.23</ele>
        <time>2015-08-09T13:26:44Z</time>
      </trkpt>
      <trkpt lat="46.233870964497328" lon="11.843562964349985">
        <ele>2293.8800000000001</ele>
        <time>2015-08-09T13:27:02Z</time>
      </trkpt>
      <trkpt lat="46.233856966719031" lon="11.843548966571689">
        <ele>2293.4740000000002</ele>
        <time>2015-08-09T13:27:19Z</time>
      </trkpt>
      <trkpt lat="46.233807010576129" lon="11.843504039570689">
        <ele>2294.377</ele>
        <time>2015-08-09T13:27:34Z</time>
      </trkpt>
      <trkpt lat="46.233758982270956" lon="11.84348501265049">
        <ele>2293.8440000000001</ele>
        <time>2015-08-09T13:27:47Z</time>
      </trkpt>
      <trkpt lat="46.233742972835898" lon="11.843447964638472">
        <ele>2294.3580000000002</ele>
        <time>2015-08-09T13:28:05Z</time>
      </trkpt>
      <trkpt lat="46.233743978664279" lon="11.843462968245149">
        <ele>2294.8310000000001</ele>
        <time>2015-08-09T13:28:12Z</time>
      </trkpt>
      <trkpt lat="46.233707014471292" lon="11.84344201348722">
        <ele>2293.8609999999999</ele>
        <time>2015-08-09T13:28:26Z</time>
      </trkpt>
      <trkpt lat="46.233635013923049" lon="11.843397002667189">
        <ele>2293.4070000000002</ele>
        <time>2015-08-09T13:28:38Z</time>
      </trkpt>
      <trkpt lat="46.233652029186487" lon="11.843479983508587">
        <ele>2292.4079999999999</ele>
        <time>2015-08-09T13:28:48Z</time>
      </trkpt>
      <trkpt lat="46.233607018366456" lon="11.843478977680206">
        <ele>2291.9140000000002</ele>
        <time>2015-08-09T13:29:00Z</time>
      </trkpt>
      <trkpt lat="46.233554966747761" lon="11.843449976295233">
        <ele>2291.944</ele>
        <time>2015-08-09T13:29:05Z</time>
      </trkpt>
      <trkpt lat="46.233525965362787" lon="11.843418963253498">
        <ele>2291.9580000000001</ele>
        <time>2015-08-09T13:29:08Z</time>
      </trkpt>
      <trkpt lat="46.233449019491673" lon="11.843342017382383">
        <ele>2291.4879999999998</ele>
        <time>2015-08-09T13:29:23Z</time>
      </trkpt>
      <trkpt lat="46.23333502560854" lon="11.843287032097578">
        <ele>2301.5419999999999</ele>
        <time>2015-08-09T13:29:35Z</time>
      </trkpt>
      <trkpt lat="46.233313987031579" lon="11.843237997964025">
        <ele>2303.9749999999999</ele>
        <time>2015-08-09T13:30:00Z</time>
      </trkpt>
      <trkpt lat="46.233279034495354" lon="11.843216959387064">
        <ele>2305.9920000000002</ele>
        <time>2015-08-09T13:30:13Z</time>
      </trkpt>
      <trkpt lat="46.233242992311716" lon="11.843200027942657">
        <ele>2305.9459999999999</ele>
        <time>2015-08-09T13:30:42Z</time>
      </trkpt>
      <trkpt lat="46.233184989541769" lon="11.843081004917622">
        <ele>2304.9229999999998</ele>
        <time>2015-08-09T13:30:55Z</time>
      </trkpt>
      <trkpt lat="46.233159005641937" lon="11.843074969947338">
        <ele>2303.9830000000002</ele>
        <time>2015-08-09T13:31:17Z</time>
      </trkpt>
      <trkpt lat="46.23316302895546" lon="11.843074969947338">
        <ele>2304.4110000000001</ele>
        <time>2015-08-09T13:31:48Z</time>
      </trkpt>
      <trkpt lat="46.233162023127079" lon="11.843064995482564">
        <ele>2310.2080000000001</ele>
        <time>2015-08-09T13:32:17Z</time>
      </trkpt>
      <trkpt lat="46.2330780364573" lon="11.842959970235825">
        <ele>2298.2930000000001</ele>
        <time>2015-08-09T13:32:29Z</time>
      </trkpt>
      <trkpt lat="46.23303503729403" lon="11.842952007427812">
        <ele>2296.3330000000001</ele>
        <time>2015-08-09T13:32:38Z</time>
      </trkpt>
      <trkpt lat="46.232962030917406" lon="11.842874977737665">
        <ele>2292.4369999999999</ele>
        <time>2015-08-09T13:32:52Z</time>
      </trkpt>
      <trkpt lat="46.23286496847868" lon="11.842882018536329">
        <ele>2291.9769999999999</ele>
        <time>2015-08-09T13:33:04Z</time>
      </trkpt>
      <trkpt lat="46.232791962102056" lon="11.84292702935636">
        <ele>2288.6309999999999</ele>
        <time>2015-08-09T13:33:16Z</time>
      </trkpt>
      <trkpt lat="46.232725996524096" lon="11.842923006042838">
        <ele>2287.694</ele>
        <time>2015-08-09T13:33:29Z</time>
      </trkpt>
      <trkpt lat="46.23267000541091" lon="11.84294898994267">
        <ele>2287.1309999999999</ele>
        <time>2015-08-09T13:33:40Z</time>
      </trkpt>
      <trkpt lat="46.232548970729113" lon="11.842976985499263">
        <ele>2286.665</ele>
        <time>2015-08-09T13:33:55Z</time>
      </trkpt>
      <trkpt lat="46.232486022636294" lon="11.842985032126307">
        <ele>2287.1439999999998</ele>
        <time>2015-08-09T13:34:05Z</time>
      </trkpt>
      <trkpt lat="46.232422990724444" lon="11.843044962733984">
        <ele>2289.0050000000001</ele>
        <time>2015-08-09T13:34:18Z</time>
      </trkpt>
      <trkpt lat="46.232350990176201" lon="11.843053009361029">
        <ele>2291.0149999999999</ele>
        <time>2015-08-09T13:34:30Z</time>
      </trkpt>
      <trkpt lat="46.232296004891396" lon="11.843073964118958">
        <ele>2294.808</ele>
        <time>2015-08-09T13:34:44Z</time>
      </trkpt>
      <trkpt lat="46.232192991301417" lon="11.843031970784068">
        <ele>2295.3150000000001</ele>
        <time>2015-08-09T13:34:58Z</time>
      </trkpt>
      <trkpt lat="46.232121996581554" lon="11.843011016026139">
        <ele>2295.895</ele>
        <time>2015-08-09T13:35:08Z</time>
      </trkpt>
      <trkpt lat="46.232080003246665" lon="11.843043034896255">
        <ele>2295.8789999999999</ele>
        <time>2015-08-09T13:35:21Z</time>
      </trkpt>
      <trkpt lat="46.232070028781891" lon="11.843116041272879">
        <ele>2299.1489999999999</ele>
        <time>2015-08-09T13:35:35Z</time>
      </trkpt>
      <trkpt lat="46.232006996870041" lon="11.843131966888905">
        <ele>2300.6129999999998</ele>
        <time>2015-08-09T13:35:46Z</time>
      </trkpt>
      <trkpt lat="46.23193901963532" lon="11.843110006302595">
        <ele>2303.556</ele>
        <time>2015-08-09T13:35:57Z</time>
      </trkpt>
      <trkpt lat="46.231859978288412" lon="11.842981008812785">
        <ele>2309.7829999999999</ele>
        <time>2015-08-09T13:36:13Z</time>
      </trkpt>
      <trkpt lat="46.231807004660368" lon="11.843014033511281">
        <ele>2310.2269999999999</ele>
        <time>2015-08-09T13:36:26Z</time>
      </trkpt>
      <trkpt lat="46.231771968305111" lon="11.843052003532648">
        <ele>2309.2890000000002</ele>
        <time>2015-08-09T13:36:39Z</time>
      </trkpt>
      <trkpt lat="46.231708014383912" lon="11.843044962733984">
        <ele>2311.2060000000001</ele>
        <time>2015-08-09T13:37:07Z</time>
      </trkpt>
      <trkpt lat="46.231634002178907" lon="11.843039011582732">
        <ele>2314.0259999999998</ele>
        <time>2015-08-09T13:37:19Z</time>
      </trkpt>
      <trkpt lat="46.231562001630664" lon="11.843017973005772">
        <ele>2315.5079999999998</ele>
        <time>2015-08-09T13:37:34Z</time>
      </trkpt>
      <trkpt lat="46.23144599609077" lon="11.842978997156024">
        <ele>2317.4290000000001</ele>
        <time>2015-08-09T13:37:50Z</time>
      </trkpt>
      <trkpt lat="46.231364021077752" lon="11.842851005494595">
        <ele>2322.2890000000002</ele>
        <time>2015-08-09T13:38:03Z</time>
      </trkpt>
      <trkpt lat="46.231310041621327" lon="11.842719996348023">
        <ele>2324.6729999999998</ele>
        <time>2015-08-09T13:38:17Z</time>
      </trkpt>
      <trkpt lat="46.231304006651044" lon="11.842760983854532">
        <ele>2328.5329999999999</ele>
        <time>2015-08-09T13:38:32Z</time>
      </trkpt>
      <trkpt lat="46.231309035792947" lon="11.842729970812798">
        <ele>2331.8270000000002</ele>
        <time>2015-08-09T13:38:49Z</time>
      </trkpt>
      <trkpt lat="46.231324961408973" lon="11.842629974707961">
        <ele>2331.3299999999999</ele>
        <time>2015-08-09T13:39:02Z</time>
      </trkpt>
      <trkpt lat="46.231397967785597" lon="11.842670040205121">
        <ele>2330.4769999999999</ele>
        <time>2015-08-09T13:39:29Z</time>
      </trkpt>
      <trkpt lat="46.231394028291106" lon="11.842713039368391">
        <ele>2329.951</ele>
        <time>2015-08-09T13:39:51Z</time>
      </trkpt>
      <trkpt lat="46.231344994157553" lon="11.842662999406457">
        <ele>2329.9360000000001</ele>
        <time>2015-08-09T13:40:01Z</time>
      </trkpt>
      <trkpt lat="46.231377013027668" lon="11.842689989134669">
        <ele>2313.6170000000002</ele>
        <time>2015-08-10T05:06:58Z</time>
      </trkpt>
      <trkpt lat="46.23116796836257" lon="11.84284002520144">
        <ele>2308.7179999999998</ele>
        <time>2015-08-10T05:07:19Z</time>
      </trkpt>
      <trkpt lat="46.231287997215986" lon="11.8427540268749">
        <ele>2301.1080000000002</ele>
        <time>2015-08-10T05:07:43Z</time>
      </trkpt>
      <trkpt lat="46.23125497251749" lon="11.842748997732997">
        <ele>2313.654</ele>
        <time>2015-08-10T05:08:04Z</time>
      </trkpt>
      <trkpt lat="46.231295960023999" lon="11.842744974419475">
        <ele>2312.134</ele>
        <time>2015-08-10T05:08:28Z</time>
      </trkpt>
      <trkpt lat="46.231309035792947" lon="11.842719996348023">
        <ele>2314.5279999999998</ele>
        <time>2015-08-10T05:08:45Z</time>
      </trkpt>
      <trkpt lat="46.231364021077752" lon="11.842771964147687">
        <ele>2316.9580000000001</ele>
        <time>2015-08-10T05:09:15Z</time>
      </trkpt>
      <trkpt lat="46.231323033571243" lon="11.842709016054869">
        <ele>2319.8119999999999</ele>
        <time>2015-08-10T05:09:51Z</time>
      </trkpt>
      <trkpt lat="46.231342982500792" lon="11.842673979699612">
        <ele>2322.2150000000001</ele>
        <time>2015-08-10T05:10:28Z</time>
      </trkpt>
      <trkpt lat="46.231313981115818" lon="11.842642966657877">
        <ele>2321.2420000000002</ele>
        <time>2015-08-10T05:10:40Z</time>
      </trkpt>
      <trkpt lat="46.231320016086102" lon="11.842696024104953">
        <ele>2320.826</ele>
        <time>2015-08-10T05:11:00Z</time>
      </trkpt>
      <trkpt lat="46.23131699860096" lon="11.842660987749696">
        <ele>2324.1619999999998</ele>
        <time>2015-08-10T05:11:19Z</time>
      </trkpt>
      <trkpt lat="46.231326973065734" lon="11.842643972486258">
        <ele>2324.183</ele>
        <time>2015-08-10T05:11:33Z</time>
      </trkpt>
      <trkpt lat="46.231304006651044" lon="11.842643972486258">
        <ele>2322.7109999999998</ele>
        <time>2015-08-10T05:11:55Z</time>
      </trkpt>
      <trkpt lat="46.231314986944199" lon="11.842638021335006">
        <ele>2324.6080000000002</ele>
        <time>2015-08-10T05:12:07Z</time>
      </trkpt>
      <trkpt lat="46.231267964467406" lon="11.842635003849864">
        <ele>2327.5569999999998</ele>
        <time>2015-08-10T05:12:19Z</time>
      </trkpt>
      <trkpt lat="46.231217002496123" lon="11.842655036598444">
        <ele>2327.0169999999998</ele>
        <time>2015-08-10T05:12:31Z</time>
      </trkpt>
      <trkpt lat="46.23118900693953" lon="11.842657970264554">
        <ele>2327.5410000000002</ele>
        <time>2015-08-10T05:12:42Z</time>
      </trkpt>
      <trkpt lat="46.231166962534189" lon="11.842530984431505">
        <ele>2326.1109999999999</ele>
        <time>2015-08-10T05:12:58Z</time>
      </trkpt>
      <trkpt lat="46.231137039139867" lon="11.842555040493608">
        <ele>2323.665</ele>
        <time>2015-08-10T05:13:12Z</time>
      </trkpt>
      <trkpt lat="46.231090016663074" lon="11.842596028000116">
        <ele>2322.7979999999998</ele>
        <time>2015-08-10T05:13:26Z</time>
      </trkpt>
      <trkpt lat="46.231050034984946" lon="11.842594016343355">
        <ele>2321.2550000000001</ele>
        <time>2015-08-10T05:13:39Z</time>
      </trkpt>
      <trkpt lat="46.231041988357902" lon="11.842545988038182">
        <ele>2318.4789999999998</ele>
        <time>2015-08-10T05:13:52Z</time>
      </trkpt>
      <trkpt lat="46.230983985587955" lon="11.842631986364722">
        <ele>2316.4490000000001</ele>
        <time>2015-08-10T05:14:06Z</time>
      </trkpt>
      <trkpt lat="46.230917014181614" lon="11.842687977477908">
        <ele>2314.002</ele>
        <time>2015-08-10T05:14:20Z</time>
      </trkpt>
      <trkpt lat="46.230850964784622" lon="11.842745980247855">
        <ele>2314.0219999999999</ele>
        <time>2015-08-10T05:14:32Z</time>
      </trkpt>
      <trkpt lat="46.230807965621352" lon="11.842770036309958">
        <ele>2313.1080000000002</ele>
        <time>2015-08-10T05:14:42Z</time>
      </trkpt>
      <trkpt lat="46.230751974508166" lon="11.842787973582745">
        <ele>2312.145</ele>
        <time>2015-08-10T05:14:52Z</time>
      </trkpt>
      <trkpt lat="46.230689026415348" lon="11.842801971361041">
        <ele>2310.7249999999999</ele>
        <time>2015-08-10T05:15:00Z</time>
      </trkpt>
      <trkpt lat="46.230535972863436" lon="11.842874977737665">
        <ele>2307.819</ele>
        <time>2015-08-10T05:15:16Z</time>
      </trkpt>
      <trkpt lat="46.230516023933887" lon="11.842860979959369">
        <ele>2308.319</ele>
        <time>2015-08-10T05:15:19Z</time>
      </trkpt>
      <trkpt lat="46.230424996465445" lon="11.842785961925983">
        <ele>2306.8530000000001</ele>
        <time>2015-08-10T05:15:33Z</time>
      </trkpt>
      <trkpt lat="46.230473024770617" lon="11.842704992741346">
        <ele>2302.0259999999998</ele>
        <time>2015-08-10T05:15:46Z</time>
      </trkpt>
      <trkpt lat="46.230421978980303" lon="11.842611031606793">
        <ele>2299.163</ele>
        <time>2015-08-10T05:15:58Z</time>
      </trkpt>
      <trkpt lat="46.23041502200067" lon="11.842569960281253">
        <ele>2296.3969999999999</ele>
        <time>2015-08-10T05:16:11Z</time>
      </trkpt>
      <trkpt lat="46.230387026444077" lon="11.842482034116983">
        <ele>2294.8670000000002</ele>
        <time>2015-08-10T05:16:26Z</time>
      </trkpt>
      <trkpt lat="46.230389960110188" lon="11.842384971678257">
        <ele>2293.4810000000002</ele>
        <time>2015-08-10T05:16:42Z</time>
      </trkpt>
      <trkpt lat="46.230464978143573" lon="11.84245303273201">
        <ele>2288.6190000000001</ele>
        <time>2015-08-10T05:16:54Z</time>
      </trkpt>
      <trkpt lat="46.23045701533556" lon="11.842381032183766">
        <ele>2284.7080000000001</ele>
        <time>2015-08-10T05:17:06Z</time>
      </trkpt>
      <trkpt lat="46.230449974536896" lon="11.842245999723673">
        <ele>2281.4169999999999</ele>
        <time>2015-08-10T05:17:21Z</time>
      </trkpt>
      <trkpt lat="46.23045802116394" lon="11.842167964205146">
        <ele>2280.9470000000001</ele>
        <time>2015-08-10T05:17:27Z</time>
      </trkpt>
      <trkpt lat="46.230482999235392" lon="11.842038966715336">
        <ele>2277.5610000000001</ele>
        <time>2015-08-10T05:17:41Z</time>
      </trkpt>
      <trkpt lat="46.230502026155591" lon="11.841933019459248">
        <ele>2274.1410000000001</ele>
        <time>2015-08-10T05:17:51Z</time>
      </trkpt>
      <trkpt lat="46.230520969256759" lon="11.841740990057588">
        <ele>2270.3649999999998</ele>
        <time>2015-08-10T05:18:06Z</time>
      </trkpt>
      <trkpt lat="46.230516023933887" lon="11.841732021421194">
        <ele>2266.098</ele>
        <time>2015-08-10T05:18:25Z</time>
      </trkpt>
      <trkpt lat="46.230508983135223" lon="11.841804021969438">
        <ele>2260.2249999999999</ele>
        <time>2015-08-10T05:18:39Z</time>
      </trkpt>
      <trkpt lat="46.230584001168609" lon="11.841829000040889">
        <ele>2259.779</ele>
        <time>2015-08-10T05:19:02Z</time>
      </trkpt>
      <trkpt lat="46.230578972026706" lon="11.841746019199491">
        <ele>2257.8290000000002</ele>
        <time>2015-08-10T05:19:08Z</time>
      </trkpt>
      <trkpt lat="46.23060998506844" lon="11.841575028374791">
        <ele>2252</ele>
        <time>2015-08-10T05:19:24Z</time>
      </trkpt>
      <trkpt lat="46.23065298423171" lon="11.841482995077968">
        <ele>2251.52</ele>
        <time>2015-08-10T05:19:41Z</time>
      </trkpt>
      <trkpt lat="46.230662036687136" lon="11.841437984257936">
        <ele>2251.5079999999998</ele>
        <time>2015-08-10T05:19:44Z</time>
      </trkpt>
      <trkpt lat="46.230691038072109" lon="11.841511996462941">
        <ele>2247.2930000000001</ele>
        <time>2015-08-10T05:19:54Z</time>
      </trkpt>
      <trkpt lat="46.230711992830038" lon="11.841603023931384">
        <ele>2240.5929999999998</ele>
        <time>2015-08-10T05:20:05Z</time>
      </trkpt>
      <trkpt lat="46.230774018913507" lon="11.841632025316358">
        <ele>2238.6669999999999</ele>
        <time>2015-08-10T05:20:12Z</time>
      </trkpt>
      <trkpt lat="46.230855993926525" lon="11.841758005321026">
        <ele>2236.2269999999999</ele>
        <time>2015-08-10T05:20:24Z</time>
      </trkpt>
      <trkpt lat="46.230970993638039" lon="11.841679969802499">
        <ele>2235.761</ele>
        <time>2015-08-10T05:20:37Z</time>
      </trkpt>
      <trkpt lat="46.23101600445807" lon="11.841619033366442">
        <ele>2240.5239999999999</ele>
        <time>2015-08-10T05:20:50Z</time>
      </trkpt>
      <trkpt lat="46.231042994186282" lon="11.841621967032552">
        <ele>2240.5709999999999</ele>
        <time>2015-08-10T05:20:54Z</time>
      </trkpt>
      <trkpt lat="46.231166962534189" lon="11.841597994789481">
        <ele>2237.1149999999998</ele>
        <time>2015-08-10T05:21:08Z</time>
      </trkpt>
      <trkpt lat="46.231251033023" lon="11.841574022546411">
        <ele>2234.7559999999999</ele>
        <time>2015-08-10T05:21:19Z</time>
      </trkpt>
      <trkpt lat="46.231353962793946" lon="11.841599000617862">
        <ele>2230.4589999999998</ele>
        <time>2015-08-10T05:21:33Z</time>
      </trkpt>
      <trkpt lat="46.23144599609077" lon="11.841565975919366">
        <ele>2229.4140000000002</ele>
        <time>2015-08-10T05:21:43Z</time>
      </trkpt>
      <trkpt lat="46.231481032446027" lon="11.841532029211521">
        <ele>2227.0079999999998</ele>
        <time>2015-08-10T05:21:56Z</time>
      </trkpt>
      <trkpt lat="46.231543980538845" lon="11.841470003128052">
        <ele>2228.5160000000001</ele>
        <time>2015-08-10T05:22:09Z</time>
      </trkpt>
      <trkpt lat="46.231554038822651" lon="11.841491963714361">
        <ele>2229.4659999999999</ele>
        <time>2015-08-10T05:22:24Z</time>
      </trkpt>
      <trkpt lat="46.231545992195606" lon="11.841482995077968">
        <ele>2231.4400000000001</ele>
        <time>2015-08-10T05:22:50Z</time>
      </trkpt>
      <trkpt lat="46.23153300024569" lon="11.841467991471291">
        <ele>2229.04</ele>
        <time>2015-08-10T05:23:03Z</time>
      </trkpt>
      <trkpt lat="46.231564013287425" lon="11.841392973437905">
        <ele>2226.174</ele>
        <time>2015-08-10T05:23:13Z</time>
      </trkpt>
      <trkpt lat="46.231579016894102" lon="11.841342011466622">
        <ele>2222.7370000000001</ele>
        <time>2015-08-10T05:23:26Z</time>
      </trkpt>
      <trkpt lat="46.231612963601947" lon="11.841273028403521">
        <ele>2219.8440000000001</ele>
        <time>2015-08-10T05:23:38Z</time>
      </trkpt>
      <trkpt lat="46.231637019664049" lon="11.841212008148432">
        <ele>2216.038</ele>
        <time>2015-08-10T05:23:50Z</time>
      </trkpt>
      <trkpt lat="46.231723017990589" lon="11.841171020641923">
        <ele>2214.5419999999999</ele>
        <time>2015-08-10T05:24:04Z</time>
      </trkpt>
      <trkpt lat="46.231799963861704" lon="11.841161968186498">
        <ele>2212.1219999999998</ele>
        <time>2015-08-10T05:24:18Z</time>
      </trkpt>
      <trkpt lat="46.231827037408948" lon="11.841142019256949">
        <ele>2209.7139999999999</ele>
        <time>2015-08-10T05:24:30Z</time>
      </trkpt>
      <trkpt lat="46.231893002986908" lon="11.841105977073312">
        <ele>2206.4079999999999</ele>
        <time>2015-08-10T05:24:43Z</time>
      </trkpt>
      <trkpt lat="46.23198302462697" lon="11.841018972918391">
        <ele>2204.0250000000001</ele>
        <time>2015-08-10T05:24:58Z</time>
      </trkpt>
      <trkpt lat="46.232017977163196" lon="11.840985026210546">
        <ele>2201.1750000000002</ele>
        <time>2015-08-10T05:25:14Z</time>
      </trkpt>
      <trkpt lat="46.231988975778222" lon="11.840910008177161">
        <ele>2199.2289999999998</ele>
        <time>2015-08-10T05:25:27Z</time>
      </trkpt>
      <trkpt lat="46.232052007690072" lon="11.840906990692019">
        <ele>2196.8589999999999</ele>
        <time>2015-08-10T05:25:41Z</time>
      </trkpt>
      <trkpt lat="46.232099030166864" lon="11.840943032875657">
        <ele>2193.933</ele>
        <time>2015-08-10T05:25:54Z</time>
      </trkpt>
      <trkpt lat="46.232143035158515" lon="11.840935992076993">
        <ele>2190.5360000000001</ele>
        <time>2015-08-10T05:26:07Z</time>
      </trkpt>
      <trkpt lat="46.232149992138147" lon="11.841010004281998">
        <ele>2188.1729999999998</ele>
        <time>2015-08-10T05:26:27Z</time>
      </trkpt>
      <trkpt lat="46.232192991301417" lon="11.84097102843225">
        <ele>2186.7869999999998</ele>
        <time>2015-08-10T05:26:43Z</time>
      </trkpt>
      <trkpt lat="46.232221992686391" lon="11.840956024825573">
        <ele>2183.8139999999999</ele>
        <time>2015-08-10T05:26:56Z</time>
      </trkpt>
      <trkpt lat="46.23224001377821" lon="11.840940015390515">
        <ele>2182.8539999999998</ele>
        <time>2015-08-10T05:27:13Z</time>
      </trkpt>
      <trkpt lat="46.232253005728126" lon="11.840931968763471">
        <ele>2180.9090000000001</ele>
        <time>2015-08-10T05:27:30Z</time>
      </trkpt>
      <trkpt lat="46.232296004891396" lon="11.84095099568367">
        <ele>2180.4079999999999</ele>
        <time>2015-08-10T05:27:49Z</time>
      </trkpt>
      <trkpt lat="46.232321988791227" lon="11.841016039252281">
        <ele>2179.9720000000002</ele>
        <time>2015-08-10T05:28:13Z</time>
      </trkpt>
      <trkpt lat="46.232317965477705" lon="11.840953007340431">
        <ele>2182.3420000000001</ele>
        <time>2015-08-10T05:28:31Z</time>
      </trkpt>
      <trkpt lat="46.232383009046316" lon="11.841047974303365">
        <ele>2180.4160000000002</ele>
        <time>2015-08-10T05:28:47Z</time>
      </trkpt>
      <trkpt lat="46.232404969632626" lon="11.84110002592206">
        <ele>2179.076</ele>
        <time>2015-08-10T05:29:02Z</time>
      </trkpt>
      <trkpt lat="46.232428019866347" lon="11.841159034520388">
        <ele>2176.6599999999999</ele>
        <time>2015-08-10T05:29:16Z</time>
      </trkpt>
      <trkpt lat="46.232483005151153" lon="11.841083010658622">
        <ele>2177.0830000000001</ele>
        <time>2015-08-10T05:29:31Z</time>
      </trkpt>
      <trkpt lat="46.232485016807914" lon="11.841011010110378">
        <ele>2177.0300000000002</ele>
        <time>2015-08-10T05:29:42Z</time>
      </trkpt>
      <trkpt lat="46.232493985444307" lon="11.841070018708706">
        <ele>2173.7440000000001</ele>
        <time>2015-08-10T05:29:56Z</time>
      </trkpt>
      <trkpt lat="46.232490967959166" lon="11.841030959039927">
        <ele>2175.165</ele>
        <time>2015-08-10T05:30:19Z</time>
      </trkpt>
      <trkpt lat="46.232489040121436" lon="11.841044034808874">
        <ele>2174.6680000000001</ele>
        <time>2015-08-10T05:30:23Z</time>
      </trkpt>
      <trkpt lat="46.232547964900732" lon="11.841073036193848">
        <ele>2176.114</ele>
        <time>2015-08-10T05:30:33Z</time>
      </trkpt>
      <trkpt lat="46.232615020126104" lon="11.840925011783838">
        <ele>2175.6080000000002</ele>
        <time>2015-08-10T05:30:45Z</time>
      </trkpt>
      <trkpt lat="46.232641004025936" lon="11.840854017063975">
        <ele>2175.6970000000001</ele>
        <time>2015-08-10T05:30:56Z</time>
      </trkpt>
      <trkpt lat="46.232691965997219" lon="11.840918976813555">
        <ele>2174.6370000000002</ele>
        <time>2015-08-10T05:31:11Z</time>
      </trkpt>
      <trkpt lat="46.232695989310741" lon="11.840920988470316">
        <ele>2174.6410000000001</ele>
        <time>2015-08-10T05:31:12Z</time>
      </trkpt>
      <trkpt lat="46.232752986252308" lon="11.840898022055626">
        <ele>2178.0210000000002</ele>
        <time>2015-08-10T05:31:23Z</time>
      </trkpt>
      <trkpt lat="46.232747035101056" lon="11.840843036770821">
        <ele>2177.0149999999999</ele>
        <time>2015-08-10T05:31:42Z</time>
      </trkpt>
      <trkpt lat="46.232766984030604" lon="11.840882012620568">
        <ele>2174.2579999999998</ele>
        <time>2015-08-10T05:31:48Z</time>
      </trkpt>
      <trkpt lat="46.232780981808901" lon="11.840891987085342">
        <ele>2171.8249999999998</ele>
        <time>2015-08-10T05:32:02Z</time>
      </trkpt>
      <trkpt lat="46.232780981808901" lon="11.840977985411882">
        <ele>2167.0189999999998</ele>
        <time>2015-08-10T05:32:08Z</time>
      </trkpt>
      <trkpt lat="46.232808977365494" lon="11.841051997616887">
        <ele>2164.6210000000001</ele>
        <time>2015-08-10T05:32:23Z</time>
      </trkpt>
      <trkpt lat="46.232882989570498" lon="11.841102037578821">
        <ele>2163.1410000000001</ele>
        <time>2015-08-10T05:32:34Z</time>
      </trkpt>
      <trkpt lat="46.232945015653968" lon="11.841085022315383">
        <ele>2161.2049999999999</ele>
        <time>2015-08-10T05:32:46Z</time>
      </trkpt>
      <trkpt lat="46.233001006767154" lon="11.841271016746759">
        <ele>2155.4079999999999</ele>
        <time>2015-08-10T05:32:59Z</time>
      </trkpt>
      <trkpt lat="46.233046017587185" lon="11.841342011466622">
        <ele>2152.5529999999999</ele>
        <time>2015-08-10T05:33:04Z</time>
      </trkpt>
      <trkpt lat="46.233060015365481" lon="11.841427003964782">
        <ele>2148.2429999999999</ele>
        <time>2015-08-10T05:33:12Z</time>
      </trkpt>
      <trkpt lat="46.233105026185513" lon="11.841592965647578">
        <ele>2138.6469999999999</ele>
        <time>2015-08-10T05:33:26Z</time>
      </trkpt>
      <trkpt lat="46.233137967064977" lon="11.841606963425875">
        <ele>2135.2469999999998</ele>
        <time>2015-08-10T05:33:39Z</time>
      </trkpt>
      <trkpt lat="46.233234023675323" lon="11.841556001454592">
        <ele>2130.4810000000002</ele>
        <time>2015-08-10T05:33:54Z</time>
      </trkpt>
      <trkpt lat="46.233251038938761" lon="11.841571005061269">
        <ele>2125.654</ele>
        <time>2015-08-10T05:34:10Z</time>
      </trkpt>
      <trkpt lat="46.233346005901694" lon="11.841593971475959">
        <ele>2124.7510000000002</ele>
        <time>2015-08-10T05:34:23Z</time>
      </trkpt>
      <trkpt lat="46.233384981751442" lon="11.841684998944402">
        <ele>2121.8449999999998</ele>
        <time>2015-08-10T05:34:41Z</time>
      </trkpt>
      <trkpt lat="46.233466034755111" lon="11.841737972572446">
        <ele>2116.5309999999999</ele>
        <time>2015-08-10T05:34:58Z</time>
      </trkpt>
      <trkpt lat="46.233434015884995" lon="11.841639988124371">
        <ele>2113.1610000000001</ele>
        <time>2015-08-10T05:35:11Z</time>
      </trkpt>
      <trkpt lat="46.233424041420221" lon="11.841591959819198">
        <ele>2112.607</ele>
        <time>2015-08-10T05:35:17Z</time>
      </trkpt>
      <trkpt lat="46.233420018106699" lon="11.841572010889649">
        <ele>2112.2080000000001</ele>
        <time>2015-08-10T05:35:19Z</time>
      </trkpt>
      <trkpt lat="46.233423035591841" lon="11.841508978977799">
        <ele>2108.3240000000001</ele>
        <time>2015-08-10T05:35:32Z</time>
      </trkpt>
      <trkpt lat="46.233405014500022" lon="11.84138098731637">
        <ele>2106.944</ele>
        <time>2015-08-10T05:35:44Z</time>
      </trkpt>
      <trkpt lat="46.233428986743093" lon="11.841339999809861">
        <ele>2106.998</ele>
        <time>2015-08-10T05:35:56Z</time>
      </trkpt>
      <trkpt lat="46.233472991734743" lon="11.841338993981481">
        <ele>2104.598</ele>
        <time>2015-08-10T05:36:07Z</time>
      </trkpt>
      <trkpt lat="46.233518002554774" lon="11.841341005638242">
        <ele>2100.1120000000001</ele>
        <time>2015-08-10T05:36:19Z</time>
      </trkpt>
      <trkpt lat="46.233479026705027" lon="11.841279985383153">
        <ele>2096.835</ele>
        <time>2015-08-10T05:36:31Z</time>
      </trkpt>
      <trkpt lat="46.233462011441588" lon="11.841235980391502">
        <ele>2096.8420000000001</ele>
        <time>2015-08-10T05:36:45Z</time>
      </trkpt>
      <trkpt lat="46.233457988128066" lon="11.841236986219883">
        <ele>2095.8960000000002</ele>
        <time>2015-08-10T05:36:47Z</time>
      </trkpt>
      <trkpt lat="46.233483972027898" lon="11.841157022863626">
        <ele>2096.8420000000001</ele>
        <time>2015-08-10T05:37:00Z</time>
      </trkpt>
      <trkpt lat="46.233571982011199" lon="11.841125003993511">
        <ele>2093.422</ele>
        <time>2015-08-10T05:37:13Z</time>
      </trkpt>
      <trkpt lat="46.23361699283123" lon="11.841106982901692">
        <ele>2090.0140000000001</ele>
        <time>2015-08-10T05:37:24Z</time>
      </trkpt>
      <trkpt lat="46.233654040843248" lon="11.841159034520388">
        <ele>2088.6080000000002</ele>
        <time>2015-08-10T05:37:44Z</time>
      </trkpt>
      <trkpt lat="46.233663009479642" lon="11.841223994269967">
        <ele>2085.2249999999999</ele>
        <time>2015-08-10T05:38:04Z</time>
      </trkpt>
      <trkpt lat="46.233716988936067" lon="11.84105702675879">
        <ele>2091.0450000000001</ele>
        <time>2015-08-10T05:38:31Z</time>
      </trkpt>
      <trkpt lat="46.233798963949084" lon="11.841125003993511">
        <ele>2087.259</ele>
        <time>2015-08-10T05:38:43Z</time>
      </trkpt>
      <trkpt lat="46.23380902223289" lon="11.841131960973144">
        <ele>2086.7689999999998</ele>
        <time>2015-08-10T05:38:44Z</time>
      </trkpt>
      <trkpt lat="46.233912035822868" lon="11.841183006763458">
        <ele>2082.4229999999998</ele>
        <time>2015-08-10T05:38:57Z</time>
      </trkpt>
      <trkpt lat="46.233929973095655" lon="11.841203961521387">
        <ele>2081.4859999999999</ele>
        <time>2015-08-10T05:39:00Z</time>
      </trkpt>
      <trkpt lat="46.233987975865602" lon="11.841225000098348">
        <ele>2079.5929999999998</ele>
        <time>2015-08-10T05:39:05Z</time>
      </trkpt>
      <trkpt lat="46.234000967815518" lon="11.841249978169799">
        <ele>2079.0369999999998</ele>
        <time>2015-08-10T05:39:07Z</time>
      </trkpt>
      <trkpt lat="46.234004991129041" lon="11.841281997039914">
        <ele>2078.5819999999999</ele>
        <time>2015-08-10T05:39:09Z</time>
      </trkpt>
      <trkpt lat="46.234048996120691" lon="11.841342011466622">
        <ele>2077.643</ele>
        <time>2015-08-10T05:39:15Z</time>
      </trkpt>
      <trkpt lat="46.234187968075275" lon="11.841473020613194">
        <ele>2072.317</ele>
        <time>2015-08-10T05:39:31Z</time>
      </trkpt>
      <trkpt lat="46.234252005815506" lon="11.841515013948083">
        <ele>2069.9079999999999</ele>
        <time>2015-08-10T05:39:43Z</time>
      </trkpt>
      <trkpt lat="46.234284024685621" lon="11.841508978977799">
        <ele>2068.4589999999998</ele>
        <time>2015-08-10T05:39:57Z</time>
      </trkpt>
      <trkpt lat="46.234344039112329" lon="11.841525994241238">
        <ele>2068.4389999999999</ele>
        <time>2015-08-10T05:40:30Z</time>
      </trkpt>
      <trkpt lat="46.234348984435201" lon="11.841482995077968">
        <ele>2068.9630000000002</ele>
        <time>2015-08-10T05:40:42Z</time>
      </trkpt>
      <trkpt lat="46.234415033832192" lon="11.841534962877631">
        <ele>2066.5830000000001</ele>
        <time>2015-08-10T05:40:55Z</time>
      </trkpt>
      <trkpt lat="46.234415033832192" lon="11.841436978429556">
        <ele>2061.7869999999998</ele>
        <time>2015-08-10T05:41:07Z</time>
      </trkpt>
      <trkpt lat="46.234396006911993" lon="11.841306975111365">
        <ele>2058.8299999999999</ele>
        <time>2015-08-10T05:41:20Z</time>
      </trkpt>
      <trkpt lat="46.234406987205148" lon="11.841185018420219">
        <ele>2058.3969999999999</ele>
        <time>2015-08-10T05:41:34Z</time>
      </trkpt>
      <trkpt lat="46.234378991648555" lon="11.841056020930409">
        <ele>2056.951</ele>
        <time>2015-08-10T05:41:47Z</time>
      </trkpt>
      <trkpt lat="46.234379997476935" lon="11.840985026210546">
        <ele>2055.473</ele>
        <time>2015-08-10T05:41:59Z</time>
      </trkpt>
      <trkpt lat="46.234370023012161" lon="11.840896010398865">
        <ele>2054.085</ele>
        <time>2015-08-10T05:42:07Z</time>
      </trkpt>
      <trkpt lat="46.234369017183781" lon="11.840839013457298">
        <ele>2051.6129999999998</ele>
        <time>2015-08-10T05:42:21Z</time>
      </trkpt>
      <trkpt lat="46.234342027455568" lon="11.840710015967488">
        <ele>2049.7080000000001</ele>
        <time>2015-08-10T05:42:37Z</time>
      </trkpt>
      <trkpt lat="46.234289975836873" lon="11.840560985729098">
        <ele>2048.7280000000001</ele>
        <time>2015-08-10T05:42:51Z</time>
      </trkpt>
      <trkpt lat="46.234334986656904" lon="11.840535001829267">
        <ele>2043.9580000000001</ele>
        <time>2015-08-10T05:43:02Z</time>
      </trkpt>
      <trkpt lat="46.234361976385117" lon="11.840565009042621">
        <ele>2040.192</ele>
        <time>2015-08-10T05:43:15Z</time>
      </trkpt>
      <trkpt lat="46.234417967498302" lon="11.840581018477678">
        <ele>2036.212</ele>
        <time>2015-08-10T05:43:27Z</time>
      </trkpt>
      <trkpt lat="46.234506983309984" lon="11.840652013197541">
        <ele>2030.9159999999999</ele>
        <time>2015-08-10T05:43:41Z</time>
      </trkpt>
      <trkpt lat="46.234599016606808" lon="11.840702975168824">
        <ele>2026.1690000000001</ele>
        <time>2015-08-10T05:43:56Z</time>
      </trkpt>
      <trkpt lat="46.234641009941697" lon="11.840700963512063">
        <ele>2023.2260000000001</ele>
        <time>2015-08-10T05:44:09Z</time>
      </trkpt>
      <trkpt lat="46.234643021598458" lon="11.840723007917404">
        <ele>2022.3299999999999</ele>
        <time>2015-08-10T05:44:31Z</time>
      </trkpt>
      <trkpt lat="46.234663976356387" lon="11.840729964897037">
        <ele>2021.327</ele>
        <time>2015-08-10T05:44:36Z</time>
      </trkpt>
      <trkpt lat="46.234738994389772" lon="11.840731976553798">
        <ele>2018.9680000000001</ele>
        <time>2015-08-10T05:44:50Z</time>
      </trkpt>
      <trkpt lat="46.234779981896281" lon="11.840719990432262">
        <ele>2017.5139999999999</ele>
        <time>2015-08-10T05:44:58Z</time>
      </trkpt>
      <trkpt lat="46.234830021858215" lon="11.840733988210559">
        <ele>2012.2080000000001</ele>
        <time>2015-08-10T05:45:13Z</time>
      </trkpt>
      <trkpt lat="46.234867991879582" lon="11.840792996808887">
        <ele>2013.663</ele>
        <time>2015-08-10T05:45:48Z</time>
      </trkpt>
      <trkpt lat="46.234950972720981" lon="11.840768018737435">
        <ele>2013.163</ele>
        <time>2015-08-10T05:46:09Z</time>
      </trkpt>
      <trkpt lat="46.234942004084587" lon="11.840704986825585">
        <ele>2011.797</ele>
        <time>2015-08-10T05:46:17Z</time>
      </trkpt>
      <trkpt lat="46.234874026849866" lon="11.840640027076006">
        <ele>2010.7170000000001</ele>
        <time>2015-08-10T05:46:30Z</time>
      </trkpt>
      <trkpt lat="46.234859023243189" lon="11.840494014322758">
        <ele>2007.4110000000001</ele>
        <time>2015-08-10T05:46:42Z</time>
      </trkpt>
      <trkpt lat="46.234825998544693" lon="11.840418996289372">
        <ele>2006.4839999999999</ele>
        <time>2015-08-10T05:46:49Z</time>
      </trkpt>
      <trkpt lat="46.234790962189436" lon="11.840397035703063">
        <ele>2005.0709999999999</ele>
        <time>2015-08-10T05:47:04Z</time>
      </trkpt>
      <trkpt lat="46.234802026301622" lon="11.84039200656116">
        <ele>2004.0650000000001</ele>
        <time>2015-08-10T05:47:28Z</time>
      </trkpt>
      <trkpt lat="46.234795991331339" lon="11.840393012389541">
        <ele>2002.6179999999999</ele>
        <time>2015-08-10T05:47:51Z</time>
      </trkpt>
      <trkpt lat="46.234758021309972" lon="11.840272983536124">
        <ele>2002.1980000000001</ele>
        <time>2015-08-10T05:48:00Z</time>
      </trkpt>
      <trkpt lat="46.234775958582759" lon="11.840246999636292">
        <ele>2002.117</ele>
        <time>2015-08-10T05:48:03Z</time>
      </trkpt>
      <trkpt lat="46.234943009912968" lon="11.840344984084368">
        <ele>1997.808</ele>
        <time>2015-08-10T05:48:21Z</time>
      </trkpt>
      <trkpt lat="46.235002018511295" lon="11.840315982699394">
        <ele>1994.942</ele>
        <time>2015-08-10T05:48:33Z</time>
      </trkpt>
      <trkpt lat="46.234985003247857" lon="11.840224033221602">
        <ele>1993.412</ele>
        <time>2015-08-10T05:48:49Z</time>
      </trkpt>
      <trkpt lat="46.235071001574397" lon="11.840228978544474">
        <ele>1989.6559999999999</ele>
        <time>2015-08-10T05:49:03Z</time>
      </trkpt>
      <trkpt lat="46.235092962160707" lon="11.840229984372854">
        <ele>1986.7760000000001</ele>
        <time>2015-08-10T05:49:17Z</time>
      </trkpt>
      <trkpt lat="46.235088016837835" lon="11.840223027393222">
        <ele>1985.3599999999999</ele>
        <time>2015-08-10T05:49:47Z</time>
      </trkpt>
      <trkpt lat="46.235082987695932" lon="11.840187991037965">
        <ele>1984.3130000000001</ele>
        <time>2015-08-10T05:50:03Z</time>
      </trkpt>
      <trkpt lat="46.235079970210791" lon="11.840084977447987">
        <ele>1981.4400000000001</ele>
        <time>2015-08-10T05:50:16Z</time>
      </trkpt>
      <trkpt lat="46.235152976587415" lon="11.840075002983212">
        <ele>1979.5440000000001</ele>
        <time>2015-08-10T05:50:25Z</time>
      </trkpt>
      <trkpt lat="46.235225982964039" lon="11.840098975226283">
        <ele>1976.6110000000001</ele>
        <time>2015-08-10T05:50:37Z</time>
      </trkpt>
      <trkpt lat="46.235305024310946" lon="11.840072991326451">
        <ele>1972.8209999999999</ele>
        <time>2015-08-10T05:50:49Z</time>
      </trkpt>
      <trkpt lat="46.235359003767371" lon="11.840068968012929">
        <ele>1969.903</ele>
        <time>2015-08-10T05:51:03Z</time>
      </trkpt>
      <trkpt lat="46.235408037900925" lon="11.840029992163181">
        <ele>1967.008</ele>
        <time>2015-08-10T05:51:15Z</time>
      </trkpt>
      <trkpt lat="46.235427986830473" lon="11.839915998280048">
        <ele>1965.6120000000001</ele>
        <time>2015-08-10T05:51:29Z</time>
      </trkpt>
      <trkpt lat="46.235506022349" lon="11.839917004108429">
        <ele>1960.8420000000001</ele>
        <time>2015-08-10T05:51:43Z</time>
      </trkpt>
      <trkpt lat="46.235593026503921" lon="11.839893031865358">
        <ele>1957.9259999999999</ele>
        <time>2015-08-10T05:51:56Z</time>
      </trkpt>
      <trkpt lat="46.235634014010429" lon="11.839851960539818">
        <ele>1954.556</ele>
        <time>2015-08-10T05:52:08Z</time>
      </trkpt>
      <trkpt lat="46.235581040382385" lon="11.839684993028641">
        <ele>1950.72</ele>
        <time>2015-08-10T05:52:23Z</time>
      </trkpt>
      <trkpt lat="46.235653040930629" lon="11.839621039107442">
        <ele>1949.213</ele>
        <time>2015-08-10T05:52:36Z</time>
      </trkpt>
      <trkpt lat="46.235649017617106" lon="11.839701002463698">
        <ele>1944.98</ele>
        <time>2015-08-10T05:52:58Z</time>
      </trkpt>
      <trkpt lat="46.235637031495571" lon="11.839694967493415">
        <ele>1944.9839999999999</ele>
        <time>2015-08-10T05:53:23Z</time>
      </trkpt>
      <trkpt lat="46.235625967383385" lon="11.839678036049008">
        <ele>1942.5719999999999</ele>
        <time>2015-08-10T05:53:54Z</time>
      </trkpt>
      <trkpt lat="46.235669972375035" lon="11.839633025228977">
        <ele>1944.413</ele>
        <time>2015-08-10T05:54:14Z</time>
      </trkpt>
      <trkpt lat="46.235637031495571" lon="11.839492963626981">
        <ele>1942.5139999999999</ele>
        <time>2015-08-10T05:54:28Z</time>
      </trkpt>
      <trkpt lat="46.23563501983881" lon="11.839392967522144">
        <ele>1941.508</ele>
        <time>2015-08-10T05:54:41Z</time>
      </trkpt>
      <trkpt lat="46.235600989311934" lon="11.83929598890245">
        <ele>1940.1479999999999</ele>
        <time>2015-08-10T05:54:54Z</time>
      </trkpt>
      <trkpt lat="46.235690005123615" lon="11.839247960597277">
        <ele>1936.298</ele>
        <time>2015-08-10T05:55:09Z</time>
      </trkpt>
      <trkpt lat="46.235803999006748" lon="11.839250978082418">
        <ele>1934.3720000000001</ele>
        <time>2015-08-10T05:55:25Z</time>
      </trkpt>
      <trkpt lat="46.235795030370355" lon="11.839256007224321">
        <ele>1933.412</ele>
        <time>2015-08-10T05:55:53Z</time>
      </trkpt>
      <trkpt lat="46.235839035362005" lon="11.839265981689095">
        <ele>1932.9860000000001</ele>
        <time>2015-08-10T05:56:14Z</time>
      </trkpt>
      <trkpt lat="46.235975995659828" lon="11.839294983074069">
        <ele>1928.539</ele>
        <time>2015-08-10T05:56:29Z</time>
      </trkpt>
      <trkpt lat="46.236047996208072" lon="11.83923396281898">
        <ele>1925.2360000000001</ele>
        <time>2015-08-10T05:56:42Z</time>
      </trkpt>
      <trkpt lat="46.236145980656147" lon="11.839206973090768">
        <ele>1921.8299999999999</ele>
        <time>2015-08-10T05:56:55Z</time>
      </trkpt>
      <trkpt lat="46.236140029504895" lon="11.839116029441357">
        <ele>1919.941</ele>
        <time>2015-08-10T05:57:06Z</time>
      </trkpt>
      <trkpt lat="46.236142963171005" lon="11.839089961722493">
        <ele>1919.481</ele>
        <time>2015-08-10T05:57:08Z</time>
      </trkpt>
      <trkpt lat="46.236170036718249" lon="11.83903799392283">
        <ele>1918.009</ele>
        <time>2015-08-10T05:57:12Z</time>
      </trkpt>
      <trkpt lat="46.236241031438112" lon="11.839006980881095">
        <ele>1916.508</ele>
        <time>2015-08-10T05:57:20Z</time>
      </trkpt>
      <trkpt lat="46.236352007836103" lon="11.838962975889444">
        <ele>1912.2850000000001</ele>
        <time>2015-08-10T05:57:34Z</time>
      </trkpt>
      <trkpt lat="46.236338010057807" lon="11.83897303417325">
        <ele>1910.3150000000001</ele>
        <time>2015-08-10T05:57:57Z</time>
      </trkpt>
      <trkpt lat="46.236381009221077" lon="11.838956018909812">
        <ele>1910.829</ele>
        <time>2015-08-10T05:58:11Z</time>
      </trkpt>
      <trkpt lat="46.236384026706219" lon="11.83897202834487">
        <ele>1912.749</ele>
        <time>2015-08-10T05:58:44Z</time>
      </trkpt>
      <trkpt lat="46.236380003392696" lon="11.838962975889444">
        <ele>1913.663</ele>
        <time>2015-08-10T05:59:12Z</time>
      </trkpt>
      <trkpt lat="46.236402969807386" lon="11.838955013081431">
        <ele>1913.2360000000001</ele>
        <time>2015-08-10T05:59:41Z</time>
      </trkpt>
      <trkpt lat="46.236395006999373" lon="11.838945038616657">
        <ele>1911.7429999999999</ele>
        <time>2015-08-10T06:00:10Z</time>
      </trkpt>
      <trkpt lat="46.236373968422413" lon="11.838939003646374">
        <ele>1914.627</ele>
        <time>2015-08-10T06:00:34Z</time>
      </trkpt>
      <trkpt lat="46.236373968422413" lon="11.83897303417325">
        <ele>1911.7919999999999</ele>
        <time>2015-08-10T06:01:03Z</time>
      </trkpt>
      <trkpt lat="46.236386960372329" lon="11.838896004483104">
        <ele>1909.873</ele>
        <time>2015-08-10T06:01:26Z</time>
      </trkpt>
      <trkpt lat="46.236357036978006" lon="11.838771030306816">
        <ele>1906.02</ele>
        <time>2015-08-10T06:01:39Z</time>
      </trkpt>
      <trkpt lat="46.236359970644116" lon="11.838700035586953">
        <ele>1903.1079999999999</ele>
        <time>2015-08-10T06:01:49Z</time>
      </trkpt>
      <trkpt lat="46.236414033919573" lon="11.838686959818006">
        <ele>1899.74</ele>
        <time>2015-08-10T06:01:59Z</time>
      </trkpt>
      <trkpt lat="46.236476982012391" lon="11.838657958433032">
        <ele>1896.8699999999999</ele>
        <time>2015-08-10T06:02:12Z</time>
      </trkpt>
      <trkpt lat="46.236469019204378" lon="11.838583024218678">
        <ele>1894.424</ele>
        <time>2015-08-10T06:02:28Z</time>
      </trkpt>
      <trkpt lat="46.236507995054126" lon="11.838583024218678">
        <ele>1895.424</ele>
        <time>2015-08-10T06:02:48Z</time>
      </trkpt>
      <trkpt lat="46.236557029187679" lon="11.83860800229013">
        <ele>1897.8679999999999</ele>
        <time>2015-08-10T06:03:15Z</time>
      </trkpt>
      <trkpt lat="46.236597010865808" lon="11.838477998971939">
        <ele>1894.481</ele>
        <time>2015-08-10T06:03:29Z</time>
      </trkpt>
      <trkpt lat="46.236607991158962" lon="11.838444974273443">
        <ele>1893.9880000000001</ele>
        <time>2015-08-10T06:03:32Z</time>
      </trkpt>
      <trkpt lat="46.23660103417933" lon="11.838341960683465">
        <ele>1890.652</ele>
        <time>2015-08-10T06:03:42Z</time>
      </trkpt>
      <trkpt lat="46.236653001978993" lon="11.83817801065743">
        <ele>1885.8920000000001</ele>
        <time>2015-08-10T06:03:57Z</time>
      </trkpt>
      <trkpt lat="46.236664988100529" lon="11.838083965703845">
        <ele>1883.873</ele>
        <time>2015-08-10T06:04:05Z</time>
      </trkpt>
      <trkpt lat="46.236714022234082" lon="11.838102992624044">
        <ele>1881.4200000000001</ele>
        <time>2015-08-10T06:04:16Z</time>
      </trkpt>
      <trkpt lat="46.236722990870476" lon="11.838106010109186">
        <ele>1881.4079999999999</ele>
        <time>2015-08-10T06:04:17Z</time>
      </trkpt>
      <trkpt lat="46.23679700307548" lon="11.838078014552593">
        <ele>1881.4100000000001</ele>
        <time>2015-08-10T06:04:24Z</time>
      </trkpt>
      <trkpt lat="46.23692499473691" lon="11.838000984862447">
        <ele>1879.5699999999999</ele>
        <time>2015-08-10T06:04:38Z</time>
      </trkpt>
      <trkpt lat="46.236932035535574" lon="11.837990004569292">
        <ele>1879.5940000000001</ele>
        <time>2015-08-10T06:04:39Z</time>
      </trkpt>
      <trkpt lat="46.23699196614325" lon="11.837843991816044">
        <ele>1876.2239999999999</ele>
        <time>2015-08-10T06:04:53Z</time>
      </trkpt>
      <trkpt lat="46.236999006941915" lon="11.837818007916212">
        <ele>1875.798</ele>
        <time>2015-08-10T06:04:55Z</time>
      </trkpt>
      <trkpt lat="46.2370549980551" lon="11.837765034288168">
        <ele>1874.261</ele>
        <time>2015-08-10T06:05:01Z</time>
      </trkpt>
      <trkpt lat="46.237081987783313" lon="11.83770501986146">
        <ele>1872.8979999999999</ele>
        <time>2015-08-10T06:05:06Z</time>
      </trkpt>
      <trkpt lat="46.23714099638164" lon="11.837605023756623">
        <ele>1872.8620000000001</ele>
        <time>2015-08-10T06:05:15Z</time>
      </trkpt>
      <trkpt lat="46.237188018858433" lon="11.837565964087844">
        <ele>1872.3389999999999</ele>
        <time>2015-08-10T06:05:20Z</time>
      </trkpt>
      <trkpt lat="46.237211991101503" lon="11.837505027651787">
        <ele>1871.3009999999999</ele>
        <time>2015-08-10T06:05:25Z</time>
      </trkpt>
      <trkpt lat="46.237301006913185" lon="11.837349040433764">
        <ele>1868.921</ele>
        <time>2015-08-10T06:05:39Z</time>
      </trkpt>
      <trkpt lat="46.237379964441061" lon="11.83731903322041">
        <ele>1866.508</ele>
        <time>2015-08-10T06:05:53Z</time>
      </trkpt>
      <trkpt lat="46.237404020503163" lon="11.83727502822876">
        <ele>1863.2339999999999</ele>
        <time>2015-08-10T06:06:05Z</time>
      </trkpt>
      <trkpt lat="46.237436039373279" lon="11.837246026843786">
        <ele>1863.2239999999999</ele>
        <time>2015-08-10T06:06:10Z</time>
      </trkpt>
      <trkpt lat="46.237436039373279" lon="11.83721199631691">
        <ele>1859.8579999999999</ele>
        <time>2015-08-10T06:06:21Z</time>
      </trkpt>
      <trkpt lat="46.237422963604331" lon="11.837217025458813">
        <ele>1858.9480000000001</ele>
        <time>2015-08-10T06:06:26Z</time>
      </trkpt>
      <trkpt lat="46.237446013838053" lon="11.837152987718582">
        <ele>1858.922</ele>
        <time>2015-08-10T06:06:30Z</time>
      </trkpt>
      <trkpt lat="46.237502004951239" lon="11.837047962471843">
        <ele>1856.4549999999999</ele>
        <time>2015-08-10T06:06:43Z</time>
      </trkpt>
      <trkpt lat="46.237498987466097" lon="11.836994988843799">
        <ele>1852.662</ele>
        <time>2015-08-10T06:06:55Z</time>
      </trkpt>
      <trkpt lat="46.23744098469615" lon="11.837005969136953">
        <ele>1846.866</ele>
        <time>2015-08-10T06:07:10Z</time>
      </trkpt>
      <trkpt lat="46.23739899136126" lon="11.836979985237122">
        <ele>1844.4829999999999</ele>
        <time>2015-08-10T06:07:25Z</time>
      </trkpt>
      <trkpt lat="46.23737895861268" lon="11.836958024650812">
        <ele>1842.0250000000001</ele>
        <time>2015-08-10T06:07:40Z</time>
      </trkpt>
      <trkpt lat="46.237381976097822" lon="11.836964981630445">
        <ele>1844.0170000000001</ele>
        <time>2015-08-10T06:07:52Z</time>
      </trkpt>
      <trkpt lat="46.237346017733216" lon="11.836926005780697">
        <ele>1846.808</ele>
        <time>2015-08-10T06:08:24Z</time>
      </trkpt>
      <trkpt lat="46.237360015511513" lon="11.83697403408587">
        <ele>1844.069</ele>
        <time>2015-08-10T06:08:59Z</time>
      </trkpt>
      <trkpt lat="46.237365966662765" lon="11.836947966367006">
        <ele>1842.049</ele>
        <time>2015-08-10T06:09:29Z</time>
      </trkpt>
      <trkpt lat="46.237340988591313" lon="11.836941009387374">
        <ele>1843.0329999999999</ele>
        <time>2015-08-10T06:10:04Z</time>
      </trkpt>
      <trkpt lat="46.237356998026371" lon="11.836958024650812">
        <ele>1841.173</ele>
        <time>2015-08-10T06:10:29Z</time>
      </trkpt>
      <trkpt lat="46.237372001633048" lon="11.836948972195387">
        <ele>1844.027</ele>
        <time>2015-08-10T06:10:58Z</time>
      </trkpt>
      <trkpt lat="46.237366972491145" lon="11.8369310349226">
        <ele>1841.5799999999999</ele>
        <time>2015-08-10T06:11:18Z</time>
      </trkpt>
      <trkpt lat="46.23737501911819" lon="11.83701803907752">
        <ele>1838.7470000000001</ele>
        <time>2015-08-10T06:11:40Z</time>
      </trkpt>
      <trkpt lat="46.237313998863101" lon="11.83688904158771">
        <ele>1840.191</ele>
        <time>2015-08-10T06:11:58Z</time>
      </trkpt>
      <trkpt lat="46.2373330257833" lon="11.836850987747312">
        <ele>1838.222</ele>
        <time>2015-08-10T06:12:09Z</time>
      </trkpt>
      <trkpt lat="46.237272005528212" lon="11.836816035211086">
        <ele>1834.8620000000001</ele>
        <time>2015-08-10T06:12:23Z</time>
      </trkpt>
      <trkpt lat="46.23724602162838" lon="11.836797008290887">
        <ele>1830.508</ele>
        <time>2015-08-10T06:12:34Z</time>
      </trkpt>
      <trkpt lat="46.23729002662003" lon="11.836699023842812">
        <ele>1829.1079999999999</ele>
        <time>2015-08-10T06:12:49Z</time>
      </trkpt>
      <trkpt lat="46.23737501911819" lon="11.836663987487555">
        <ele>1824.7429999999999</ele>
        <time>2015-08-10T06:13:02Z</time>
      </trkpt>
      <trkpt lat="46.237385999411345" lon="11.836533984169364">
        <ele>1822.3130000000001</ele>
        <time>2015-08-10T06:13:15Z</time>
      </trkpt>
      <trkpt lat="46.237363032996655" lon="11.836545970290899">
        <ele>1818.067</ele>
        <time>2015-08-10T06:13:29Z</time>
      </trkpt>
      <trkpt lat="46.237275023013353" lon="11.836500959470868">
        <ele>1814.6669999999999</ele>
        <time>2015-08-10T06:13:45Z</time>
      </trkpt>
      <trkpt lat="46.23728902079165" lon="11.836411021649837">
        <ele>1813.731</ele>
        <time>2015-08-10T06:13:57Z</time>
      </trkpt>
      <trkpt lat="46.237320033833385" lon="11.836367016658187">
        <ele>1807.914</ele>
        <time>2015-08-10T06:14:10Z</time>
      </trkpt>
      <trkpt lat="46.237270999699831" lon="11.836271965876222">
        <ele>1806.011</ele>
        <time>2015-08-10T06:14:22Z</time>
      </trkpt>
      <trkpt lat="46.237220959737897" lon="11.836219998076558">
        <ele>1803.665</ele>
        <time>2015-08-10T06:14:34Z</time>
      </trkpt>
      <trkpt lat="46.237279968336225" lon="11.836124025285244">
        <ele>1801.7829999999999</ele>
        <time>2015-08-10T06:14:45Z</time>
      </trkpt>
      <trkpt lat="46.237319028005004" lon="11.836048001423478">
        <ele>1799.2249999999999</ele>
        <time>2015-08-10T06:15:00Z</time>
      </trkpt>
      <trkpt lat="46.237294971942902" lon="11.836032997816801">
        <ele>1797.317</ele>
        <time>2015-08-10T06:15:27Z</time>
      </trkpt>
      <trkpt lat="46.237232023850083" lon="11.835998967289925">
        <ele>1795.4079999999999</ele>
        <time>2015-08-10T06:15:40Z</time>
      </trkpt>
      <trkpt lat="46.23720402829349" lon="11.836001984775066">
        <ele>1793.549</ele>
        <time>2015-08-10T06:15:47Z</time>
      </trkpt>
      <trkpt lat="46.237207967787981" lon="11.835863012820482">
        <ele>1794.049</ele>
        <time>2015-08-10T06:16:00Z</time>
      </trkpt>
      <trkpt lat="46.237259013578296" lon="11.835769973695278">
        <ele>1793.0930000000001</ele>
        <time>2015-08-10T06:16:12Z</time>
      </trkpt>
      <trkpt lat="46.237294971942902" lon="11.835749018937349">
        <ele>1791.193</ele>
        <time>2015-08-10T06:16:22Z</time>
      </trkpt>
      <trkpt lat="46.237308969721198" lon="11.835736026987433">
        <ele>1789.287</ele>
        <time>2015-08-10T06:16:25Z</time>
      </trkpt>
      <trkpt lat="46.237368984147906" lon="11.835703002288938">
        <ele>1784.3299999999999</ele>
        <time>2015-08-10T06:16:37Z</time>
      </trkpt>
      <trkpt lat="46.237426986917853" lon="11.835602000355721">
        <ele>1783.9369999999999</ele>
        <time>2015-08-10T06:16:50Z</time>
      </trkpt>
      <trkpt lat="46.23741902410984" lon="11.835500998422503">
        <ele>1781.0609999999999</ele>
        <time>2015-08-10T06:17:03Z</time>
      </trkpt>
      <trkpt lat="46.237364038825035" lon="11.835395973175764">
        <ele>1778.1610000000001</ele>
        <time>2015-08-10T06:17:19Z</time>
      </trkpt>
      <trkpt lat="46.237405026331544" lon="11.835305029526353">
        <ele>1774.3209999999999</ele>
        <time>2015-08-10T06:17:32Z</time>
      </trkpt>
      <trkpt lat="46.237388011068106" lon="11.835221964865923">
        <ele>1772.3130000000001</ele>
        <time>2015-08-10T06:17:44Z</time>
      </trkpt>
      <trkpt lat="46.237394968047738" lon="11.835166979581118">
        <ele>1768.508</ele>
        <time>2015-08-10T06:17:56Z</time>
      </trkpt>
      <trkpt lat="46.237401003018022" lon="11.835119035094976">
        <ele>1764.6469999999999</ele>
        <time>2015-08-10T06:18:09Z</time>
      </trkpt>
      <trkpt lat="46.237369989976287" lon="11.835243003442883">
        <ele>1755.577</ele>
        <time>2015-08-10T06:18:49Z</time>
      </trkpt>
      <trkpt lat="46.237337971106172" lon="11.83512800373137">
        <ele>1755.5409999999999</ele>
        <time>2015-08-10T06:19:19Z</time>
      </trkpt>
      <trkpt lat="46.237310981377959" lon="11.83506203815341">
        <ele>1758.491</ele>
        <time>2015-08-10T06:19:43Z</time>
      </trkpt>
      <trkpt lat="46.237349035218358" lon="11.834993977099657">
        <ele>1764.635</ele>
        <time>2015-08-10T06:20:00Z</time>
      </trkpt>
      <trkpt lat="46.237367978319526" lon="11.83501903899014">
        <ele>1762.278</ele>
        <time>2015-08-10T06:20:17Z</time>
      </trkpt>
      <trkpt lat="46.23737602494657" lon="11.834944020956755">
        <ele>1762.2850000000001</ele>
        <time>2015-08-10T06:20:30Z</time>
      </trkpt>
      <trkpt lat="46.237334031611681" lon="11.834859028458595">
        <ele>1760.329</ele>
        <time>2015-08-10T06:20:43Z</time>
      </trkpt>
      <trkpt lat="46.237344006076455" lon="11.834785016253591">
        <ele>1755.021</ele>
        <time>2015-08-10T06:20:58Z</time>
      </trkpt>
      <trkpt lat="46.237430004402995" lon="11.834737993776798">
        <ele>1751.741</ele>
        <time>2015-08-10T06:21:11Z</time>
      </trkpt>
      <trkpt lat="46.237469986081123" lon="11.834733970463276">
        <ele>1748.3050000000001</ele>
        <time>2015-08-10T06:21:22Z</time>
      </trkpt>
      <trkpt lat="46.237456994131207" lon="11.834686025977135">
        <ele>1748.308</ele>
        <time>2015-08-10T06:21:27Z</time>
      </trkpt>
      <trkpt lat="46.237406032159925" lon="11.834529032930732">
        <ele>1745.923</ele>
        <time>2015-08-10T06:21:44Z</time>
      </trkpt>
      <trkpt lat="46.237407959997654" lon="11.834449991583824">
        <ele>1742.193</ele>
        <time>2015-08-10T06:21:56Z</time>
      </trkpt>
      <trkpt lat="46.237415000796318" lon="11.834356030449271">
        <ele>1738.7170000000001</ele>
        <time>2015-08-10T06:22:07Z</time>
      </trkpt>
      <trkpt lat="46.237507034093142" lon="11.834364999085665">
        <ele>1736.377</ele>
        <time>2015-08-10T06:22:20Z</time>
      </trkpt>
      <trkpt lat="46.237514996901155" lon="11.834251005202532">
        <ele>1734.481</ele>
        <time>2015-08-10T06:22:31Z</time>
      </trkpt>
      <trkpt lat="46.237537963315845" lon="11.834162995219231">
        <ele>1732.0239999999999</ele>
        <time>2015-08-10T06:22:43Z</time>
      </trkpt>
      <trkpt lat="46.237568976357579" lon="11.834136005491018">
        <ele>1728.181</ele>
        <time>2015-08-10T06:22:54Z</time>
      </trkpt>
      <trkpt lat="46.237606024369597" lon="11.834042966365814">
        <ele>1726.2850000000001</ele>
        <time>2015-08-10T06:23:07Z</time>
      </trkpt>
      <trkpt lat="46.23761398717761" lon="11.83396702632308">
        <ele>1723.3330000000001</ele>
        <time>2015-08-10T06:23:19Z</time>
      </trkpt>
      <trkpt lat="46.237592026591301" lon="11.833873987197876">
        <ele>1720.423</ele>
        <time>2015-08-10T06:23:32Z</time>
      </trkpt>
      <trkpt lat="46.237571993842721" lon="11.833781031891704">
        <ele>1719.0150000000001</ele>
        <time>2015-08-10T06:23:45Z</time>
      </trkpt>
      <trkpt lat="46.237549027428031" lon="11.833659997209907">
        <ele>1715.6079999999999</ele>
        <time>2015-08-10T06:24:01Z</time>
      </trkpt>
      <trkpt lat="46.23759001493454" lon="11.833565030246973">
        <ele>1710.8240000000001</ele>
        <time>2015-08-10T06:24:14Z</time>
      </trkpt>
      <trkpt lat="46.237641982734203" lon="11.833526976406574">
        <ele>1710.364</ele>
        <time>2015-08-10T06:24:30Z</time>
      </trkpt>
      <trkpt lat="46.237615998834372" lon="11.833423962816596">
        <ele>1706.048</ele>
        <time>2015-08-10T06:24:42Z</time>
      </trkpt>
      <trkpt lat="46.237640976905823" lon="11.833285996690392">
        <ele>1701.7280000000001</ele>
        <time>2015-08-10T06:24:55Z</time>
      </trkpt>
      <trkpt lat="46.237636031582952" lon="11.833250960335135">
        <ele>1699.8620000000001</ele>
        <time>2015-08-10T06:25:12Z</time>
      </trkpt>
      <trkpt lat="46.237629996612668" lon="11.833181977272034">
        <ele>1700.2149999999999</ele>
        <time>2015-08-10T06:25:26Z</time>
      </trkpt>
      <trkpt lat="46.237642988562584" lon="11.833102013915777">
        <ele>1697.8119999999999</ele>
        <time>2015-08-10T06:25:36Z</time>
      </trkpt>
      <trkpt lat="46.237648017704487" lon="11.832968993112445">
        <ele>1693.546</ele>
        <time>2015-08-10T06:25:49Z</time>
      </trkpt>
      <trkpt lat="46.237680036574602" lon="11.832867991179228">
        <ele>1689.7460000000001</ele>
        <time>2015-08-10T06:26:01Z</time>
      </trkpt>
      <trkpt lat="46.237740973010659" lon="11.832799008116126">
        <ele>1686.8879999999999</ele>
        <time>2015-08-10T06:26:14Z</time>
      </trkpt>
      <trkpt lat="46.23782797716558" lon="11.832674033939838">
        <ele>1684.4159999999999</ele>
        <time>2015-08-10T06:26:29Z</time>
      </trkpt>
      <trkpt lat="46.237795958295465" lon="11.832543024793267">
        <ele>1681.008</ele>
        <time>2015-08-10T06:26:42Z</time>
      </trkpt>
      <trkpt lat="46.237825965508819" lon="11.832422995939851">
        <ele>1679.165</ele>
        <time>2015-08-10T06:26:55Z</time>
      </trkpt>
      <trkpt lat="46.237844992429018" lon="11.832317970693111">
        <ele>1675.2750000000001</ele>
        <time>2015-08-10T06:27:08Z</time>
      </trkpt>
      <trkpt lat="46.237839963287115" lon="11.832225015386939">
        <ele>1672.8789999999999</ele>
        <time>2015-08-10T06:27:19Z</time>
      </trkpt>
      <trkpt lat="46.237904001027346" lon="11.832087971270084">
        <ele>1671.489</ele>
        <time>2015-08-10T06:27:33Z</time>
      </trkpt>
      <trkpt lat="46.23799704015255" lon="11.831951010972261">
        <ele>1669.0730000000001</ele>
        <time>2015-08-10T06:27:46Z</time>
      </trkpt>
      <trkpt lat="46.238022018224001" lon="11.831725034862757">
        <ele>1665.646</ele>
        <time>2015-08-10T06:28:03Z</time>
      </trkpt>
      <trkpt lat="46.237993016839027" lon="11.831609029322863">
        <ele>1662.373</ele>
        <time>2015-08-10T06:28:17Z</time>
      </trkpt>
      <trkpt lat="46.237983964383602" lon="11.83154096826911">
        <ele>1659.4169999999999</ele>
        <time>2015-08-10T06:28:33Z</time>
      </trkpt>
      <trkpt lat="46.237984970211983" lon="11.831507021561265">
        <ele>1664.279</ele>
        <time>2015-08-10T06:28:49Z</time>
      </trkpt>
      <trkpt lat="46.237986981868744" lon="11.831511966884136">
        <ele>1670.405</ele>
        <time>2015-08-10T06:29:13Z</time>
      </trkpt>
      <trkpt lat="46.237962003797293" lon="11.831573992967606">
        <ele>1666.125</ele>
        <time>2015-08-10T06:29:42Z</time>
      </trkpt>
      <trkpt lat="46.237991005182266" lon="11.831502998247743">
        <ele>1668.508</ele>
        <time>2015-08-10T06:30:10Z</time>
      </trkpt>
      <trkpt lat="46.237939959391952" lon="11.831321027129889">
        <ele>1663.248</ele>
        <time>2015-08-10T06:30:29Z</time>
      </trkpt>
      <trkpt lat="46.2379149813205" lon="11.831122962757945">
        <ele>1655.578</ele>
        <time>2015-08-10T06:30:43Z</time>
      </trkpt>
      <trkpt lat="46.237874999642372" lon="11.830992037430406">
        <ele>1650.232</ele>
        <time>2015-08-10T06:30:57Z</time>
      </trkpt>
      <trkpt lat="46.237906012684107" lon="11.830817023292184">
        <ele>1646.952</ele>
        <time>2015-08-10T06:31:09Z</time>
      </trkpt>
      <trkpt lat="46.237895032390952" lon="11.83070101775229">
        <ele>1644.096</ele>
        <time>2015-08-10T06:31:22Z</time>
      </trkpt>
      <trkpt lat="46.23789100907743" lon="11.830558022484183">
        <ele>1643.069</ele>
        <time>2015-08-10T06:31:36Z</time>
      </trkpt>
      <trkpt lat="46.23791397549212" lon="11.830405974760652">
        <ele>1639.7660000000001</ele>
        <time>2015-08-10T06:31:51Z</time>
      </trkpt>
      <trkpt lat="46.237982958555222" lon="11.830351995304227">
        <ele>1635.3900000000001</ele>
        <time>2015-08-10T06:32:04Z</time>
      </trkpt>
      <trkpt lat="46.23799704015255" lon="11.830261973664165">
        <ele>1634.4280000000001</ele>
        <time>2015-08-10T06:32:19Z</time>
      </trkpt>
      <trkpt lat="46.237982036545873" lon="11.829986963421106">
        <ele>1632.989</ele>
        <time>2015-08-10T06:32:33Z</time>
      </trkpt>
      <trkpt lat="46.237945994362235" lon="11.829860983416438">
        <ele>1631.0170000000001</ele>
        <time>2015-08-10T06:32:47Z</time>
      </trkpt>
      <trkpt lat="46.237959992140532" lon="11.829867018386722">
        <ele>1632.9079999999999</ele>
        <time>2015-08-10T06:33:09Z</time>
      </trkpt>
      <trkpt lat="46.237868964672089" lon="11.829790994524956">
        <ele>1633.443</ele>
        <time>2015-08-10T06:33:32Z</time>
      </trkpt>
      <trkpt lat="46.237937025725842" lon="11.829727040603757">
        <ele>1630.153</ele>
        <time>2015-08-10T06:33:45Z</time>
      </trkpt>
      <trkpt lat="46.237929984927177" lon="11.829698039218783">
        <ele>1630.557</ele>
        <time>2015-08-10T06:33:47Z</time>
      </trkpt>
      <trkpt lat="46.237877011299133" lon="11.829568035900593">
        <ele>1629.127</ele>
        <time>2015-08-10T06:34:02Z</time>
      </trkpt>
      <trkpt lat="46.237928979098797" lon="11.829494023695588">
        <ele>1628.681</ele>
        <time>2015-08-10T06:34:10Z</time>
      </trkpt>
      <trkpt lat="46.237851027399302" lon="11.829406013712287">
        <ele>1629.144</ele>
        <time>2015-08-10T06:34:23Z</time>
      </trkpt>
      <trkpt lat="46.237832000479102" lon="11.829149024561048">
        <ele>1627.721</ele>
        <time>2015-08-10T06:34:38Z</time>
      </trkpt>
      <trkpt lat="46.237810961902142" lon="11.828910978510976">
        <ele>1622.855</ele>
        <time>2015-08-10T06:34:52Z</time>
      </trkpt>
      <trkpt lat="46.237867958843708" lon="11.828710986301303">
        <ele>1620.067</ele>
        <time>2015-08-10T06:35:06Z</time>
      </trkpt>
      <trkpt lat="46.237869970500469" lon="11.828477969393134">
        <ele>1619.0809999999999</ele>
        <time>2015-08-10T06:35:22Z</time>
      </trkpt>
      <trkpt lat="46.237960997968912" lon="11.828291974961758">
        <ele>1617.6189999999999</ele>
        <time>2015-08-10T06:35:39Z</time>
      </trkpt>
      <trkpt lat="46.237879022955894" lon="11.82814403437078">
        <ele>1614.2080000000001</ele>
        <time>2015-08-10T06:35:53Z</time>
      </trkpt>
      <trkpt lat="46.23784800991416" lon="11.828099023550749">
        <ele>1610.4469999999999</ele>
        <time>2015-08-10T06:36:05Z</time>
      </trkpt>
      <trkpt lat="46.237894026562572" lon="11.828001039102674">
        <ele>1608.4169999999999</ele>
        <time>2015-08-10T06:36:12Z</time>
      </trkpt>
      <trkpt lat="46.237886985763907" lon="11.827959967777133">
        <ele>1604.1110000000001</ele>
        <time>2015-08-10T06:36:27Z</time>
      </trkpt>
      <trkpt lat="46.237868964672089" lon="11.827959967777133">
        <ele>1603.691</ele>
        <time>2015-08-10T06:36:29Z</time>
      </trkpt>
      <trkpt lat="46.237777015194297" lon="11.827774979174137">
        <ele>1600.7349999999999</ele>
        <time>2015-08-10T06:36:43Z</time>
      </trkpt>
      <trkpt lat="46.237735021859407" lon="11.827622009441257">
        <ele>1597.9880000000001</ele>
        <time>2015-08-10T06:36:56Z</time>
      </trkpt>
      <trkpt lat="46.237714989110827" lon="11.827593008056283">
        <ele>1596.915</ele>
        <time>2015-08-10T06:37:10Z</time>
      </trkpt>
      <trkpt lat="46.237820014357567" lon="11.827493011951447">
        <ele>1592.6690000000001</ele>
        <time>2015-08-10T06:37:27Z</time>
      </trkpt>
      <trkpt lat="46.237863013520837" lon="11.827418999746442">
        <ele>1587.3409999999999</ele>
        <time>2015-08-10T06:37:36Z</time>
      </trkpt>
      <trkpt lat="46.23791397549212" lon="11.827253038063645">
        <ele>1582.0809999999999</ele>
        <time>2015-08-10T06:37:50Z</time>
      </trkpt>
      <trkpt lat="46.237943982705474" lon="11.827069977298379">
        <ele>1583.009</ele>
        <time>2015-08-10T06:38:05Z</time>
      </trkpt>
      <trkpt lat="46.237911963835359" lon="11.827111970633268">
        <ele>1583.9079999999999</ele>
        <time>2015-08-10T06:38:25Z</time>
      </trkpt>
      <trkpt lat="46.23795404098928" lon="11.827063020318747">
        <ele>1584.9849999999999</ele>
        <time>2015-08-10T06:38:45Z</time>
      </trkpt>
      <trkpt lat="46.237981030717492" lon="11.827158993110061">
        <ele>1583.4349999999999</ele>
        <time>2015-08-10T06:39:03Z</time>
      </trkpt>
      <trkpt lat="46.238038027659059" lon="11.827021026983857">
        <ele>1582.559</ele>
        <time>2015-08-10T06:39:26Z</time>
      </trkpt>
      <trkpt lat="46.238077003508806" lon="11.82672799564898">
        <ele>1585.4690000000001</ele>
        <time>2015-08-10T06:39:40Z</time>
      </trkpt>
      <trkpt lat="46.238139029592276" lon="11.826526997610927">
        <ele>1582.0730000000001</ele>
        <time>2015-08-10T06:39:55Z</time>
      </trkpt>
      <trkpt lat="46.238243971019983" lon="11.826365981251001">
        <ele>1573.816</ele>
        <time>2015-08-10T06:40:11Z</time>
      </trkpt>
      <trkpt lat="46.238312032073736" lon="11.826259028166533">
        <ele>1572.473</ele>
        <time>2015-08-10T06:40:26Z</time>
      </trkpt>
      <trkpt lat="46.23838797211647" lon="11.826130030676723">
        <ele>1569.547</ele>
        <time>2015-08-10T06:40:40Z</time>
      </trkpt>
      <trkpt lat="46.238527027890086" lon="11.825902964919806">
        <ele>1569.5340000000001</ele>
        <time>2015-08-10T06:40:54Z</time>
      </trkpt>
      <trkpt lat="46.23859902843833" lon="11.825719987973571">
        <ele>1573.355</ele>
        <time>2015-08-10T06:41:07Z</time>
      </trkpt>
      <trkpt lat="46.238675974309444" lon="11.825466016307473">
        <ele>1574.3099999999999</ele>
        <time>2015-08-10T06:41:21Z</time>
      </trkpt>
      <trkpt lat="46.238669017329812" lon="11.825238028541207">
        <ele>1573.308</ele>
        <time>2015-08-10T06:41:34Z</time>
      </trkpt>
      <trkpt lat="46.238749986514449" lon="11.825144989416003">
        <ele>1574.384</ele>
        <time>2015-08-10T06:41:54Z</time>
      </trkpt>
      <trkpt lat="46.238775970414281" lon="11.825041975826025">
        <ele>1574.8140000000001</ele>
        <time>2015-08-10T06:42:11Z</time>
      </trkpt>
      <trkpt lat="46.238802038133144" lon="11.82487903162837">
        <ele>1576.798</ele>
        <time>2015-08-10T06:42:22Z</time>
      </trkpt>
      <trkpt lat="46.238826010376215" lon="11.824705023318529">
        <ele>1577.7380000000001</ele>
        <time>2015-08-10T06:42:34Z</time>
      </trkpt>
      <trkpt lat="46.238856017589569" lon="11.82453403249383">
        <ele>1579.672</ele>
        <time>2015-08-10T06:42:47Z</time>
      </trkpt>
      <trkpt lat="46.238887030631304" lon="11.824381984770298">
        <ele>1582.585</ele>
        <time>2015-08-10T06:42:59Z</time>
      </trkpt>
      <trkpt lat="46.238915026187897" lon="11.82423303835094">
        <ele>1584.422</ele>
        <time>2015-08-10T06:43:12Z</time>
      </trkpt>
      <trkpt lat="46.238972023129463" lon="11.82406498119235">
        <ele>1583.056</ele>
        <time>2015-08-10T06:43:26Z</time>
      </trkpt>
      <trkpt lat="46.2390529923141" lon="11.823949981480837">
        <ele>1579.6310000000001</ele>
        <time>2015-08-10T06:43:37Z</time>
      </trkpt>
      <trkpt lat="46.239112000912428" lon="11.823882004246116">
        <ele>1576.261</ele>
        <time>2015-08-10T06:43:44Z</time>
      </trkpt>
      <trkpt lat="46.2392239831388" lon="11.823745965957642">
        <ele>1576.2070000000001</ele>
        <time>2015-08-10T06:43:58Z</time>
      </trkpt>
      <trkpt lat="46.239316016435623" lon="11.823713025078177">
        <ele>1579.1079999999999</ele>
        <time>2015-08-10T06:44:15Z</time>
      </trkpt>
      <trkpt lat="46.239314004778862" lon="11.823627026751637">
        <ele>1581.5740000000001</ele>
        <time>2015-08-10T06:44:40Z</time>
      </trkpt>
      <trkpt lat="46.239392040297389" lon="11.823517978191376">
        <ele>1582.0440000000001</ele>
        <time>2015-08-10T06:44:54Z</time>
      </trkpt>
      <trkpt lat="46.23952497728169" lon="11.823367020115256">
        <ele>1579.6980000000001</ele>
        <time>2015-08-10T06:45:07Z</time>
      </trkpt>
      <trkpt lat="46.239618016406894" lon="11.82329099625349">
        <ele>1577.788</ele>
        <time>2015-08-10T06:45:14Z</time>
      </trkpt>
      <trkpt lat="46.239770986139774" lon="11.823189994320273">
        <ele>1573.8620000000001</ele>
        <time>2015-08-10T06:45:30Z</time>
      </trkpt>
      <trkpt lat="46.239798981696367" lon="11.823173984885216">
        <ele>1573.365</ele>
        <time>2015-08-10T06:45:33Z</time>
      </trkpt>
      <trkpt lat="46.240010038018227" lon="11.823106007650495">
        <ele>1570.952</ele>
        <time>2015-08-10T06:45:48Z</time>
      </trkpt>
      <trkpt lat="46.240162001922727" lon="11.82309603318572">
        <ele>1567.6959999999999</ele>
        <time>2015-08-10T06:46:03Z</time>
      </trkpt>
      <trkpt lat="46.240350008010864" lon="11.823054039850831">
        <ele>1570.931</ele>
        <time>2015-08-10T06:46:14Z</time>
      </trkpt>
      <trkpt lat="46.240550000220537" lon="11.823072982951999">
        <ele>1571.961</ele>
        <time>2015-08-10T06:46:29Z</time>
      </trkpt>
      <trkpt lat="46.240725014358759" lon="11.823049010708928">
        <ele>1569.5070000000001</ele>
        <time>2015-08-10T06:46:45Z</time>
      </trkpt>
      <trkpt lat="46.240870021283627" lon="11.823008023202419">
        <ele>1564.7080000000001</ele>
        <time>2015-08-10T06:46:59Z</time>
      </trkpt>
      <trkpt lat="46.240961970761418" lon="11.822921019047499">
        <ele>1565.2139999999999</ele>
        <time>2015-08-10T06:47:08Z</time>
      </trkpt>
      <trkpt lat="46.241087028756738" lon="11.822769977152348">
        <ele>1568.5840000000001</ele>
        <time>2015-08-10T06:47:19Z</time>
      </trkpt>
      <trkpt lat="46.241140002384782" lon="11.8227310013026">
        <ele>1570.038</ele>
        <time>2015-08-10T06:47:22Z</time>
      </trkpt>
      <trkpt lat="46.241207979619503" lon="11.822690013796091">
        <ele>1569.018</ele>
        <time>2015-08-10T06:47:29Z</time>
      </trkpt>
      <trkpt lat="46.241258019581437" lon="11.822678027674556">
        <ele>1568.5319999999999</ele>
        <time>2015-08-10T06:47:33Z</time>
      </trkpt>
      <trkpt lat="46.241428004577756" lon="11.822705017402768">
        <ele>1567.655</ele>
        <time>2015-08-10T06:47:48Z</time>
      </trkpt>
      <trkpt lat="46.241649035364389" lon="11.822728989645839">
        <ele>1565.682</ele>
        <time>2015-08-10T06:48:03Z</time>
      </trkpt>
      <trkpt lat="46.241798987612128" lon="11.822714991867542">
        <ele>1563.296</ele>
        <time>2015-08-10T06:48:16Z</time>
      </trkpt>
      <trkpt lat="46.241905018687248" lon="11.822678027674556">
        <ele>1563.231</ele>
        <time>2015-08-10T06:48:27Z</time>
      </trkpt>
      <trkpt lat="46.241949023678899" lon="11.822675010189414">
        <ele>1563.261</ele>
        <time>2015-08-10T06:48:31Z</time>
      </trkpt>
      <trkpt lat="46.242151027545333" lon="11.822598986327648">
        <ele>1567.107</ele>
        <time>2015-08-10T06:48:46Z</time>
      </trkpt>
      <trkpt lat="46.242266027256846" lon="11.822519022971392">
        <ele>1573.808</ele>
        <time>2015-08-10T06:49:02Z</time>
      </trkpt>
      <trkpt lat="46.242355965077877" lon="11.822448028251529">
        <ele>1574.364</ele>
        <time>2015-08-10T06:49:19Z</time>
      </trkpt>
      <trkpt lat="46.242444980889559" lon="11.822447022423148">
        <ele>1574.3340000000001</ele>
        <time>2015-08-10T06:49:32Z</time>
      </trkpt>
      <trkpt lat="46.242464007809758" lon="11.822449034079909">
        <ele>1576.278</ele>
        <time>2015-08-10T06:49:46Z</time>
      </trkpt>
      <trkpt lat="46.242526033893228" lon="11.822525979951024">
        <ele>1578.6379999999999</ele>
        <time>2015-08-10T06:50:02Z</time>
      </trkpt>
      <trkpt lat="46.242595016956329" lon="11.822530003264546">
        <ele>1580.192</ele>
        <time>2015-08-10T06:50:21Z</time>
      </trkpt>
      <trkpt lat="46.242738012224436" lon="11.822426989674568">
        <ele>1583.9449999999999</ele>
        <time>2015-08-10T06:50:35Z</time>
      </trkpt>
      <trkpt lat="46.242845971137285" lon="11.822401005774736">
        <ele>1587.8520000000001</ele>
        <time>2015-08-10T06:50:48Z</time>
      </trkpt>
      <trkpt lat="46.242991983890533" lon="11.822392037138343">
        <ele>1590.2260000000001</ele>
        <time>2015-08-10T06:50:59Z</time>
      </trkpt>
      <trkpt lat="46.243101032450795" lon="11.822389019653201">
        <ele>1590.212</ele>
        <time>2015-08-10T06:51:13Z</time>
      </trkpt>
      <trkpt lat="46.243234975263476" lon="11.822381978854537">
        <ele>1593.0319999999999</ele>
        <time>2015-08-10T06:51:33Z</time>
      </trkpt>
      <trkpt lat="46.243289960548282" lon="11.82234400883317">
        <ele>1595.5050000000001</ele>
        <time>2015-08-10T06:51:50Z</time>
      </trkpt>
      <trkpt lat="46.243329020217061" lon="11.822352977469563">
        <ele>1595.508</ele>
        <time>2015-08-10T06:52:07Z</time>
      </trkpt>
      <trkpt lat="46.243362966924906" lon="11.822367981076241">
        <ele>1595.5119999999999</ele>
        <time>2015-08-10T06:52:23Z</time>
      </trkpt>
      <trkpt lat="46.243470003828406" lon="11.822393964976072">
        <ele>1592.692</ele>
        <time>2015-08-10T06:52:38Z</time>
      </trkpt>
      <trkpt lat="46.243662033230066" lon="11.822350965812802">
        <ele>1590.646</ele>
        <time>2015-08-10T06:52:53Z</time>
      </trkpt>
      <trkpt lat="46.24373503960669" lon="11.822359012439847">
        <ele>1589.2360000000001</ele>
        <time>2015-08-10T06:53:08Z</time>
      </trkpt>
      <trkpt lat="46.243811985477805" lon="11.822336968034506">
        <ele>1588.79</ele>
        <time>2015-08-10T06:53:14Z</time>
      </trkpt>
      <trkpt lat="46.243903012946248" lon="11.822337973862886">
        <ele>1589.2929999999999</ele>
        <time>2015-08-10T06:53:20Z</time>
      </trkpt>
      <trkpt lat="46.244067968800664" lon="11.822318024933338">
        <ele>1591.6600000000001</ele>
        <time>2015-08-10T06:53:35Z</time>
      </trkpt>
      <trkpt lat="46.24420803040266" lon="11.822318024933338">
        <ele>1593.5940000000001</ele>
        <time>2015-08-10T06:53:47Z</time>
      </trkpt>
      <trkpt lat="46.244237031787634" lon="11.822320036590099">
        <ele>1594.556</ele>
        <time>2015-08-10T06:53:50Z</time>
      </trkpt>
      <trkpt lat="46.244421014562249" lon="11.822317019104958">
        <ele>1598.3589999999999</ele>
        <time>2015-08-10T06:54:04Z</time>
      </trkpt>
      <trkpt lat="46.244604997336864" lon="11.822269996628165">
        <ele>1599.8140000000001</ele>
        <time>2015-08-10T06:54:18Z</time>
      </trkpt>
      <trkpt lat="46.244628969579935" lon="11.822269996628165">
        <ele>1599.808</ele>
        <time>2015-08-10T06:54:20Z</time>
      </trkpt>
      <trkpt lat="46.244686972349882" lon="11.822278965264559">
        <ele>1599.836</ele>
        <time>2015-08-10T06:54:25Z</time>
      </trkpt>
      <trkpt lat="46.244757967069745" lon="11.822277959436178">
        <ele>1599.386</ele>
        <time>2015-08-10T06:54:29Z</time>
      </trkpt>
      <trkpt lat="46.24480901286006" lon="11.822285000234842">
        <ele>1598.8900000000001</ele>
        <time>2015-08-10T06:54:32Z</time>
      </trkpt>
      <trkpt lat="46.244963994249701" lon="11.822333028540015">
        <ele>1592.1700000000001</ele>
        <time>2015-08-10T06:54:44Z</time>
      </trkpt>
      <trkpt lat="46.245105983689427" lon="11.822316013276577">
        <ele>1593.5640000000001</ele>
        <time>2015-08-10T06:54:59Z</time>
      </trkpt>
      <trkpt lat="46.245216960087419" lon="11.822332022711635">
        <ele>1596.4269999999999</ele>
        <time>2015-08-10T06:55:07Z</time>
      </trkpt>
      <trkpt lat="46.24538904055953" lon="11.822306038811803">
        <ele>1595.5139999999999</ele>
        <time>2015-08-10T06:55:21Z</time>
      </trkpt>
      <trkpt lat="46.245457017794251" lon="11.822285000234842">
        <ele>1595.9780000000001</ele>
        <time>2015-08-10T06:55:26Z</time>
      </trkpt>
      <trkpt lat="46.2456030305475" lon="11.822234038263559">
        <ele>1597.4749999999999</ele>
        <time>2015-08-10T06:55:40Z</time>
      </trkpt>
      <trkpt lat="46.245734039694071" lon="11.822289023548365">
        <ele>1597.4280000000001</ele>
        <time>2015-08-10T06:55:49Z</time>
      </trkpt>
      <trkpt lat="46.245915004983544" lon="11.822359012439847">
        <ele>1597.9200000000001</ele>
        <time>2015-08-10T06:56:05Z</time>
      </trkpt>
      <trkpt lat="46.246088007465005" lon="11.82249597273767">
        <ele>1596.9079999999999</ele>
        <time>2015-08-10T06:56:18Z</time>
      </trkpt>
      <trkpt lat="46.24620895832777" lon="11.822640979662538">
        <ele>1598.318</ele>
        <time>2015-08-10T06:56:30Z</time>
      </trkpt>
      <trkpt lat="46.246279031038284" lon="11.822650032117963">
        <ele>1598.8579999999999</ele>
        <time>2015-08-10T06:56:38Z</time>
      </trkpt>
      <trkpt lat="46.246495032683015" lon="11.822781041264534">
        <ele>1598.8119999999999</ele>
        <time>2015-08-10T06:56:52Z</time>
      </trkpt>
      <trkpt lat="46.24665898270905" lon="11.822896962985396">
        <ele>1597.942</ele>
        <time>2015-08-10T06:57:06Z</time>
      </trkpt>
      <trkpt lat="46.246697958558798" lon="11.822933005169034">
        <ele>1597.4259999999999</ele>
        <time>2015-08-10T06:57:09Z</time>
      </trkpt>
      <trkpt lat="46.246788986027241" lon="11.823024032637477">
        <ele>1596.979</ele>
        <time>2015-08-10T06:57:22Z</time>
      </trkpt>
      <trkpt lat="46.246898034587502" lon="11.823136014863849">
        <ele>1595.596</ele>
        <time>2015-08-10T06:57:31Z</time>
      </trkpt>
      <trkpt lat="46.247020997107029" lon="11.823235005140305">
        <ele>1594.51</ele>
        <time>2015-08-10T06:57:44Z</time>
      </trkpt>
      <trkpt lat="46.247149994596839" lon="11.823309017345309">
        <ele>1594.0550000000001</ele>
        <time>2015-08-10T06:57:57Z</time>
      </trkpt>
      <trkpt lat="46.247264994308352" lon="11.823383029550314">
        <ele>1593.5070000000001</ele>
        <time>2015-08-10T06:58:04Z</time>
      </trkpt>
      <trkpt lat="46.247275974601507" lon="11.823385963216424">
        <ele>1593.5170000000001</ele>
        <time>2015-08-10T06:58:05Z</time>
      </trkpt>
      <trkpt lat="46.247391980141401" lon="11.823391998186707">
        <ele>1591.1079999999999</ele>
        <time>2015-08-10T06:58:18Z</time>
      </trkpt>
      <trkpt lat="46.24749499373138" lon="11.823382023721933">
        <ele>1588.7460000000001</ele>
        <time>2015-08-10T06:58:30Z</time>
      </trkpt>
      <trkpt lat="46.247605970129371" lon="11.823395015671849">
        <ele>1587.326</ele>
        <time>2015-08-10T06:58:40Z</time>
      </trkpt>
      <trkpt lat="46.247687023133039" lon="11.823463998734951">
        <ele>1586.8800000000001</ele>
        <time>2015-08-10T06:58:56Z</time>
      </trkpt>
      <trkpt lat="46.247662967070937" lon="11.823552008718252">
        <ele>1586.8399999999999</ele>
        <time>2015-08-10T06:59:21Z</time>
      </trkpt>
      <trkpt lat="46.247665984556079" lon="11.823573969304562">
        <ele>1586.394</ele>
        <time>2015-08-10T06:59:26Z</time>
      </trkpt>
      <trkpt lat="46.247761035338044" lon="11.823668014258146">
        <ele>1584.4670000000001</ele>
        <time>2015-08-10T06:59:41Z</time>
      </trkpt>
      <trkpt lat="46.247854996472597" lon="11.823715958744287">
        <ele>1583.9839999999999</ele>
        <time>2015-08-10T06:59:56Z</time>
      </trkpt>
      <trkpt lat="46.247982988134027" lon="11.82376298122108">
        <ele>1581.578</ele>
        <time>2015-08-10T07:00:08Z</time>
      </trkpt>
      <trkpt lat="46.248107040300965" lon="11.823822995647788">
        <ele>1580.5429999999999</ele>
        <time>2015-08-10T07:00:20Z</time>
      </trkpt>
      <trkpt lat="46.24816101975739" lon="11.823888039216399">
        <ele>1580.5640000000001</ele>
        <time>2015-08-10T07:00:37Z</time>
      </trkpt>
      <trkpt lat="46.248195972293615" lon="11.823926009237766">
        <ele>1581.51</ele>
        <time>2015-08-10T07:00:54Z</time>
      </trkpt>
      <trkpt lat="46.248276019468904" lon="11.823984012007713">
        <ele>1581.508</ele>
        <time>2015-08-10T07:01:11Z</time>
      </trkpt>
      <trkpt lat="46.248338967561722" lon="11.82410798035562">
        <ele>1579.6949999999999</ele>
        <time>2015-08-10T07:01:23Z</time>
      </trkpt>
      <trkpt lat="46.248413985595107" lon="11.824237983673811">
        <ele>1579.675</ele>
        <time>2015-08-10T07:01:34Z</time>
      </trkpt>
      <trkpt lat="46.248465031385422" lon="11.824310990050435">
        <ele>1579.1690000000001</ele>
        <time>2015-08-10T07:01:45Z</time>
      </trkpt>
      <trkpt lat="46.248495038598776" lon="11.824338985607028">
        <ele>1579.1590000000001</ele>
        <time>2015-08-10T07:02:01Z</time>
      </trkpt>
      <trkpt lat="46.248534014448524" lon="11.824338985607028">
        <ele>1579.133</ele>
        <time>2015-08-10T07:02:13Z</time>
      </trkpt>
      <trkpt lat="46.24852797947824" lon="11.824363963678479">
        <ele>1579.126</ele>
        <time>2015-08-10T07:02:34Z</time>
      </trkpt>
      <trkpt lat="46.248506018891931" lon="11.824419032782316">
        <ele>1577.2629999999999</ele>
        <time>2015-08-10T07:02:59Z</time>
      </trkpt>
      <trkpt lat="46.248769965022802" lon="11.824655989184976">
        <ele>1585.4570000000001</ele>
        <time>2015-08-10T07:03:32Z</time>
      </trkpt>
      <trkpt lat="46.248755967244506" lon="11.824592035263777">
        <ele>1586.367</ele>
        <time>2015-08-10T07:03:46Z</time>
      </trkpt>
      <trkpt lat="46.248797038570046" lon="11.824669986963272">
        <ele>1586.8810000000001</ele>
        <time>2015-08-10T07:04:02Z</time>
      </trkpt>
      <trkpt lat="46.248780023306608" lon="11.824710974469781">
        <ele>1585.4190000000001</ele>
        <time>2015-08-10T07:04:15Z</time>
      </trkpt>
      <trkpt lat="46.248813970014453" lon="11.82470602914691">
        <ele>1583.008</ele>
        <time>2015-08-10T07:04:28Z</time>
      </trkpt>
      <trkpt lat="46.248912960290909" lon="11.82466596364975">
        <ele>1582.547</ele>
        <time>2015-08-10T07:04:41Z</time>
      </trkpt>
      <trkpt lat="46.249026032164693" lon="11.824740981683135">
        <ele>1582.057</ele>
        <time>2015-08-10T07:04:52Z</time>
      </trkpt>
      <trkpt lat="46.249119993299246" lon="11.82479202747345">
        <ele>1581.511</ele>
        <time>2015-08-10T07:05:05Z</time>
      </trkpt>
      <trkpt lat="46.249188976362348" lon="11.82483896613121">
        <ele>1581.0709999999999</ele>
        <time>2015-08-10T07:05:16Z</time>
      </trkpt>
      <trkpt lat="46.249253014102578" lon="11.82483502663672">
        <ele>1580.1949999999999</ele>
        <time>2015-08-10T07:05:23Z</time>
      </trkpt>
      <trkpt lat="46.24930003657937" lon="11.824802001938224">
        <ele>1578.6579999999999</ele>
        <time>2015-08-10T07:05:28Z</time>
      </trkpt>
      <trkpt lat="46.2494280282408" lon="11.824756991118193">
        <ele>1576.7650000000001</ele>
        <time>2015-08-10T07:05:41Z</time>
      </trkpt>
      <trkpt lat="46.249501034617424" lon="11.824757996946573">
        <ele>1576.299</ele>
        <time>2015-08-10T07:05:48Z</time>
      </trkpt>
      <trkpt lat="46.24964302405715" lon="11.824710974469781">
        <ele>1576.2639999999999</ele>
        <time>2015-08-10T07:05:59Z</time>
      </trkpt>
      <trkpt lat="46.249805968254805" lon="11.824785992503166">
        <ele>1576.2059999999999</ele>
        <time>2015-08-10T07:06:13Z</time>
      </trkpt>
      <trkpt lat="46.24990202486515" lon="11.824794039130211">
        <ele>1575.7159999999999</ele>
        <time>2015-08-10T07:06:45Z</time>
      </trkpt>
      <trkpt lat="46.249985005706549" lon="11.82483502663672">
        <ele>1577.7080000000001</ele>
        <time>2015-08-10T07:07:04Z</time>
      </trkpt>
      <trkpt lat="46.250035967677832" lon="11.824810970574617">
        <ele>1577.7570000000001</ele>
        <time>2015-08-10T07:07:09Z</time>
      </trkpt>
      <trkpt lat="46.250049965456128" lon="11.824806025251746">
        <ele>1577.797</ele>
        <time>2015-08-10T07:07:10Z</time>
      </trkpt>
      <trkpt lat="46.250122971832752" lon="11.824825974181294">
        <ele>1576.731</ele>
        <time>2015-08-10T07:07:18Z</time>
      </trkpt>
      <trkpt lat="46.250140992924571" lon="11.824845001101494">
        <ele>1576.2809999999999</ele>
        <time>2015-08-10T07:07:20Z</time>
      </trkpt>
      <trkpt lat="46.250197989866138" lon="11.8248360324651">
        <ele>1576.7750000000001</ele>
        <time>2015-08-10T07:07:26Z</time>
      </trkpt>
      <trkpt lat="46.250307960435748" lon="11.824926976114511">
        <ele>1576.288</ele>
        <time>2015-08-10T07:07:39Z</time>
      </trkpt>
      <trkpt lat="46.250411979854107" lon="11.825106013566256">
        <ele>1577.2149999999999</ele>
        <time>2015-08-10T07:07:51Z</time>
      </trkpt>
      <trkpt lat="46.250477023422718" lon="11.825238028541207">
        <ele>1578.1890000000001</ele>
        <time>2015-08-10T07:08:01Z</time>
      </trkpt>
      <trkpt lat="46.25048004090786" lon="11.825317991897464">
        <ele>1580.184</ele>
        <time>2015-08-10T07:08:21Z</time>
      </trkpt>
      <trkpt lat="46.25052697956562" lon="11.825381023809314">
        <ele>1580.107</ele>
        <time>2015-08-10T07:08:24Z</time>
      </trkpt>
      <trkpt lat="46.250587999820709" lon="11.825536005198956">
        <ele>1578.117</ele>
        <time>2015-08-10T07:08:37Z</time>
      </trkpt>
      <trkpt lat="46.250693025067449" lon="11.825643964111805">
        <ele>1573.308</ele>
        <time>2015-08-10T07:08:51Z</time>
      </trkpt>
      <trkpt lat="46.250714985653758" lon="11.825643964111805">
        <ele>1572.4690000000001</ele>
        <time>2015-08-10T07:08:53Z</time>
      </trkpt>
      <trkpt lat="46.250812970101833" lon="11.82565201073885">
        <ele>1569.559</ele>
        <time>2015-08-10T07:09:04Z</time>
      </trkpt>
      <trkpt lat="46.250878013670444" lon="11.825688974931836">
        <ele>1569.5329999999999</ele>
        <time>2015-08-10T07:09:12Z</time>
      </trkpt>
      <trkpt lat="46.250893017277122" lon="11.825703978538513">
        <ele>1569.5530000000001</ele>
        <time>2015-08-10T07:09:13Z</time>
      </trkpt>
      <trkpt lat="46.251034000888467" lon="11.825792994350195">
        <ele>1569.577</ele>
        <time>2015-08-10T07:09:25Z</time>
      </trkpt>
      <trkpt lat="46.251079011708498" lon="11.825744966045022">
        <ele>1569.0599999999999</ele>
        <time>2015-08-10T07:09:31Z</time>
      </trkpt>
      <trkpt lat="46.251088986173272" lon="11.825734991580248">
        <ele>1569.087</ele>
        <time>2015-08-10T07:09:32Z</time>
      </trkpt>
      <trkpt lat="46.251101978123188" lon="11.825725017115474">
        <ele>1569.0309999999999</ele>
        <time>2015-08-10T07:09:33Z</time>
      </trkpt>
      <trkpt lat="46.251181019470096" lon="11.825636001303792">
        <ele>1568.1880000000001</ele>
        <time>2015-08-10T07:09:44Z</time>
      </trkpt>
      <trkpt lat="46.25130096450448" lon="11.825590990483761">
        <ele>1567.124</ele>
        <time>2015-08-10T07:09:57Z</time>
      </trkpt>
      <trkpt lat="46.251381011679769" lon="11.825562994927168">
        <ele>1566.126</ele>
        <time>2015-08-10T07:10:10Z</time>
      </trkpt>
      <trkpt lat="46.251486036926508" lon="11.825556037947536">
        <ele>1564.7080000000001</ele>
        <time>2015-08-10T07:10:23Z</time>
      </trkpt>
      <trkpt lat="46.25155501998961" lon="11.825647987425327">
        <ele>1562.8489999999999</ele>
        <time>2015-08-10T07:10:39Z</time>
      </trkpt>
      <trkpt lat="46.251552002504468" lon="11.825668020173907">
        <ele>1560.829</ele>
        <time>2015-08-10T07:10:57Z</time>
      </trkpt>
      <trkpt lat="46.251576980575919" lon="11.825641030445695">
        <ele>1560.423</ele>
        <time>2015-08-10T07:11:09Z</time>
      </trkpt>
      <trkpt lat="46.25166398473084" lon="11.825575986877084">
        <ele>1560.883</ele>
        <time>2015-08-10T07:11:23Z</time>
      </trkpt>
      <trkpt lat="46.251673959195614" lon="11.825466016307473">
        <ele>1560.817</ele>
        <time>2015-08-10T07:11:37Z</time>
      </trkpt>
      <trkpt lat="46.251699021086097" lon="11.825411031022668">
        <ele>1560.8900000000001</ele>
        <time>2015-08-10T07:11:51Z</time>
      </trkpt>
      <trkpt lat="46.251678988337517" lon="11.825297037139535">
        <ele>1561.827</ele>
        <time>2015-08-10T07:12:02Z</time>
      </trkpt>
      <trkpt lat="46.251667002215981" lon="11.825257977470756">
        <ele>1561.8510000000001</ele>
        <time>2015-08-10T07:12:04Z</time>
      </trkpt>
      <trkpt lat="46.251658033579588" lon="11.825241968035698">
        <ele>1562.3530000000001</ele>
        <time>2015-08-10T07:12:05Z</time>
      </trkpt>
      <trkpt lat="46.251649986952543" lon="11.825207015499473">
        <ele>1562.3040000000001</ele>
        <time>2015-08-10T07:12:07Z</time>
      </trkpt>
      <trkpt lat="46.25162199139595" lon="11.825071983039379">
        <ele>1562.8140000000001</ele>
        <time>2015-08-10T07:12:15Z</time>
      </trkpt>
      <trkpt lat="46.25160195864737" lon="11.824828991666436">
        <ele>1561.808</ele>
        <time>2015-08-10T07:12:28Z</time>
      </trkpt>
      <trkpt lat="46.251564994454384" lon="11.824608966708183">
        <ele>1560.876</ele>
        <time>2015-08-10T07:12:42Z</time>
      </trkpt>
      <trkpt lat="46.251429039984941" lon="11.824432024732232">
        <ele>1557.566</ele>
        <time>2015-08-10T07:12:59Z</time>
      </trkpt>
      <trkpt lat="46.251323008909822" lon="11.824173023924232">
        <ele>1554.6400000000001</ele>
        <time>2015-08-10T07:13:18Z</time>
      </trkpt>
      <trkpt lat="46.251299036666751" lon="11.824028016999364">
        <ele>1556.05</ele>
        <time>2015-08-10T07:13:31Z</time>
      </trkpt>
      <trkpt lat="46.251360978931189" lon="11.823988035321236">
        <ele>1554.134</ele>
        <time>2015-08-10T07:13:38Z</time>
      </trkpt>
      <trkpt lat="46.251385034993291" lon="11.82376398704946">
        <ele>1555.6669999999999</ele>
        <time>2015-08-10T07:13:51Z</time>
      </trkpt>
      <trkpt lat="46.251433985307813" lon="11.823701038956642">
        <ele>1555.184</ele>
        <time>2015-08-10T07:14:02Z</time>
      </trkpt>
      <trkpt lat="46.251507997512817" lon="11.823680000379682">
        <ele>1554.1279999999999</ele>
        <time>2015-08-10T07:14:15Z</time>
      </trkpt>
      <trkpt lat="46.251702038571239" lon="11.823576986789703">
        <ele>1554.1980000000001</ele>
        <time>2015-08-10T07:14:34Z</time>
      </trkpt>
      <trkpt lat="46.251645963639021" lon="11.823511021211743">
        <ele>1554.115</ele>
        <time>2015-08-10T07:14:44Z</time>
      </trkpt>
      <trkpt lat="46.251604976132512" lon="11.823398033156991">
        <ele>1554.126</ele>
        <time>2015-08-10T07:14:54Z</time>
      </trkpt>
      <trkpt lat="46.251603970304132" lon="11.823374982923269">
        <ele>1554.1079999999999</ele>
        <time>2015-08-10T07:14:55Z</time>
      </trkpt>
      <trkpt lat="46.251574968919158" lon="11.823089998215437">
        <ele>1554.1300000000001</ele>
        <time>2015-08-10T07:15:10Z</time>
      </trkpt>
      <trkpt lat="46.251590978354216" lon="11.822906015440822">
        <ele>1554.1400000000001</ele>
        <time>2015-08-10T07:15:23Z</time>
      </trkpt>
      <trkpt lat="46.251640012487769" lon="11.822739969938993">
        <ele>1554.684</ele>
        <time>2015-08-10T07:15:38Z</time>
      </trkpt>
      <trkpt lat="46.251616962254047" lon="11.822695964947343">
        <ele>1556.5640000000001</ele>
        <time>2015-08-10T07:15:58Z</time>
      </trkpt>
      <trkpt lat="46.25159902498126" lon="11.822578031569719">
        <ele>1555.1780000000001</ele>
        <time>2015-08-10T07:16:12Z</time>
      </trkpt>
      <trkpt lat="46.251640012487769" lon="11.822477029636502">
        <ele>1546.921</ele>
        <time>2015-08-10T07:16:31Z</time>
      </trkpt>
      <trkpt lat="46.251511014997959" lon="11.822367981076241">
        <ele>1546.9580000000001</ele>
        <time>2015-08-10T07:16:44Z</time>
      </trkpt>
      <trkpt lat="46.251365002244711" lon="11.822234038263559">
        <ele>1545.962</ele>
        <time>2015-08-10T07:16:58Z</time>
      </trkpt>
      <trkpt lat="46.251316973939538" lon="11.822179974988103">
        <ele>1545.9549999999999</ele>
        <time>2015-08-10T07:17:04Z</time>
      </trkpt>
      <trkpt lat="46.251296019181609" lon="11.822179974988103">
        <ele>1545.9069999999999</ele>
        <time>2015-08-10T07:17:19Z</time>
      </trkpt>
      <trkpt lat="46.251258971169591" lon="11.822205958887935">
        <ele>1545.9169999999999</ele>
        <time>2015-08-10T07:17:32Z</time>
      </trkpt>
      <trkpt lat="46.251240028068423" lon="11.822216017171741">
        <ele>1545.9079999999999</ele>
        <time>2015-08-10T07:17:35Z</time>
      </trkpt>
      <trkpt lat="46.251203985884786" lon="11.822234038263559">
        <ele>1545.9559999999999</ele>
        <time>2015-08-10T07:17:40Z</time>
      </trkpt>
      <trkpt lat="46.251193005591631" lon="11.822236971929669">
        <ele>1545.9159999999999</ele>
        <time>2015-08-10T07:17:41Z</time>
      </trkpt>
      <trkpt lat="46.251179007813334" lon="11.822229009121656">
        <ele>1545.9100000000001</ele>
        <time>2015-08-10T07:17:42Z</time>
      </trkpt>
      <trkpt lat="46.251129973679781" lon="11.822190033271909">
        <ele>1545.9200000000001</ele>
        <time>2015-08-10T07:17:48Z</time>
      </trkpt>
      <trkpt lat="46.251122010871768" lon="11.822175029665232">
        <ele>1545.954</ele>
        <time>2015-08-10T07:17:49Z</time>
      </trkpt>
      <trkpt lat="46.25101899728179" lon="11.821963973343372">
        <ele>1545.537</ele>
        <time>2015-08-10T07:18:06Z</time>
      </trkpt>
      <trkpt lat="46.250923024490476" lon="11.821864983066916">
        <ele>1545.0440000000001</ele>
        <time>2015-08-10T07:18:17Z</time>
      </trkpt>
      <trkpt lat="46.25091296620667" lon="11.821848973631859">
        <ele>1545.038</ele>
        <time>2015-08-10T07:18:18Z</time>
      </trkpt>
      <trkpt lat="46.250780029222369" lon="11.821700027212501">
        <ele>1544.5840000000001</ele>
        <time>2015-08-10T07:18:31Z</time>
      </trkpt>
      <trkpt lat="46.250742981210351" lon="11.821581004187465">
        <ele>1544.5070000000001</ele>
        <time>2015-08-10T07:18:38Z</time>
      </trkpt>
      <trkpt lat="46.250699982047081" lon="11.821401966735721">
        <ele>1544.0170000000001</ele>
        <time>2015-08-10T07:18:51Z</time>
      </trkpt>
      <trkpt lat="46.250691013410687" lon="11.821366008371115">
        <ele>1544.008</ele>
        <time>2015-08-10T07:18:54Z</time>
      </trkpt>
      <trkpt lat="46.250668969005346" lon="11.821212032809854">
        <ele>1543.5889999999999</ele>
        <time>2015-08-10T07:19:06Z</time>
      </trkpt>
      <trkpt lat="46.250578025355935" lon="11.821003993973136">
        <ele>1543.1890000000001</ele>
        <time>2015-08-10T07:19:20Z</time>
      </trkpt>
      <trkpt lat="46.250513987615705" lon="11.82071004062891">
        <ele>1542.663</ele>
        <time>2015-08-10T07:19:35Z</time>
      </trkpt>
      <trkpt lat="46.250467970967293" lon="11.820456990972161">
        <ele>1542.643</ele>
        <time>2015-08-10T07:19:50Z</time>
      </trkpt>
      <trkpt lat="46.250449027866125" lon="11.82017401792109">
        <ele>1542.1569999999999</ele>
        <time>2015-08-10T07:20:04Z</time>
      </trkpt>
      <trkpt lat="46.250400999560952" lon="11.819842010736465">
        <ele>1542.1300000000001</ele>
        <time>2015-08-10T07:20:21Z</time>
      </trkpt>
      <trkpt lat="46.250387001782656" lon="11.819632966071367">
        <ele>1541.6869999999999</ele>
        <time>2015-08-10T07:20:35Z</time>
      </trkpt>
      <trkpt lat="46.250335033982992" lon="11.81939902715385">
        <ele>1541.1210000000001</ele>
        <time>2015-08-10T07:20:50Z</time>
      </trkpt>
      <trkpt lat="46.250303015112877" lon="11.8191840313375">
        <ele>1541.1969999999999</ele>
        <time>2015-08-10T07:21:04Z</time>
      </trkpt>
      <trkpt lat="46.25026797875762" lon="11.818945985287428">
        <ele>1541.123</ele>
        <time>2015-08-10T07:21:18Z</time>
      </trkpt>
      <trkpt lat="46.250272002071142" lon="11.818814976140857">
        <ele>1541.125</ele>
        <time>2015-08-10T07:21:26Z</time>
      </trkpt>
      <trkpt lat="46.250276025384665" lon="11.818547006696463">
        <ele>1541.1079999999999</ele>
        <time>2015-08-10T07:21:40Z</time>
      </trkpt>
      <trkpt lat="46.250264039263129" lon="11.818409040570259">
        <ele>1541.1099999999999</ele>
        <time>2015-08-10T07:21:51Z</time>
      </trkpt>
      <trkpt lat="46.250193966552615" lon="11.818213993683457">
        <ele>1540.77</ele>
        <time>2015-08-10T07:22:04Z</time>
      </trkpt>
      <trkpt lat="46.250134035944939" lon="11.818024981766939">
        <ele>1540.7840000000001</ele>
        <time>2015-08-10T07:22:17Z</time>
      </trkpt>
      <trkpt lat="46.25009698793292" lon="11.817921968176961">
        <ele>1540.2539999999999</ele>
        <time>2015-08-10T07:22:31Z</time>
      </trkpt>
      <trkpt lat="46.250008977949619" lon="11.817749971523881">
        <ele>1539.7280000000001</ele>
        <time>2015-08-10T07:22:45Z</time>
      </trkpt>
      <trkpt lat="46.249913005158305" lon="11.817492982372642">
        <ele>1539.7809999999999</ele>
        <time>2015-08-10T07:23:02Z</time>
      </trkpt>
      <trkpt lat="46.249822983518243" lon="11.817279998213053">
        <ele>1539.2180000000001</ele>
        <time>2015-08-10T07:23:15Z</time>
      </trkpt>
      <trkpt lat="46.249817032366991" lon="11.817151000723243">
        <ele>1537.8119999999999</ele>
        <time>2015-08-10T07:23:22Z</time>
      </trkpt>
      <trkpt lat="46.24981602653861" lon="11.817129040136933">
        <ele>1537.8240000000001</ele>
        <time>2015-08-10T07:23:23Z</time>
      </trkpt>
      <trkpt lat="46.249781996011734" lon="11.816905997693539">
        <ele>1536.8040000000001</ele>
        <time>2015-08-10T07:23:37Z</time>
      </trkpt>
      <trkpt lat="46.249733967706561" lon="11.816732995212078">
        <ele>1536.3140000000001</ele>
        <time>2015-08-10T07:23:52Z</time>
      </trkpt>
      <trkpt lat="46.249762969091535" lon="11.816636016592383">
        <ele>1523.4079999999999</ele>
        <time>2015-08-10T07:24:29Z</time>
      </trkpt>
      <trkpt lat="46.249766992405057" lon="11.816674992442131">
        <ele>1521.963</ele>
        <time>2015-08-10T07:24:47Z</time>
      </trkpt>
      <trkpt lat="46.249848967418075" lon="11.816731989383698">
        <ele>1506.5329999999999</ele>
        <time>2015-08-10T07:24:59Z</time>
      </trkpt>
      <trkpt lat="46.24981602653861" lon="11.816613972187042">
        <ele>1509.4269999999999</ele>
        <time>2015-08-10T07:25:20Z</time>
      </trkpt>
      <trkpt lat="46.249791970476508" lon="11.816410962492228">
        <ele>1504.1869999999999</ele>
        <time>2015-08-10T07:25:34Z</time>
      </trkpt>
      <trkpt lat="46.249790964648128" lon="11.816150033846498">
        <ele>1503.241</ele>
        <time>2015-08-10T07:25:52Z</time>
      </trkpt>
      <trkpt lat="46.249781996011734" lon="11.816137041896582">
        <ele>1503.694</ele>
        <time>2015-08-10T07:25:53Z</time>
      </trkpt>
      <trkpt lat="46.249779984354973" lon="11.816015001386404">
        <ele>1506.5909999999999</ele>
        <time>2015-08-10T07:26:06Z</time>
      </trkpt>
      <trkpt lat="46.249762969091535" lon="11.81596303358674">
        <ele>1510.9649999999999</ele>
        <time>2015-08-10T07:26:16Z</time>
      </trkpt>
      <trkpt lat="46.24979498796165" lon="11.815826995298266">
        <ele>1508.5229999999999</ele>
        <time>2015-08-10T07:26:31Z</time>
      </trkpt>
      <trkpt lat="46.24979599379003" lon="11.81581299751997">
        <ele>1507.5830000000001</ele>
        <time>2015-08-10T07:26:36Z</time>
      </trkpt>
      <trkpt lat="46.249791970476508" lon="11.815797993913293">
        <ele>1507.511</ele>
        <time>2015-08-10T07:26:37Z</time>
      </trkpt>
      <trkpt lat="46.249804040417075" lon="11.815729010850191">
        <ele>1507.008</ele>
        <time>2015-08-10T07:26:50Z</time>
      </trkpt>
      <trkpt lat="46.249831030145288" lon="11.815744014456868">
        <ele>1507.5429999999999</ele>
        <time>2015-08-10T07:27:18Z</time>
      </trkpt>
      <trkpt lat="46.249785013496876" lon="11.815696991980076">
        <ele>1507.0530000000001</ele>
        <time>2015-08-10T07:27:31Z</time>
      </trkpt>
      <trkpt lat="46.249763974919915" lon="11.815531030297279">
        <ele>1506.547</ele>
        <time>2015-08-10T07:27:43Z</time>
      </trkpt>
      <trkpt lat="46.249754000455141" lon="11.815447965636849">
        <ele>1505.6969999999999</ele>
        <time>2015-08-10T07:27:48Z</time>
      </trkpt>
      <trkpt lat="46.249754000455141" lon="11.815430028364062">
        <ele>1505.6110000000001</ele>
        <time>2015-08-10T07:27:49Z</time>
      </trkpt>
      <trkpt lat="46.249712007120252" lon="11.815121993422508">
        <ele>1506.5139999999999</ele>
        <time>2015-08-10T07:28:07Z</time>
      </trkpt>
      <trkpt lat="46.249740002676845" lon="11.815114030614495">
        <ele>1508.0609999999999</ele>
        <time>2015-08-10T07:28:20Z</time>
      </trkpt>
      <trkpt lat="46.24972902238369" lon="11.815098021179438">
        <ele>1508.5150000000001</ele>
        <time>2015-08-10T07:28:34Z</time>
      </trkpt>
      <trkpt lat="46.249723993241787" lon="11.815087040886283">
        <ele>1508.0239999999999</ele>
        <time>2015-08-10T07:28:35Z</time>
      </trkpt>
      <trkpt lat="46.249683005735278" lon="11.814987966790795">
        <ele>1506.5039999999999</ele>
        <time>2015-08-10T07:28:44Z</time>
      </trkpt>
      <trkpt lat="46.249502040445805" lon="11.81484698317945">
        <ele>1504.614</ele>
        <time>2015-08-10T07:29:03Z</time>
      </trkpt>
      <trkpt lat="46.249439008533955" lon="11.814770959317684">
        <ele>1505.1079999999999</ele>
        <time>2015-08-10T07:29:11Z</time>
      </trkpt>
      <trkpt lat="46.249441020190716" lon="11.814665012061596">
        <ele>1505.173</ele>
        <time>2015-08-10T07:29:23Z</time>
      </trkpt>
      <trkpt lat="46.24943096190691" lon="11.814595023170114">
        <ele>1508.0930000000001</ele>
        <time>2015-08-10T07:29:43Z</time>
      </trkpt>
      <trkpt lat="46.24947396107018" lon="11.814555963501334">
        <ele>1508.9870000000001</ele>
        <time>2015-08-10T07:29:56Z</time>
      </trkpt>
      <trkpt lat="46.249459963291883" lon="11.814578007906675">
        <ele>1510.9570000000001</ele>
        <time>2015-08-10T07:30:17Z</time>
      </trkpt>
      <trkpt lat="46.24949399381876" lon="11.81454598903656">
        <ele>1510.991</ele>
        <time>2015-08-10T07:30:43Z</time>
      </trkpt>
      <trkpt lat="46.249501034617424" lon="11.814546994864941">
        <ele>1510.4839999999999</ele>
        <time>2015-08-10T07:30:57Z</time>
      </trkpt>
      <trkpt lat="46.249535987153649" lon="11.814514975994825">
        <ele>1509.971</ele>
        <time>2015-08-10T07:31:08Z</time>
      </trkpt>
      <trkpt lat="46.249680994078517" lon="11.814368041232228">
        <ele>1510.425</ele>
        <time>2015-08-10T07:31:22Z</time>
      </trkpt>
      <trkpt lat="46.249852990731597" lon="11.814187997952104">
        <ele>1508.096</ele>
        <time>2015-08-10T07:31:39Z</time>
      </trkpt>
      <trkpt lat="46.24986195936799" lon="11.814181040972471">
        <ele>1508.0309999999999</ele>
        <time>2015-08-10T07:31:40Z</time>
      </trkpt>
      <trkpt lat="46.249871011823416" lon="11.814172994345427">
        <ele>1508.5239999999999</ele>
        <time>2015-08-10T07:31:41Z</time>
      </trkpt>
      <trkpt lat="46.24988098628819" lon="11.814164025709033">
        <ele>1508.508</ele>
        <time>2015-08-10T07:31:42Z</time>
      </trkpt>
      <trkpt lat="46.250066980719566" lon="11.813983982428908">
        <ele>1508.01</ele>
        <time>2015-08-10T07:32:00Z</time>
      </trkpt>
      <trkpt lat="46.250280970707536" lon="11.813917011022568">
        <ele>1505.1600000000001</ele>
        <time>2015-08-10T07:32:17Z</time>
      </trkpt>
      <trkpt lat="46.250451039522886" lon="11.813906030729413">
        <ele>1503.634</ele>
        <time>2015-08-10T07:32:30Z</time>
      </trkpt>
      <trkpt lat="46.250646002590656" lon="11.813818020746112">
        <ele>1500.3240000000001</ele>
        <time>2015-08-10T07:32:46Z</time>
      </trkpt>
      <trkpt lat="46.250709034502506" lon="11.813755994662642">
        <ele>1500.3879999999999</ele>
        <time>2015-08-10T07:32:53Z</time>
      </trkpt>
      <trkpt lat="46.25071900896728" lon="11.813745014369488">
        <ele>1500.3810000000001</ele>
        <time>2015-08-10T07:32:54Z</time>
      </trkpt>
      <trkpt lat="46.250728983432055" lon="11.813732022419572">
        <ele>1500.3879999999999</ele>
        <time>2015-08-10T07:32:55Z</time>
      </trkpt>
      <trkpt lat="46.250899974256754" lon="11.813524989411235">
        <ele>1499.3920000000001</ele>
        <time>2015-08-10T07:33:13Z</time>
      </trkpt>
      <trkpt lat="46.250940039753914" lon="11.813474027439952">
        <ele>1499.3810000000001</ele>
        <time>2015-08-10T07:33:18Z</time>
      </trkpt>
      <trkpt lat="46.250951020047069" lon="11.813464974984527">
        <ele>1499.8610000000001</ele>
        <time>2015-08-10T07:33:19Z</time>
      </trkpt>
      <trkpt lat="46.251096026971936" lon="11.813326003029943">
        <ele>1498.817</ele>
        <time>2015-08-10T07:33:34Z</time>
      </trkpt>
      <trkpt lat="46.25117196701467" lon="11.813290966674685">
        <ele>1496.9079999999999</ele>
        <time>2015-08-10T07:33:57Z</time>
      </trkpt>
      <trkpt lat="46.251229969784617" lon="11.813287027180195">
        <ele>1496.9590000000001</ele>
        <time>2015-08-10T07:34:14Z</time>
      </trkpt>
      <trkpt lat="46.251351004466414" lon="11.813258025795221">
        <ele>1495.059</ele>
        <time>2015-08-10T07:34:28Z</time>
      </trkpt>
      <trkpt lat="46.251488970592618" lon="11.81323204189539">
        <ele>1488.713</ele>
        <time>2015-08-10T07:34:40Z</time>
      </trkpt>
      <trkpt lat="46.251693991944194" lon="11.813275963068008">
        <ele>1481.5129999999999</ele>
        <time>2015-08-10T07:34:55Z</time>
      </trkpt>
      <trkpt lat="46.251869006082416" lon="11.813269006088376">
        <ele>1477.7370000000001</ele>
        <time>2015-08-10T07:35:10Z</time>
      </trkpt>
      <trkpt lat="46.252048965543509" lon="11.813264982774854">
        <ele>1475.8199999999999</ele>
        <time>2015-08-10T07:35:25Z</time>
      </trkpt>
      <trkpt lat="46.252164971083403" lon="11.813281998038292">
        <ele>1470.537</ele>
        <time>2015-08-10T07:35:37Z</time>
      </trkpt>
      <trkpt lat="46.252234959974885" lon="11.813333965837955">
        <ele>1462.8510000000001</ele>
        <time>2015-08-10T07:35:48Z</time>
      </trkpt>
      <trkpt lat="46.252306960523129" lon="11.813372019678354">
        <ele>1457.096</ele>
        <time>2015-08-10T07:35:56Z</time>
      </trkpt>
      <trkpt lat="46.252319030463696" lon="11.813380988314748">
        <ele>1456.1310000000001</ele>
        <time>2015-08-10T07:35:57Z</time>
      </trkpt>
      <trkpt lat="46.252332022413611" lon="11.813390040770173">
        <ele>1455.124</ele>
        <time>2015-08-10T07:35:58Z</time>
      </trkpt>
      <trkpt lat="46.252344008535147" lon="11.813396997749805">
        <ele>1454.1079999999999</ele>
        <time>2015-08-10T07:35:59Z</time>
      </trkpt>
      <trkpt lat="46.252355994656682" lon="11.813404960557818">
        <ele>1453.22</ele>
        <time>2015-08-10T07:36:00Z</time>
      </trkpt>
      <trkpt lat="46.252369992434978" lon="11.813412001356483">
        <ele>1452.78</ele>
        <time>2015-08-10T07:36:01Z</time>
      </trkpt>
      <trkpt lat="46.252382984384894" lon="11.813418036326766">
        <ele>1451.7840000000001</ele>
        <time>2015-08-10T07:36:02Z</time>
      </trkpt>
      <trkpt lat="46.25239497050643" lon="11.813421975821257">
        <ele>1450.8140000000001</ele>
        <time>2015-08-10T07:36:03Z</time>
      </trkpt>
      <trkpt lat="46.252407040446997" lon="11.813430022448301">
        <ele>1450.3979999999999</ele>
        <time>2015-08-10T07:36:04Z</time>
      </trkpt>
      <trkpt lat="46.252602003514767" lon="11.813523983582854">
        <ele>1443.181</ele>
        <time>2015-08-10T07:36:19Z</time>
      </trkpt>
      <trkpt lat="46.252798978239298" lon="11.813572011888027">
        <ele>1442.6780000000001</ele>
        <time>2015-08-10T07:36:34Z</time>
      </trkpt>
      <trkpt lat="46.252984972670674" lon="11.813572011888027">
        <ele>1443.6320000000001</ele>
        <time>2015-08-10T07:36:48Z</time>
      </trkpt>
      <trkpt lat="46.253015985712409" lon="11.813562037423253">
        <ele>1444.0360000000001</ele>
        <time>2015-08-10T07:36:51Z</time>
      </trkpt>
      <trkpt lat="46.253039035946131" lon="11.813549967482686">
        <ele>1445.5170000000001</ele>
        <time>2015-08-10T07:36:52Z</time>
      </trkpt>
      <trkpt lat="46.253048004582524" lon="11.813544016331434">
        <ele>1445.518</ele>
        <time>2015-08-10T07:36:53Z</time>
      </trkpt>
      <trkpt lat="46.253058984875679" lon="11.813534963876009">
        <ele>1445.508</ele>
        <time>2015-08-10T07:36:54Z</time>
      </trkpt>
      <trkpt lat="46.253183959051967" lon="11.81347000412643">
        <ele>1446.424</ele>
        <time>2015-08-10T07:37:05Z</time>
      </trkpt>
      <trkpt lat="46.25333902426064" lon="11.813373025506735">
        <ele>1450.394</ele>
        <time>2015-08-10T07:37:18Z</time>
      </trkpt>
      <trkpt lat="46.253368025645614" lon="11.813369002193213">
        <ele>1451.338</ele>
        <time>2015-08-10T07:37:21Z</time>
      </trkpt>
      <trkpt lat="46.253492999821901" lon="11.813399009406567">
        <ele>1452.2280000000001</ele>
        <time>2015-08-10T07:37:32Z</time>
      </trkpt>
      <trkpt lat="46.253625014796853" lon="11.813408983871341">
        <ele>1453.232</ele>
        <time>2015-08-10T07:37:44Z</time>
      </trkpt>
      <trkpt lat="46.253810003399849" lon="11.813348969444633">
        <ele>1454.665</ele>
        <time>2015-08-10T07:37:57Z</time>
      </trkpt>
      <trkpt lat="46.253826012834907" lon="11.81334100663662">
        <ele>1454.652</ele>
        <time>2015-08-10T07:37:58Z</time>
      </trkpt>
      <trkpt lat="46.253842022269964" lon="11.813332960009575">
        <ele>1454.616</ele>
        <time>2015-08-10T07:37:59Z</time>
      </trkpt>
      <trkpt lat="46.253858031705022" lon="11.813328014686704">
        <ele>1454.663</ele>
        <time>2015-08-10T07:38:00Z</time>
      </trkpt>
      <trkpt lat="46.253873035311699" lon="11.813326003029943">
        <ele>1454.144</ele>
        <time>2015-08-10T07:38:01Z</time>
      </trkpt>
      <trkpt lat="46.253888038918376" lon="11.81332197971642">
        <ele>1454.6179999999999</ele>
        <time>2015-08-10T07:38:02Z</time>
      </trkpt>
      <trkpt lat="46.253989040851593" lon="11.813275963068008">
        <ele>1455.1079999999999</ele>
        <time>2015-08-10T07:38:10Z</time>
      </trkpt>
      <trkpt lat="46.254001026973128" lon="11.813262971118093">
        <ele>1455.1669999999999</ele>
        <time>2015-08-10T07:38:11Z</time>
      </trkpt>
      <trkpt lat="46.254089958965778" lon="11.813168004155159">
        <ele>1454.6969999999999</ele>
        <time>2015-08-10T07:38:20Z</time>
      </trkpt>
      <trkpt lat="46.254098005592823" lon="11.813151994720101">
        <ele>1454.1610000000001</ele>
        <time>2015-08-10T07:38:21Z</time>
      </trkpt>
      <trkpt lat="46.254182998090982" lon="11.812996007502079">
        <ele>1455.1410000000001</ele>
        <time>2015-08-10T07:38:32Z</time>
      </trkpt>
      <trkpt lat="46.254192972555757" lon="11.812986033037305">
        <ele>1455.145</ele>
        <time>2015-08-10T07:38:33Z</time>
      </trkpt>
      <trkpt lat="46.254204036667943" lon="11.812969017773867">
        <ele>1455.1379999999999</ele>
        <time>2015-08-10T07:38:34Z</time>
      </trkpt>
      <trkpt lat="46.254214011132717" lon="11.81295501999557">
        <ele>1455.1849999999999</ele>
        <time>2015-08-10T07:38:35Z</time>
      </trkpt>
      <trkpt lat="46.254296991974115" lon="11.812862986698747">
        <ele>1454.1790000000001</ele>
        <time>2015-08-10T07:38:44Z</time>
      </trkpt>
      <trkpt lat="46.254308978095651" lon="11.812853012233973">
        <ele>1454.1759999999999</ele>
        <time>2015-08-10T07:38:45Z</time>
      </trkpt>
      <trkpt lat="46.254319036379457" lon="11.812840020284057">
        <ele>1454.1900000000001</ele>
        <time>2015-08-10T07:38:46Z</time>
      </trkpt>
      <trkpt lat="46.25432800501585" lon="11.81282602250576">
        <ele>1454.1189999999999</ele>
        <time>2015-08-10T07:38:47Z</time>
      </trkpt>
      <trkpt lat="46.25435097143054" lon="11.812800960615277">
        <ele>1454.1079999999999</ele>
        <time>2015-08-10T07:38:50Z</time>
      </trkpt>
      <trkpt lat="46.254451973363757" lon="11.812651008367538">
        <ele>1454.1479999999999</ele>
        <time>2015-08-10T07:39:04Z</time>
      </trkpt>
      <trkpt lat="46.254580970853567" lon="11.812483035027981">
        <ele>1451.7380000000001</ele>
        <time>2015-08-10T07:39:19Z</time>
      </trkpt>
      <trkpt lat="46.254756990820169" lon="11.812363006174564">
        <ele>1448.472</ele>
        <time>2015-08-10T07:39:35Z</time>
      </trkpt>
      <trkpt lat="46.254890011623502" lon="11.812240965664387">
        <ele>1445.5219999999999</ele>
        <time>2015-08-10T07:39:48Z</time>
      </trkpt>
      <trkpt lat="46.254935022443533" lon="11.812216993421316">
        <ele>1444.076</ele>
        <time>2015-08-10T07:39:52Z</time>
      </trkpt>
      <trkpt lat="46.254965029656887" lon="11.812192015349865">
        <ele>1443.1289999999999</ele>
        <time>2015-08-10T07:39:55Z</time>
      </trkpt>
      <trkpt lat="46.255069971084595" lon="11.812056982889771">
        <ele>1440.2360000000001</ele>
        <time>2015-08-10T07:40:06Z</time>
      </trkpt>
      <trkpt lat="46.255080029368401" lon="11.812044996768236">
        <ele>1440.24</ele>
        <time>2015-08-10T07:40:07Z</time>
      </trkpt>
      <trkpt lat="46.255092015489936" lon="11.812023036181927">
        <ele>1440.2170000000001</ele>
        <time>2015-08-10T07:40:09Z</time>
      </trkpt>
      <trkpt lat="46.255106013268232" lon="11.811999985948205">
        <ele>1440.287</ele>
        <time>2015-08-10T07:40:11Z</time>
      </trkpt>
      <trkpt lat="46.255115987733006" lon="11.81198799982667">
        <ele>1440.7149999999999</ele>
        <time>2015-08-10T07:40:12Z</time>
      </trkpt>
      <trkpt lat="46.255125040188432" lon="11.811978025361896">
        <ele>1440.7080000000001</ele>
        <time>2015-08-10T07:40:13Z</time>
      </trkpt>
      <trkpt lat="46.255133002996445" lon="11.81196603924036">
        <ele>1440.7619999999999</ele>
        <time>2015-08-10T07:40:14Z</time>
      </trkpt>
      <trkpt lat="46.255141971632838" lon="11.811958998441696">
        <ele>1441.232</ele>
        <time>2015-08-10T07:40:15Z</time>
      </trkpt>
      <trkpt lat="46.255241967737675" lon="11.811864031478763">
        <ele>1442.126</ele>
        <time>2015-08-10T07:40:24Z</time>
      </trkpt>
      <trkpt lat="46.25535998493433" lon="11.811697985976934">
        <ele>1442.1659999999999</ele>
        <time>2015-08-10T07:40:37Z</time>
      </trkpt>
      <trkpt lat="46.255451012402773" lon="11.811553984880447">
        <ele>1442.6800000000001</ele>
        <time>2015-08-10T07:40:51Z</time>
      </trkpt>
      <trkpt lat="46.255507003515959" lon="11.811391962692142">
        <ele>1441.693</ele>
        <time>2015-08-10T07:41:03Z</time>
      </trkpt>
      <trkpt lat="46.255513960495591" lon="11.811377964913845">
        <ele>1441.6900000000001</ele>
        <time>2015-08-10T07:41:04Z</time>
      </trkpt>
      <trkpt lat="46.255667014047503" lon="11.811203034594655">
        <ele>1443.154</ele>
        <time>2015-08-10T07:41:21Z</time>
      </trkpt>
      <trkpt lat="46.255821995437145" lon="11.811034977436066">
        <ele>1443.6569999999999</ele>
        <time>2015-08-10T07:41:37Z</time>
      </trkpt>
      <trkpt lat="46.255973959341645" lon="11.810829034075141">
        <ele>1446.4000000000001</ele>
        <time>2015-08-10T07:41:55Z</time>
      </trkpt>
      <trkpt lat="46.256140004843473" lon="11.81061496026814">
        <ele>1447.9200000000001</ele>
        <time>2015-08-10T07:42:13Z</time>
      </trkpt>
      <trkpt lat="46.256281994283199" lon="11.810404993593693">
        <ele>1448.808</ele>
        <time>2015-08-10T07:42:30Z</time>
      </trkpt>
      <trkpt lat="46.256443010643125" lon="11.810197038576007">
        <ele>1448.4760000000001</ele>
        <time>2015-08-10T07:42:47Z</time>
      </trkpt>
      <trkpt lat="46.25660402700305" lon="11.809981036931276">
        <ele>1448.846</ele>
        <time>2015-08-10T07:43:04Z</time>
      </trkpt>
      <trkpt lat="46.256796978414059" lon="11.809769980609417">
        <ele>1447.46</ele>
        <time>2015-08-10T07:43:24Z</time>
      </trkpt>
      <trkpt lat="46.256809970363975" lon="11.809763023629785">
        <ele>1447.4300000000001</ele>
        <time>2015-08-10T07:43:25Z</time>
      </trkpt>
      <trkpt lat="46.256851963698864" lon="11.8097760155797">
        <ele>1446.9939999999999</ele>
        <time>2015-08-10T07:43:38Z</time>
      </trkpt>
      <trkpt lat="46.256867973133922" lon="11.809746008366346">
        <ele>1447.4269999999999</ele>
        <time>2015-08-10T07:43:40Z</time>
      </trkpt>
      <trkpt lat="46.256876019760966" lon="11.809735028073192">
        <ele>1447.434</ele>
        <time>2015-08-10T07:43:41Z</time>
      </trkpt>
      <trkpt lat="46.256881970912218" lon="11.809720024466515">
        <ele>1446.9280000000001</ele>
        <time>2015-08-10T07:43:42Z</time>
      </trkpt>
      <trkpt lat="46.25688599422574" lon="11.809702003374696">
        <ele>1446.934</ele>
        <time>2015-08-10T07:43:43Z</time>
      </trkpt>
      <trkpt lat="46.256978027522564" lon="11.809637965634465">
        <ele>1446.9549999999999</ele>
        <time>2015-08-10T07:43:59Z</time>
      </trkpt>
      <trkpt lat="46.256995964795351" lon="11.809621034190059">
        <ele>1447.4100000000001</ele>
        <time>2015-08-10T07:44:01Z</time>
      </trkpt>
      <trkpt lat="46.257007028907537" lon="11.809608964249492">
        <ele>1447.4079999999999</ele>
        <time>2015-08-10T07:44:02Z</time>
      </trkpt>
      <trkpt lat="46.257216995581985" lon="11.809473009780049">
        <ele>1448.8140000000001</ele>
        <time>2015-08-10T07:44:20Z</time>
      </trkpt>
      <trkpt lat="46.2572299875319" lon="11.809464041143656">
        <ele>1448.894</ele>
        <time>2015-08-10T07:44:21Z</time>
      </trkpt>
      <trkpt lat="46.257426040247083" lon="11.809340994805098">
        <ele>1450.3879999999999</ele>
        <time>2015-08-10T07:44:37Z</time>
      </trkpt>
      <trkpt lat="46.257604993879795" lon="11.809266982600093">
        <ele>1452.298</ele>
        <time>2015-08-10T07:44:52Z</time>
      </trkpt>
      <trkpt lat="46.257695015519857" lon="11.809240998700261">
        <ele>1452.712</ele>
        <time>2015-08-10T07:45:00Z</time>
      </trkpt>
      <trkpt lat="46.257709013298154" lon="11.809242004528642">
        <ele>1452.7550000000001</ele>
        <time>2015-08-10T07:45:01Z</time>
      </trkpt>
      <trkpt lat="46.257724016904831" lon="11.809245022013783">
        <ele>1453.252</ele>
        <time>2015-08-10T07:45:02Z</time>
      </trkpt>
      <trkpt lat="46.257944041863084" lon="11.809248039498925">
        <ele>1452.2860000000001</ele>
        <time>2015-08-10T07:45:19Z</time>
      </trkpt>
      <trkpt lat="46.25813196413219" lon="11.809248039498925">
        <ele>1449.8150000000001</ele>
        <time>2015-08-10T07:45:33Z</time>
      </trkpt>
      <trkpt lat="46.258328016847372" lon="11.809274023398757">
        <ele>1446.0650000000001</ele>
        <time>2015-08-10T07:45:47Z</time>
      </trkpt>
      <trkpt lat="46.258536977693439" lon="11.809311993420124">
        <ele>1442.1110000000001</ele>
        <time>2015-08-10T07:46:01Z</time>
      </trkpt>
      <trkpt lat="46.258548041805625" lon="11.809310987591743">
        <ele>1442.6079999999999</ele>
        <time>2015-08-10T07:46:02Z</time>
      </trkpt>
      <trkpt lat="46.258635967969894" lon="11.809277962893248">
        <ele>1442.152</ele>
        <time>2015-08-10T07:46:09Z</time>
      </trkpt>
      <trkpt lat="46.258647032082081" lon="11.809272011741996">
        <ele>1442.662</ele>
        <time>2015-08-10T07:46:10Z</time>
      </trkpt>
      <trkpt lat="46.258659018203616" lon="11.809267988428473">
        <ele>1442.6859999999999</ele>
        <time>2015-08-10T07:46:11Z</time>
      </trkpt>
      <trkpt lat="46.258832020685077" lon="11.809227000921965">
        <ele>1443.1859999999999</ele>
        <time>2015-08-10T07:46:26Z</time>
      </trkpt>
      <trkpt lat="46.259019020944834" lon="11.809089034795761">
        <ele>1451.3299999999999</ele>
        <time>2015-08-10T07:46:41Z</time>
      </trkpt>
      <trkpt lat="46.259151035919785" lon="11.808995995670557">
        <ele>1449.8130000000001</ele>
        <time>2015-08-10T07:46:56Z</time>
      </trkpt>
      <trkpt lat="46.259170984849334" lon="11.80898099206388">
        <ele>1449.8800000000001</ele>
        <time>2015-08-10T07:46:58Z</time>
      </trkpt>
      <trkpt lat="46.259223958477378" lon="11.808938998728991">
        <ele>1449.8340000000001</ele>
        <time>2015-08-10T07:47:03Z</time>
      </trkpt>
      <trkpt lat="46.259417999535799" lon="11.808848977088928">
        <ele>1449.346</ele>
        <time>2015-08-10T07:47:17Z</time>
      </trkpt>
      <trkpt lat="46.259429985657334" lon="11.808842020109296">
        <ele>1449.8879999999999</ele>
        <time>2015-08-10T07:47:18Z</time>
      </trkpt>
      <trkpt lat="46.259574992582202" lon="11.808682009577751">
        <ele>1458.0160000000001</ele>
        <time>2015-08-10T07:47:35Z</time>
      </trkpt>
      <trkpt lat="46.259739026427269" lon="11.808519987389445">
        <ele>1459.4079999999999</ele>
        <time>2015-08-10T07:47:54Z</time>
      </trkpt>
      <trkpt lat="46.259898031130433" lon="11.808371040970087">
        <ele>1461.385</ele>
        <time>2015-08-10T07:48:10Z</time>
      </trkpt>
      <trkpt lat="46.260030968114734" lon="11.808200972154737">
        <ele>1458.5650000000001</ele>
        <time>2015-08-10T07:48:25Z</time>
      </trkpt>
      <trkpt lat="46.260182010009885" lon="11.808013971894979">
        <ele>1456.1590000000001</ele>
        <time>2015-08-10T07:48:41Z</time>
      </trkpt>
      <trkpt lat="46.260271025821567" lon="11.807857984676957">
        <ele>1454.6389999999999</ele>
        <time>2015-08-10T07:48:53Z</time>
      </trkpt>
      <trkpt lat="46.260302038863301" lon="11.807668972760439">
        <ele>1456.193</ele>
        <time>2015-08-10T07:49:05Z</time>
      </trkpt>
      <trkpt lat="46.260316036641598" lon="11.807439979165792">
        <ele>1455.1859999999999</ele>
        <time>2015-08-10T07:49:19Z</time>
      </trkpt>
      <trkpt lat="46.260286029428244" lon="11.807147031649947">
        <ele>1457.0429999999999</ele>
        <time>2015-08-10T07:49:34Z</time>
      </trkpt>
      <trkpt lat="46.260284017771482" lon="11.80713202804327">
        <ele>1456.597</ele>
        <time>2015-08-10T07:49:35Z</time>
      </trkpt>
      <trkpt lat="46.260276976972818" lon="11.807027002796531">
        <ele>1454.134</ele>
        <time>2015-08-10T07:49:42Z</time>
      </trkpt>
      <trkpt lat="46.260293992236257" lon="11.807017028331757">
        <ele>1454.155</ele>
        <time>2015-08-10T07:49:43Z</time>
      </trkpt>
      <trkpt lat="46.260312013328075" lon="11.807007975876331">
        <ele>1454.1099999999999</ele>
        <time>2015-08-10T07:49:44Z</time>
      </trkpt>
      <trkpt lat="46.260302038863301" lon="11.806987021118402">
        <ele>1453.7080000000001</ele>
        <time>2015-08-10T07:49:45Z</time>
      </trkpt>
      <trkpt lat="46.260287035256624" lon="11.806672029197216">
        <ele>1454.634</ele>
        <time>2015-08-10T07:50:02Z</time>
      </trkpt>
      <trkpt lat="46.260328022763133" lon="11.806318983435631">
        <ele>1455.184</ele>
        <time>2015-08-10T07:50:23Z</time>
      </trkpt>
      <trkpt lat="46.26034202054143" lon="11.806288976222277">
        <ele>1456.528</ele>
        <time>2015-08-10T07:50:25Z</time>
      </trkpt>
      <trkpt lat="46.260344032198191" lon="11.8062739726156">
        <ele>1456.568</ele>
        <time>2015-08-10T07:50:26Z</time>
      </trkpt>
      <trkpt lat="46.260346965864301" lon="11.806262992322445">
        <ele>1456.5219999999999</ele>
        <time>2015-08-10T07:50:27Z</time>
      </trkpt>
      <trkpt lat="46.260357024148107" lon="11.806253017857671">
        <ele>1456.5150000000001</ele>
        <time>2015-08-10T07:50:28Z</time>
      </trkpt>
      <trkpt lat="46.260357024148107" lon="11.806229967623949">
        <ele>1457.5319999999999</ele>
        <time>2015-08-10T07:50:29Z</time>
      </trkpt>
      <trkpt lat="46.260392982512712" lon="11.806103987619281">
        <ele>1459.9359999999999</ele>
        <time>2015-08-10T07:50:37Z</time>
      </trkpt>
      <trkpt lat="46.260401029139757" lon="11.806094013154507">
        <ele>1459.9870000000001</ele>
        <time>2015-08-10T07:50:38Z</time>
      </trkpt>
      <trkpt lat="46.260430030524731" lon="11.806013965979218">
        <ele>1461.8420000000001</ele>
        <time>2015-08-10T07:50:43Z</time>
      </trkpt>
      <trkpt lat="46.260436987504363" lon="11.806003991514444">
        <ele>1461.826</ele>
        <time>2015-08-10T07:50:44Z</time>
      </trkpt>
      <trkpt lat="46.260561039671302" lon="11.805793019011617">
        <ele>1463.308</ele>
        <time>2015-08-10T07:51:01Z</time>
      </trkpt>
      <trkpt lat="46.26068701967597" lon="11.80558598600328">
        <ele>1464.259</ele>
        <time>2015-08-10T07:51:17Z</time>
      </trkpt>
      <trkpt lat="46.260815011337399" lon="11.805423963814974">
        <ele>1463.329</ele>
        <time>2015-08-10T07:51:31Z</time>
      </trkpt>
      <trkpt lat="46.260941997170448" lon="11.80530795827508">
        <ele>1459.913</ele>
        <time>2015-08-10T07:51:45Z</time>
      </trkpt>
      <trkpt lat="46.261107036843896" lon="11.805111989378929">
        <ele>1458.0229999999999</ele>
        <time>2015-08-10T07:51:59Z</time>
      </trkpt>
      <trkpt lat="46.261118017137051" lon="11.805086005479097">
        <ele>1457.547</ele>
        <time>2015-08-10T07:52:01Z</time>
      </trkpt>
      <trkpt lat="46.261127991601825" lon="11.805076031014323">
        <ele>1457.5899999999999</ele>
        <time>2015-08-10T07:52:02Z</time>
      </trkpt>
      <trkpt lat="46.261222036555409" lon="11.80498500354588">
        <ele>1456.1969999999999</ele>
        <time>2015-08-10T07:52:12Z</time>
      </trkpt>
      <trkpt lat="46.261253971606493" lon="11.804930018261075">
        <ele>1456.1510000000001</ele>
        <time>2015-08-10T07:52:19Z</time>
      </trkpt>
      <trkpt lat="46.261253971606493" lon="11.804915014654398">
        <ele>1455.665</ele>
        <time>2015-08-10T07:52:20Z</time>
      </trkpt>
      <trkpt lat="46.261255983263254" lon="11.80485600605607">
        <ele>1455.6679999999999</ele>
        <time>2015-08-10T07:52:24Z</time>
      </trkpt>
      <trkpt lat="46.261259000748396" lon="11.804838990792632">
        <ele>1455.614</ele>
        <time>2015-08-10T07:52:25Z</time>
      </trkpt>
      <trkpt lat="46.261320021003485" lon="11.804582001641393">
        <ele>1455.1079999999999</ele>
        <time>2015-08-10T07:52:40Z</time>
      </trkpt>
      <trkpt lat="46.261421022936702" lon="11.804331969469786">
        <ele>1457.037</ele>
        <time>2015-08-10T07:52:57Z</time>
      </trkpt>
      <trkpt lat="46.261500986292958" lon="11.804090989753604">
        <ele>1458.567</ele>
        <time>2015-08-10T07:53:12Z</time>
      </trkpt>
      <trkpt lat="46.261562006548047" lon="11.80399602279067">
        <ele>1459.961</ele>
        <time>2015-08-10T07:53:28Z</time>
      </trkpt>
      <trkpt lat="46.261596959084272" lon="11.803939025849104">
        <ele>1460.471</ele>
        <time>2015-08-10T07:53:33Z</time>
      </trkpt>
      <trkpt lat="46.261591007933021" lon="11.803919998928905">
        <ele>1460.415</ele>
        <time>2015-08-10T07:53:34Z</time>
      </trkpt>
      <trkpt lat="46.261588996276259" lon="11.803902983665466">
        <ele>1460.4780000000001</ele>
        <time>2015-08-10T07:53:35Z</time>
      </trkpt>
      <trkpt lat="46.261591007933021" lon="11.80388898588717">
        <ele>1460.4649999999999</ele>
        <time>2015-08-10T07:53:36Z</time>
      </trkpt>
      <trkpt lat="46.261595031246543" lon="11.803874988108873">
        <ele>1460.4390000000001</ele>
        <time>2015-08-10T07:53:37Z</time>
      </trkpt>
      <trkpt lat="46.261570975184441" lon="11.803689999505877">
        <ele>1462.3489999999999</ele>
        <time>2015-08-10T07:53:52Z</time>
      </trkpt>
      <trkpt lat="46.261408030986786" lon="11.803666027262807">
        <ele>1462.3019999999999</ele>
        <time>2015-08-10T07:54:07Z</time>
      </trkpt>
      <trkpt lat="46.261368971318007" lon="11.803643982857466">
        <ele>1459.922</ele>
        <time>2015-08-10T07:54:21Z</time>
      </trkpt>
      <trkpt lat="46.261369977146387" lon="11.80363099090755">
        <ele>1460.4079999999999</ele>
        <time>2015-08-10T07:54:41Z</time>
      </trkpt>
      <trkpt lat="46.261361008509994" lon="11.803641971200705">
        <ele>1464.2349999999999</ele>
        <time>2015-08-10T07:55:00Z</time>
      </trkpt>
      <trkpt lat="46.261391015723348" lon="11.803672984242439">
        <ele>1467.1949999999999</ele>
        <time>2015-08-10T07:55:38Z</time>
      </trkpt>
      <trkpt lat="46.261381963267922" lon="11.803625961765647">
        <ele>1467.6890000000001</ele>
        <time>2015-08-10T07:56:12Z</time>
      </trkpt>
      <trkpt lat="46.261339969933033" lon="11.803662003949285">
        <ele>1468.1189999999999</ele>
        <time>2015-08-10T07:56:46Z</time>
      </trkpt>
      <trkpt lat="46.261425968259573" lon="11.803665021434426">
        <ele>1463.723</ele>
        <time>2015-08-10T07:57:20Z</time>
      </trkpt>
    </trkseg>
  </trk>

  <trk>
    <name>Rifugio-Pradidali</name>
    <extensions>
      <gpxx:TrackExtension>
        <gpxx:DisplayColor>Yellow</gpxx:DisplayColor>
      </gpxx:TrackExtension>
    </extensions>
    <trkseg>
      <trkpt lat="46.244287490844727" lon="11.854333877563477">
        <ele>2276.45703125</ele>
      </trkpt>
      <trkpt lat="46.244244575500488" lon="11.854441165924072">
        <ele>2271.9453125</ele>
      </trkpt>
      <trkpt lat="46.24420166015625" lon="11.854376792907715">
        <ele>2272.0078125</ele>
      </trkpt>
      <trkpt lat="46.244180202484131" lon="11.854312419891357">
        <ele>2272.234375</ele>
      </trkpt>
      <trkpt lat="46.244223117828369" lon="11.854226589202881">
        <ele>2274.5546875</ele>
      </trkpt>
      <trkpt lat="46.244308948516846" lon="11.854140758514404">
        <ele>2277.19921875</ele>
      </trkpt>
      <trkpt lat="46.244330406188965" lon="11.854054927825928">
        <ele>2277.46484375</ele>
      </trkpt>
      <trkpt lat="46.244351863861084" lon="11.854012012481689">
        <ele>2277.58984375</ele>
      </trkpt>
      <trkpt lat="46.244437694549561" lon="11.853904724121094">
        <ele>2277.20703125</ele>
      </trkpt>
      <trkpt lat="46.244523525238037" lon="11.853861808776855">
        <ele>2276.98828125</ele>
      </trkpt>
      <trkpt lat="46.244544982910156" lon="11.853797435760498">
        <ele>2277.07421875</ele>
      </trkpt>
      <trkpt lat="46.244416236877441" lon="11.853625774383545">
        <ele>2276.43359375</ele>
      </trkpt>
      <trkpt lat="46.244308948516846" lon="11.853432655334473">
        <ele>2274.87109375</ele>
      </trkpt>
      <trkpt lat="46.244137287139893" lon="11.853325366973877">
        <ele>2275.4609375</ele>
      </trkpt>
      <trkpt lat="46.244029998779297" lon="11.853303909301758">
        <ele>2274.703125</ele>
      </trkpt>
      <trkpt lat="46.244051456451416" lon="11.85300350189209">
        <ele>2282.12109375</ele>
      </trkpt>
      <trkpt lat="46.243901252746582" lon="11.852874755859375">
        <ele>2284.2578125</ele>
      </trkpt>
      <trkpt lat="46.243858337402344" lon="11.852617263793945">
        <ele>2291.72265625</ele>
      </trkpt>
      <trkpt lat="46.243557929992676" lon="11.852381229400635">
        <ele>2294.13671875</ele>
      </trkpt>
      <trkpt lat="46.243622303009033" lon="11.852145195007324">
        <ele>2304.26171875</ele>
      </trkpt>
      <trkpt lat="46.243515014648438" lon="11.852123737335205">
        <ele>2303.54296875</ele>
      </trkpt>
      <trkpt lat="46.243429183959961" lon="11.852102279663086">
        <ele>2303.0234375</ele>
      </trkpt>
      <trkpt lat="46.243364810943604" lon="11.852059364318848">
        <ele>2303.79296875</ele>
      </trkpt>
      <trkpt lat="46.243328517302871" lon="11.851950483396649">
        <ele>2303.96875</ele>
      </trkpt>
      <trkpt lat="46.243364810943604" lon="11.852059364318848">
        <ele>2303.79296875</ele>
      </trkpt>
      <trkpt lat="46.243429183959961" lon="11.852102279663086">
        <ele>2303.0234375</ele>
      </trkpt>
      <trkpt lat="46.243515014648438" lon="11.852123737335205">
        <ele>2303.54296875</ele>
      </trkpt>
      <trkpt lat="46.243622303009033" lon="11.852037906646729">
        <ele>2308.3359375</ele>
      </trkpt>
      <trkpt lat="46.24394416809082" lon="11.85199499130249">
        <ele>2313.18359375</ele>
      </trkpt>
      <trkpt lat="46.244029998779297" lon="11.85199499130249">
        <ele>2314.21875</ele>
      </trkpt>
      <trkpt lat="46.244158744812012" lon="11.852059364318848">
        <ele>2315.59375</ele>
      </trkpt>
      <trkpt lat="46.244266033172607" lon="11.852145195007324">
        <ele>2317.6171875</ele>
      </trkpt>
      <trkpt lat="46.244373321533203" lon="11.852209568023682">
        <ele>2320.51171875</ele>
      </trkpt>
      <trkpt lat="46.244437694549561" lon="11.852295398712158">
        <ele>2321.5078125</ele>
      </trkpt>
      <trkpt lat="46.244566440582275" lon="11.852295398712158">
        <ele>2324.71484375</ele>
      </trkpt>
      <trkpt lat="46.244716644287109" lon="11.85225248336792">
        <ele>2326.01171875</ele>
      </trkpt>
      <trkpt lat="46.244802474975586" lon="11.852273941040039">
        <ele>2325.8515625</ele>
      </trkpt>
      <trkpt lat="46.244888305664063" lon="11.852338314056396">
        <ele>2324.66796875</ele>
      </trkpt>
      <trkpt lat="46.24495267868042" lon="11.852316856384277">
        <ele>2325.3203125</ele>
      </trkpt>
      <trkpt lat="46.245017051696777" lon="11.852123737335205">
        <ele>2330.625</ele>
      </trkpt>
      <trkpt lat="46.245145797729492" lon="11.851973533630371">
        <ele>2335.390625</ele>
      </trkpt>
      <trkpt lat="46.24518871307373" lon="11.85199499130249">
        <ele>2335.52734375</ele>
      </trkpt>
      <trkpt lat="46.245274543762207" lon="11.851930618286133">
        <ele>2337.48828125</ele>
      </trkpt>
      <trkpt lat="46.245296001434326" lon="11.851823329925537">
        <ele>2339.21875</ele>
      </trkpt>
      <trkpt lat="46.245338916778564" lon="11.851673126220703">
        <ele>2341.51953125</ele>
      </trkpt>
      <trkpt lat="46.245381832122803" lon="11.851651668548584">
        <ele>2341.96875</ele>
      </trkpt>
      <trkpt lat="46.245467662811279" lon="11.851651668548584">
        <ele>2343.68359375</ele>
      </trkpt>
      <trkpt lat="46.245510578155518" lon="11.851587295532227">
        <ele>2346.1953125</ele>
      </trkpt>
      <trkpt lat="46.245553493499756" lon="11.851608753204346">
        <ele>2347.890625</ele>
      </trkpt>
      <trkpt lat="46.245532035827637" lon="11.851522922515869">
        <ele>2348.41015625</ele>
      </trkpt>
      <trkpt lat="46.245489120483398" lon="11.851437091827393">
        <ele>2348.953125</ele>
      </trkpt>
      <trkpt lat="46.245574951171875" lon="11.85150146484375">
        <ele>2350.4921875</ele>
      </trkpt>
      <trkpt lat="46.245725154876709" lon="11.85150146484375">
        <ele>2356.10546875</ele>
      </trkpt>
      <trkpt lat="46.245768070220947" lon="11.851415634155273">
        <ele>2358.03125</ele>
      </trkpt>
      <trkpt lat="46.245725154876709" lon="11.851265430450439">
        <ele>2357.79296875</ele>
      </trkpt>
      <trkpt lat="46.24570369720459" lon="11.851093769073486">
        <ele>2358.89453125</ele>
      </trkpt>
      <trkpt lat="46.245725154876709" lon="11.851050853729248">
        <ele>2359.37109375</ele>
      </trkpt>
      <trkpt lat="46.245725154876709" lon="11.850836277008057">
        <ele>2361.0546875</ele>
      </trkpt>
      <trkpt lat="46.24570369720459" lon="11.850686073303223">
        <ele>2362.05078125</ele>
      </trkpt>
      <trkpt lat="46.245746612548828" lon="11.850557327270508">
        <ele>2363.4921875</ele>
      </trkpt>
      <trkpt lat="46.245832443237305" lon="11.850385665893555">
        <ele>2365.0625</ele>
      </trkpt>
      <trkpt lat="46.245896816253662" lon="11.850278377532959">
        <ele>2365.60546875</ele>
      </trkpt>
      <trkpt lat="46.245982646942139" lon="11.850192546844482">
        <ele>2368.21875</ele>
      </trkpt>
      <trkpt lat="46.246068477630615" lon="11.850042343139648">
        <ele>2371.83203125</ele>
      </trkpt>
      <trkpt lat="46.246089935302734" lon="11.849935054779053">
        <ele>2373.23046875</ele>
      </trkpt>
      <trkpt lat="46.246132850646973" lon="11.849849224090576">
        <ele>2374.625</ele>
      </trkpt>
      <trkpt lat="46.246368885040283" lon="11.849613189697266">
        <ele>2378.7734375</ele>
      </trkpt>
      <trkpt lat="46.246433258056641" lon="11.849634647369385">
        <ele>2380.68359375</ele>
      </trkpt>
      <trkpt lat="46.246540546417236" lon="11.849527359008789">
        <ele>2384.6640625</ele>
      </trkpt>
      <trkpt lat="46.246540546417236" lon="11.849462985992432">
        <ele>2385.05078125</ele>
      </trkpt>
      <trkpt lat="46.246583461761475" lon="11.849334239959717">
        <ele>2387.28125</ele>
      </trkpt>
      <trkpt lat="46.246604919433594" lon="11.849291324615479">
        <ele>2388.29296875</ele>
      </trkpt>
      <trkpt lat="46.246626377105713" lon="11.849141120910645">
        <ele>2391.32421875</ele>
      </trkpt>
      <trkpt lat="46.246604919433594" lon="11.849098205566406">
        <ele>2391.21484375</ele>
      </trkpt>
      <trkpt lat="46.246604919433594" lon="11.848711967468262">
        <ele>2397.90625</ele>
      </trkpt>
      <trkpt lat="46.246626377105713" lon="11.848626136779785">
        <ele>2400.6875</ele>
      </trkpt>
      <trkpt lat="46.246626377105713" lon="11.848368644714355">
        <ele>2405.78515625</ele>
      </trkpt>
      <trkpt lat="46.24669075012207" lon="11.84826135635376">
        <ele>2412.26171875</ele>
      </trkpt>
      <trkpt lat="46.246669292449951" lon="11.848218441009521">
        <ele>2412.48046875</ele>
      </trkpt>
      <trkpt lat="46.24669075012207" lon="11.848132610321045">
        <ele>2416.31640625</ele>
      </trkpt>
      <trkpt lat="46.246712207794189" lon="11.848068237304688">
        <ele>2419.44921875</ele>
      </trkpt>
      <trkpt lat="46.246669292449951" lon="11.847918033599854">
        <ele>2421.99609375</ele>
      </trkpt>
      <trkpt lat="46.246604919433594" lon="11.847810745239258">
        <ele>2423.29296875</ele>
      </trkpt>
      <trkpt lat="46.246583461761475" lon="11.847639083862305">
        <ele>2430.8828125</ele>
      </trkpt>
      <trkpt lat="46.246540546417236" lon="11.847596168518066">
        <ele>2431.453125</ele>
      </trkpt>
      <trkpt lat="46.246562004089355" lon="11.847531795501709">
        <ele>2435.52734375</ele>
      </trkpt>
      <trkpt lat="46.246476173400879" lon="11.847488880157471">
        <ele>2434.99609375</ele>
      </trkpt>
      <trkpt lat="46.246433258056641" lon="11.847445964813232">
        <ele>2436.08203125</ele>
      </trkpt>
      <trkpt lat="46.246476173400879" lon="11.847424507141113">
        <ele>2438.5390625</ele>
      </trkpt>
      <trkpt lat="46.246604919433594" lon="11.847338676452637">
        <ele>2444.68359375</ele>
      </trkpt>
      <trkpt lat="46.246604919433594" lon="11.847295761108398">
        <ele>2445.74609375</ele>
      </trkpt>
      <trkpt lat="46.246562004089355" lon="11.847231388092041">
        <ele>2447.390625</ele>
      </trkpt>
      <trkpt lat="46.246626377105713" lon="11.847209930419922">
        <ele>2447.765625</ele>
      </trkpt>
      <trkpt lat="46.246647834777832" lon="11.847167015075684">
        <ele>2448.421875</ele>
      </trkpt>
      <trkpt lat="46.246755123138428" lon="11.847145557403564">
        <ele>2447.15625</ele>
      </trkpt>
      <trkpt lat="46.246712207794189" lon="11.847081184387207">
        <ele>2448.27734375</ele>
      </trkpt>
      <trkpt lat="46.246626377105713" lon="11.847038269042969">
        <ele>2451.40625</ele>
      </trkpt>
      <trkpt lat="46.246604919433594" lon="11.84699535369873">
        <ele>2453.171875</ele>
      </trkpt>
      <trkpt lat="46.246669292449951" lon="11.846930980682373">
        <ele>2451.34375</ele>
      </trkpt>
      <trkpt lat="46.246675914153457" lon="11.846972974017262">
        <ele>2450.6328125</ele>
      </trkpt>
      <trkpt lat="46.246660323813558" lon="11.846939949318767">
        <ele>2451.73828125</ele>
      </trkpt>
      <trkpt lat="46.246626377105713" lon="11.846823692321777">
        <ele>2454.2109375</ele>
      </trkpt>
      <trkpt lat="46.246669292449951" lon="11.846823692321777">
        <ele>2451.796875</ele>
      </trkpt>
      <trkpt lat="46.246669292449951" lon="11.84675931930542">
        <ele>2452.0703125</ele>
      </trkpt>
      <trkpt lat="46.246776580810547" lon="11.846780776977539">
        <ele>2445.6171875</ele>
      </trkpt>
      <trkpt lat="46.246798038482666" lon="11.846823692321777">
        <ele>2444.55078125</ele>
      </trkpt>
      <trkpt lat="46.246926784515381" lon="11.846845149993896">
        <ele>2441.04296875</ele>
      </trkpt>
      <trkpt lat="46.247055530548096" lon="11.846802234649658">
        <ele>2437.2890625</ele>
      </trkpt>
      <trkpt lat="46.247141361236572" lon="11.846823692321777">
        <ele>2435.7578125</ele>
      </trkpt>
      <trkpt lat="46.247248649597168" lon="11.846737861633301">
        <ele>2430.30859375</ele>
      </trkpt>
      <trkpt lat="46.247484683990479" lon="11.846587657928467">
        <ele>2426.8125</ele>
      </trkpt>
      <trkpt lat="46.247591972351074" lon="11.846458911895752">
        <ele>2423.15625</ele>
      </trkpt>
      <trkpt lat="46.247677803039551" lon="11.846373081207275">
        <ele>2420.71484375</ele>
      </trkpt>
      <trkpt lat="46.247785091400146" lon="11.846201419830322">
        <ele>2414.08203125</ele>
      </trkpt>
      <trkpt lat="46.247849464416504" lon="11.846179962158203">
        <ele>2414.76953125</ele>
      </trkpt>
      <trkpt lat="46.247978210449219" lon="11.846051216125488">
        <ele>2411.8515625</ele>
      </trkpt>
      <trkpt lat="46.247999668121338" lon="11.845965385437012">
        <ele>2408.86328125</ele>
      </trkpt>
      <trkpt lat="46.248042583465576" lon="11.845858097076416">
        <ele>2405.4921875</ele>
      </trkpt>
      <trkpt lat="46.248300075531006" lon="11.845600605010986">
        <ele>2397.98046875</ele>
      </trkpt>
      <trkpt lat="46.248493194580078" lon="11.845450401306152">
        <ele>2395.53125</ele>
      </trkpt>
      <trkpt lat="46.248600482940674" lon="11.845343112945557">
        <ele>2391.11328125</ele>
      </trkpt>
      <trkpt lat="46.248836517333984" lon="11.845321655273438">
        <ele>2387.4609375</ele>
      </trkpt>
      <trkpt lat="46.248986721038818" lon="11.845278739929199">
        <ele>2381.42578125</ele>
      </trkpt>
      <trkpt lat="46.249244213104248" lon="11.845321655273438">
        <ele>2380.71875</ele>
      </trkpt>
      <trkpt lat="46.249351501464844" lon="11.845321655273438">
        <ele>2380.40625</ele>
      </trkpt>
      <trkpt lat="46.249394416809082" lon="11.845386028289795">
        <ele>2383.61328125</ele>
      </trkpt>
      <trkpt lat="46.249458789825439" lon="11.84525728225708">
        <ele>2376.9296875</ele>
      </trkpt>
      <trkpt lat="46.249523162841797" lon="11.845171451568604">
        <ele>2372.93359375</ele>
      </trkpt>
      <trkpt lat="46.249470859766006" lon="11.845241105183959">
        <ele>2376.140625</ele>
      </trkpt>
      <trkpt lat="46.249515367671847" lon="11.845311345532537">
        <ele>2379.44140625</ele>
      </trkpt>
      <trkpt lat="46.249470859766006" lon="11.845241105183959">
        <ele>2376.140625</ele>
      </trkpt>
      <trkpt lat="46.249523162841797" lon="11.845171451568604">
        <ele>2372.93359375</ele>
      </trkpt>
      <trkpt lat="46.249651908874512" lon="11.845064163208008">
        <ele>2372.29296875</ele>
      </trkpt>
      <trkpt lat="46.24969482421875" lon="11.844978332519531">
        <ele>2370.48828125</ele>
      </trkpt>
      <trkpt lat="46.249759197235107" lon="11.844935417175293">
        <ele>2372.7890625</ele>
      </trkpt>
      <trkpt lat="46.249802112579346" lon="11.844828128814697">
        <ele>2369.2890625</ele>
      </trkpt>
      <trkpt lat="46.249973773956299" lon="11.844677925109863">
        <ele>2371.8515625</ele>
      </trkpt>
      <trkpt lat="46.250081062316895" lon="11.844527721405029">
        <ele>2366.27734375</ele>
      </trkpt>
      <trkpt lat="46.25018835067749" lon="11.844441890716553">
        <ele>2367.59375</ele>
      </trkpt>
      <trkpt lat="46.250295639038086" lon="11.844227313995361">
        <ele>2353.8359375</ele>
      </trkpt>
      <trkpt lat="46.250531673431396" lon="11.844055652618408">
        <ele>2351.32421875</ele>
      </trkpt>
      <trkpt lat="46.250596046447754" lon="11.84401273727417">
        <ele>2345.94140625</ele>
      </trkpt>
      <trkpt lat="46.250617504119873" lon="11.843862533569336">
        <ele>2328.94140625</ele>
      </trkpt>
      <trkpt lat="46.25068187713623" lon="11.843819618225098">
        <ele>2325.6640625</ele>
      </trkpt>
      <trkpt lat="46.250767707824707" lon="11.843883991241455">
        <ele>2333.78515625</ele>
      </trkpt>
      <trkpt lat="46.250832080841064" lon="11.843819618225098">
        <ele>2329.34765625</ele>
      </trkpt>
      <trkpt lat="46.250960826873779" lon="11.843883991241455">
        <ele>2336.89453125</ele>
      </trkpt>
      <trkpt lat="46.251068115234375" lon="11.843798160552979">
        <ele>2329.6484375</ele>
      </trkpt>
      <trkpt lat="46.251175403594971" lon="11.84375524520874">
        <ele>2324.8828125</ele>
      </trkpt>
      <trkpt lat="46.251368522644043" lon="11.843798160552979">
        <ele>2321.96875</ele>
      </trkpt>
      <trkpt lat="46.251540184020996" lon="11.843991279602051">
        <ele>2323.22265625</ele>
      </trkpt>
      <trkpt lat="46.251626014709473" lon="11.84401273727417">
        <ele>2322.88671875</ele>
      </trkpt>
      <trkpt lat="46.251668930053711" lon="11.843991279602051">
        <ele>2322</ele>
      </trkpt>
      <trkpt lat="46.251733303070068" lon="11.844055652618408">
        <ele>2322.86328125</ele>
      </trkpt>
      <trkpt lat="46.251926422119141" lon="11.843991279602051">
        <ele>2319.640625</ele>
      </trkpt>
      <trkpt lat="46.251969337463379" lon="11.843926906585693">
        <ele>2317.828125</ele>
      </trkpt>
      <trkpt lat="46.251990795135498" lon="11.843883991241455">
        <ele>2316.5703125</ele>
      </trkpt>
      <trkpt lat="46.252119541168213" lon="11.843841075897217">
        <ele>2314.32421875</ele>
      </trkpt>
      <trkpt lat="46.252119541168213" lon="11.843798160552979">
        <ele>2313.01171875</ele>
      </trkpt>
      <trkpt lat="46.252140998840332" lon="11.843733787536621">
        <ele>2310.78125</ele>
      </trkpt>
      <trkpt lat="46.252291202545166" lon="11.843733787536621">
        <ele>2308.953125</ele>
      </trkpt>
      <trkpt lat="46.252462863922119" lon="11.843776702880859">
        <ele>2308.953125</ele>
      </trkpt>
      <trkpt lat="46.252677440643311" lon="11.84375524520874">
        <ele>2306.61328125</ele>
      </trkpt>
      <trkpt lat="46.252763271331787" lon="11.843733787536621">
        <ele>2305.28515625</ele>
      </trkpt>
      <trkpt lat="46.253042221069336" lon="11.84375524520874">
        <ele>2304.1484375</ele>
      </trkpt>
      <trkpt lat="46.25319242477417" lon="11.843733787536621">
        <ele>2302.4765625</ele>
      </trkpt>
      <trkpt lat="46.253256797790527" lon="11.843690872192383">
        <ele>2300.77734375</ele>
      </trkpt>
      <trkpt lat="46.253342628479004" lon="11.843605041503906">
        <ele>2299.43359375</ele>
      </trkpt>
      <trkpt lat="46.253407001495361" lon="11.843583583831787">
        <ele>2300.66015625</ele>
      </trkpt>
      <trkpt lat="46.253471374511719" lon="11.843540668487549">
        <ele>2301.51171875</ele>
      </trkpt>
      <trkpt lat="46.253535747528076" lon="11.843433380126953">
        <ele>2301.2734375</ele>
      </trkpt>
      <trkpt lat="46.253600120544434" lon="11.843283176422119">
        <ele>2300.671875</ele>
      </trkpt>
      <trkpt lat="46.253537843003869" lon="11.843428434804082">
        <ele>2301.24609375</ele>
      </trkpt>
      <trkpt lat="46.253537843003869" lon="11.843428434804082">
        <ele>2301.24609375</ele>
      </trkpt>
      <trkpt lat="46.253600120544434" lon="11.843283176422119">
        <ele>2300.671875</ele>
      </trkpt>
      <trkpt lat="46.253578662872314" lon="11.843025684356689">
        <ele>2295.71875</ele>
      </trkpt>
      <trkpt lat="46.253514289855957" lon="11.842875480651855">
        <ele>2290.28515625</ele>
      </trkpt>
      <trkpt lat="46.253492832183838" lon="11.842746734619141">
        <ele>2286.71484375</ele>
      </trkpt>
      <trkpt lat="46.253492832183838" lon="11.842617988586426">
        <ele>2283.6796875</ele>
      </trkpt>
      <trkpt lat="46.253557205200195" lon="11.842381954193115">
        <ele>2281.9140625</ele>
      </trkpt>
      <trkpt lat="46.253643035888672" lon="11.842124462127686">
        <ele>2280.0859375</ele>
      </trkpt>
      <trkpt lat="46.253707408905029" lon="11.841995716094971">
        <ele>2281.5390625</ele>
      </trkpt>
      <trkpt lat="46.253814697265625" lon="11.841824054718018">
        <ele>2280.6328125</ele>
      </trkpt>
      <trkpt lat="46.253879070281982" lon="11.841802597045898">
        <ele>2279.66796875</ele>
      </trkpt>
      <trkpt lat="46.254050731658936" lon="11.841802597045898">
        <ele>2282.64453125</ele>
      </trkpt>
      <trkpt lat="46.254093647003174" lon="11.841781139373779">
        <ele>2281.08203125</ele>
      </trkpt>
      <trkpt lat="46.25417947769165" lon="11.841802597045898">
        <ele>2284.87890625</ele>
      </trkpt>
      <trkpt lat="46.254265308380127" lon="11.84175968170166">
        <ele>2280.48828125</ele>
      </trkpt>
      <trkpt lat="46.254394054412842" lon="11.841802597045898">
        <ele>2283.546875</ele>
      </trkpt>
      <trkpt lat="46.254479885101318" lon="11.841888427734375">
        <ele>2288.734375</ele>
      </trkpt>
      <trkpt lat="46.254608631134033" lon="11.841931343078613">
        <ele>2288.46875</ele>
      </trkpt>
      <trkpt lat="46.254801750183105" lon="11.841974258422852">
        <ele>2285.35546875</ele>
      </trkpt>
      <trkpt lat="46.254909038543701" lon="11.842038631439209">
        <ele>2284.69140625</ele>
      </trkpt>
      <trkpt lat="46.254951953887939" lon="11.842145919799805">
        <ele>2288.2421875</ele>
      </trkpt>
      <trkpt lat="46.255080699920654" lon="11.842210292816162">
        <ele>2287.00390625</ele>
      </trkpt>
      <trkpt lat="46.25518798828125" lon="11.842231750488281">
        <ele>2284.734375</ele>
      </trkpt>
      <trkpt lat="46.255230903625488" lon="11.842296123504639">
        <ele>2286.56640625</ele>
      </trkpt>
      <trkpt lat="46.255316734313965" lon="11.842296123504639">
        <ele>2284.1953125</ele>
      </trkpt>
      <trkpt lat="46.25568151473999" lon="11.842446327209473">
        <ele>2283.828125</ele>
      </trkpt>
      <trkpt lat="46.255665086209774" lon="11.842521177604795">
        <ele>2288.75</ele>
      </trkpt>
      <trkpt lat="46.255694758147001" lon="11.842459486797452">
        <ele>2284.375</ele>
      </trkpt>
      <trkpt lat="46.255316734313965" lon="11.842296123504639">
        <ele>2284.1953125</ele>
      </trkpt>
      <trkpt lat="46.25544548034668" lon="11.842210292816162">
        <ele>2277.03125</ele>
      </trkpt>
      <trkpt lat="46.255531311035156" lon="11.842124462127686">
        <ele>2271.328125</ele>
      </trkpt>
      <trkpt lat="46.255509853363037" lon="11.842038631439209">
        <ele>2268.34765625</ele>
      </trkpt>
      <trkpt lat="46.255381107330322" lon="11.841888427734375">
        <ele>2264.7890625</ele>
      </trkpt>
      <trkpt lat="46.255209445953369" lon="11.841802597045898">
        <ele>2264.84375</ele>
      </trkpt>
      <trkpt lat="46.255016326904297" lon="11.841609477996826">
        <ele>2260.81640625</ele>
      </trkpt>
      <trkpt lat="46.254866123199463" lon="11.841588020324707">
        <ele>2261.76171875</ele>
      </trkpt>
      <trkpt lat="46.255123615264893" lon="11.841609477996826">
        <ele>2259.23046875</ele>
      </trkpt>
      <trkpt lat="46.255080699920654" lon="11.841545104980469">
        <ele>2257.14453125</ele>
      </trkpt>
      <trkpt lat="46.254994869232178" lon="11.84152364730835">
        <ele>2256.91796875</ele>
      </trkpt>
      <trkpt lat="46.254951953887939" lon="11.841480731964111">
        <ele>2255.0078125</ele>
      </trkpt>
      <trkpt lat="46.255123615264893" lon="11.841437816619873">
        <ele>2252.55859375</ele>
      </trkpt>
      <trkpt lat="46.255166530609131" lon="11.841437816619873">
        <ele>2252.33984375</ele>
      </trkpt>
      <trkpt lat="46.255102157592773" lon="11.841330528259277">
        <ele>2248.49609375</ele>
      </trkpt>
      <trkpt lat="46.25493049621582" lon="11.84126615524292">
        <ele>2245.87890625</ele>
      </trkpt>
      <trkpt lat="46.255102157592773" lon="11.841287612915039">
        <ele>2246.9296875</ele>
      </trkpt>
      <trkpt lat="46.25518798828125" lon="11.841287612915039">
        <ele>2246.56640625</ele>
      </trkpt>
      <trkpt lat="46.25518798828125" lon="11.841244697570801">
        <ele>2244.97265625</ele>
      </trkpt>
      <trkpt lat="46.254973411560059" lon="11.841094493865967">
        <ele>2239.78125</ele>
      </trkpt>
      <trkpt lat="46.254758834838867" lon="11.841158866882324">
        <ele>2241.8671875</ele>
      </trkpt>
      <trkpt lat="46.254909038543701" lon="11.84100866317749">
        <ele>2236.67578125</ele>
      </trkpt>
      <trkpt lat="46.255080699920654" lon="11.841030120849609">
        <ele>2237.515625</ele>
      </trkpt>
      <trkpt lat="46.255273818969727" lon="11.841094493865967">
        <ele>2238.23046875</ele>
      </trkpt>
      <trkpt lat="46.255123615264893" lon="11.840944290161133">
        <ele>2234.39453125</ele>
      </trkpt>
      <trkpt lat="46.254973411560059" lon="11.840858459472656">
        <ele>2230.4765625</ele>
      </trkpt>
      <trkpt lat="46.254758834838867" lon="11.840837001800537">
        <ele>2230.05078125</ele>
      </trkpt>
      <trkpt lat="46.254565715789795" lon="11.841051578521729">
        <ele>2233.67578125</ele>
      </trkpt>
      <trkpt lat="46.25469446182251" lon="11.840815544128418">
        <ele>2229.38671875</ele>
      </trkpt>
      <trkpt lat="46.254823207855225" lon="11.840708255767822">
        <ele>2224.37890625</ele>
      </trkpt>
      <trkpt lat="46.25469446182251" lon="11.840729713439941">
        <ele>2226.03125</ele>
      </trkpt>
      <trkpt lat="46.254866123199463" lon="11.840643882751465">
        <ele>2221.28125</ele>
      </trkpt>
      <trkpt lat="46.25469446182251" lon="11.840579509735107">
        <ele>2220.16015625</ele>
      </trkpt>
      <trkpt lat="46.254866123199463" lon="11.840558052062988">
        <ele>2217.515625</ele>
      </trkpt>
      <trkpt lat="46.255059242248535" lon="11.840558052062988">
        <ele>2215.48046875</ele>
      </trkpt>
      <trkpt lat="46.255252361297607" lon="11.840622425079346">
        <ele>2217.20703125</ele>
      </trkpt>
      <trkpt lat="46.255359649658203" lon="11.840600967407227">
        <ele>2215.53125</ele>
      </trkpt>
      <trkpt lat="46.255488395690918" lon="11.840472221374512">
        <ele>2209.32421875</ele>
      </trkpt>
      <trkpt lat="46.255488395690918" lon="11.840429306030273">
        <ele>2206.87109375</ele>
      </trkpt>
      <trkpt lat="46.255466938018799" lon="11.840386390686035">
        <ele>2204.35546875</ele>
      </trkpt>
      <trkpt lat="46.255359649658203" lon="11.840343475341797">
        <ele>2201.4296875</ele>
      </trkpt>
      <trkpt lat="46.255359649658203" lon="11.840300559997559">
        <ele>2198.6953125</ele>
      </trkpt>
      <trkpt lat="46.25544548034668" lon="11.84025764465332">
        <ele>2196.6328125</ele>
      </trkpt>
      <trkpt lat="46.255552768707275" lon="11.840236186981201">
        <ele>2196.29296875</ele>
      </trkpt>
      <trkpt lat="46.255724430084229" lon="11.840150356292725">
        <ele>2198.8515625</ele>
      </trkpt>
      <trkpt lat="46.255552768707275" lon="11.840150356292725">
        <ele>2191.6015625</ele>
      </trkpt>
      <trkpt lat="46.25568151473999" lon="11.840064525604248">
        <ele>2192.17578125</ele>
      </trkpt>
      <trkpt lat="46.255402565002441" lon="11.840064525604248">
        <ele>2184.37890625</ele>
      </trkpt>
      <trkpt lat="46.255316734313965" lon="11.840085983276367">
        <ele>2184.34765625</ele>
      </trkpt>
      <trkpt lat="46.255252361297607" lon="11.840085983276367">
        <ele>2183.328125</ele>
      </trkpt>
      <trkpt lat="46.25518798828125" lon="11.840064525604248">
        <ele>2180.76953125</ele>
      </trkpt>
      <trkpt lat="46.255102157592773" lon="11.840064525604248">
        <ele>2181.95703125</ele>
      </trkpt>
      <trkpt lat="46.255016326904297" lon="11.84002161026001">
        <ele>2182.3828125</ele>
      </trkpt>
      <trkpt lat="46.254951953887939" lon="11.84002161026001">
        <ele>2184.97265625</ele>
      </trkpt>
      <trkpt lat="46.254887580871582" lon="11.840000152587891">
        <ele>2186.23828125</ele>
      </trkpt>
      <trkpt lat="46.255016326904297" lon="11.839914321899414">
        <ele>2175.8125</ele>
      </trkpt>
      <trkpt lat="46.254994869232178" lon="11.839871406555176">
        <ele>2173.90234375</ele>
      </trkpt>
      <trkpt lat="46.254887580871582" lon="11.839871406555176">
        <ele>2177.34765625</ele>
      </trkpt>
      <trkpt lat="46.254844665527344" lon="11.839849948883057">
        <ele>2177.18359375</ele>
      </trkpt>
      <trkpt lat="46.254887580871582" lon="11.839807033538818">
        <ele>2172.90234375</ele>
      </trkpt>
      <trkpt lat="46.255037784576416" lon="11.83976411819458">
        <ele>2166.16796875</ele>
      </trkpt>
      <trkpt lat="46.254801750183105" lon="11.839742660522461">
        <ele>2170.48828125</ele>
      </trkpt>
      <trkpt lat="46.255037784576416" lon="11.839656829833984">
        <ele>2159.8125</ele>
      </trkpt>
      <trkpt lat="46.254780292510986" lon="11.839635372161865">
        <ele>2162.8359375</ele>
      </trkpt>
      <trkpt lat="46.254887580871582" lon="11.839592456817627">
        <ele>2158.08203125</ele>
      </trkpt>
      <trkpt lat="46.255016326904297" lon="11.83950662612915">
        <ele>2151.64453125</ele>
      </trkpt>
      <trkpt lat="46.254823207855225" lon="11.83952808380127">
        <ele>2154.5390625</ele>
      </trkpt>
      <trkpt lat="46.254780292510986" lon="11.83950662612915">
        <ele>2153.6796875</ele>
      </trkpt>
      <trkpt lat="46.254823207855225" lon="11.83950662612915">
        <ele>2153.30859375</ele>
      </trkpt>
      <trkpt lat="46.254973411560059" lon="11.839463710784912">
        <ele>2149.91796875</ele>
      </trkpt>
      <trkpt lat="46.255059242248535" lon="11.839399337768555">
        <ele>2146.55078125</ele>
      </trkpt>
      <trkpt lat="46.255102157592773" lon="11.839399337768555">
        <ele>2146.4375</ele>
      </trkpt>
      <trkpt lat="46.255059242248535" lon="11.839399337768555">
        <ele>2146.55078125</ele>
      </trkpt>
      <trkpt lat="46.255016326904297" lon="11.839399337768555">
        <ele>2146.6640625</ele>
      </trkpt>
      <trkpt lat="46.254866123199463" lon="11.839377880096436">
        <ele>2145.87890625</ele>
      </trkpt>
      <trkpt lat="46.254823207855225" lon="11.839377880096436">
        <ele>2145.94140625</ele>
      </trkpt>
      <trkpt lat="46.254866123199463" lon="11.839334964752197">
        <ele>2143.5234375</ele>
      </trkpt>
      <trkpt lat="46.25493049621582" lon="11.839313507080078">
        <ele>2142.4921875</ele>
      </trkpt>
      <trkpt lat="46.255080699920654" lon="11.839249134063721">
        <ele>2140.0625</ele>
      </trkpt>
      <trkpt lat="46.255037784576416" lon="11.839227676391602">
        <ele>2138.84375</ele>
      </trkpt>
      <trkpt lat="46.254823207855225" lon="11.839227676391602">
        <ele>2137.33984375</ele>
      </trkpt>
      <trkpt lat="46.254994869232178" lon="11.839120388031006">
        <ele>2133.43359375</ele>
      </trkpt>
      <trkpt lat="46.255080699920654" lon="11.839077472686768">
        <ele>2132.72265625</ele>
      </trkpt>
      <trkpt lat="46.255145072937012" lon="11.839077472686768">
        <ele>2133.7109375</ele>
      </trkpt>
      <trkpt lat="46.255102157592773" lon="11.839056015014648">
        <ele>2132.18359375</ele>
      </trkpt>
      <trkpt lat="46.254951953887939" lon="11.839056015014648">
        <ele>2129.78125</ele>
      </trkpt>
      <trkpt lat="46.254844665527344" lon="11.839034557342529">
        <ele>2127.01171875</ele>
      </trkpt>
      <trkpt lat="46.254823207855225" lon="11.83901309967041">
        <ele>2125.58984375</ele>
      </trkpt>
      <trkpt lat="46.254994869232178" lon="11.838948726654053">
        <ele>2125.74609375</ele>
      </trkpt>
      <trkpt lat="46.255102157592773" lon="11.838884353637695">
        <ele>2125.234375</ele>
      </trkpt>
      <trkpt lat="46.255102157592773" lon="11.838841438293457">
        <ele>2123.49609375</ele>
      </trkpt>
      <trkpt lat="46.254994869232178" lon="11.838841438293457">
        <ele>2121.02734375</ele>
      </trkpt>
      <trkpt lat="46.254866123199463" lon="11.838884353637695">
        <ele>2120.1328125</ele>
      </trkpt>
      <trkpt lat="46.254780292510986" lon="11.838862895965576">
        <ele>2117.1796875</ele>
      </trkpt>
      <trkpt lat="46.254994869232178" lon="11.83875560760498">
        <ele>2117.25</ele>
      </trkpt>
      <trkpt lat="46.255037784576416" lon="11.83875560760498">
        <ele>2118.359375</ele>
      </trkpt>
      <trkpt lat="46.255123615264893" lon="11.838691234588623">
        <ele>2118.015625</ele>
      </trkpt>
      <trkpt lat="46.255166530609131" lon="11.838691234588623">
        <ele>2118.58203125</ele>
      </trkpt>
      <trkpt lat="46.255230903625488" lon="11.838712692260742">
        <ele>2118.66015625</ele>
      </trkpt>
      <trkpt lat="46.255338191986084" lon="11.83875560760498">
        <ele>2119.00390625</ele>
      </trkpt>
      <trkpt lat="46.255466938018799" lon="11.83875560760498">
        <ele>2117.44921875</ele>
      </trkpt>
      <trkpt lat="46.255638599395752" lon="11.838583946228027">
        <ele>2112.51953125</ele>
      </trkpt>
      <trkpt lat="46.255595684051514" lon="11.838583946228027">
        <ele>2110.3203125</ele>
      </trkpt>
      <trkpt lat="46.255617141723633" lon="11.838541030883789">
        <ele>2109.66015625</ele>
      </trkpt>
      <trkpt lat="46.255574226379395" lon="11.838583946228027">
        <ele>2110.4453125</ele>
      </trkpt>
      <trkpt lat="46.255595684051514" lon="11.83851957321167">
        <ele>2108.77734375</ele>
      </trkpt>
      <trkpt lat="46.255531311035156" lon="11.838412284851074">
        <ele>2105.0859375</ele>
      </trkpt>
      <trkpt lat="46.255595684051514" lon="11.838347911834717">
        <ele>2104.66015625</ele>
      </trkpt>
      <trkpt lat="46.255595684051514" lon="11.838219165802002">
        <ele>2101.57421875</ele>
      </trkpt>
      <trkpt lat="46.255638599395752" lon="11.838090419769287">
        <ele>2101.5234375</ele>
      </trkpt>
      <trkpt lat="46.255724430084229" lon="11.837918758392334">
        <ele>2105.51171875</ele>
      </trkpt>
      <trkpt lat="46.255788803100586" lon="11.837575435638428">
        <ele>2102.2890625</ele>
      </trkpt>
      <trkpt lat="46.255745887756348" lon="11.83727502822876">
        <ele>2089.234375</ele>
      </trkpt>
      <trkpt lat="46.255724430084229" lon="11.837403774261475">
        <ele>2090.60546875</ele>
      </trkpt>
      <trkpt lat="46.255745887756348" lon="11.837489604949951">
        <ele>2095.13671875</ele>
      </trkpt>
      <trkpt lat="46.25568151473999" lon="11.837725639343262">
        <ele>2094.15625</ele>
      </trkpt>
      <trkpt lat="46.25568151473999" lon="11.837596893310547">
        <ele>2090.8203125</ele>
      </trkpt>
      <trkpt lat="46.255660057067871" lon="11.837446689605713">
        <ele>2085.046875</ele>
      </trkpt>
      <trkpt lat="46.255638599395752" lon="11.837339401245117">
        <ele>2080.56640625</ele>
      </trkpt>
      <trkpt lat="46.255638599395752" lon="11.837553977966309">
        <ele>2085.07421875</ele>
      </trkpt>
      <trkpt lat="46.255595684051514" lon="11.837596893310547">
        <ele>2082.15625</ele>
      </trkpt>
      <trkpt lat="46.255552768707275" lon="11.837596893310547">
        <ele>2079.84375</ele>
      </trkpt>
      <trkpt lat="46.255509853363037" lon="11.837553977966309">
        <ele>2076.796875</ele>
      </trkpt>
      <trkpt lat="46.255509853363037" lon="11.837489604949951">
        <ele>2075.69921875</ele>
      </trkpt>
      <trkpt lat="46.255381107330322" lon="11.837682723999023">
        <ele>2071.79296875</ele>
      </trkpt>
      <trkpt lat="46.255381107330322" lon="11.837553977966309">
        <ele>2069.98828125</ele>
      </trkpt>
      <trkpt lat="46.255424022674561" lon="11.837446689605713">
        <ele>2070.64453125</ele>
      </trkpt>
      <trkpt lat="46.255295276641846" lon="11.837596893310547">
        <ele>2065.9609375</ele>
      </trkpt>
      <trkpt lat="46.255338191986084" lon="11.837382316589355">
        <ele>2065.48046875</ele>
      </trkpt>
      <trkpt lat="46.255402565002441" lon="11.837317943572998">
        <ele>2067.69140625</ele>
      </trkpt>
      <trkpt lat="46.25544548034668" lon="11.837210655212402">
        <ele>2067.71875</ele>
      </trkpt>
      <trkpt lat="46.255381107330322" lon="11.837167739868164">
        <ele>2063.8046875</ele>
      </trkpt>
      <trkpt lat="46.255381107330322" lon="11.837038993835449">
        <ele>2060.47265625</ele>
      </trkpt>
      <trkpt lat="46.255424022674561" lon="11.836953163146973">
        <ele>2059.19140625</ele>
      </trkpt>
      <trkpt lat="46.255509853363037" lon="11.836824417114258">
        <ele>2056.34765625</ele>
      </trkpt>
      <trkpt lat="46.255552768707275" lon="11.836674213409424">
        <ele>2052.91796875</ele>
      </trkpt>
      <trkpt lat="46.255552768707275" lon="11.836631298065186">
        <ele>2052.15625</ele>
      </trkpt>
      <trkpt lat="46.255466938018799" lon="11.836609840393066">
        <ele>2051.6015625</ele>
      </trkpt>
      <trkpt lat="46.255466938018799" lon="11.836545467376709">
        <ele>2050.61328125</ele>
      </trkpt>
      <trkpt lat="46.255531311035156" lon="11.836481094360352">
        <ele>2049.5234375</ele>
      </trkpt>
      <trkpt lat="46.255574226379395" lon="11.836459636688232">
        <ele>2049.05859375</ele>
      </trkpt>
      <trkpt lat="46.255702972412109" lon="11.836352348327637">
        <ele>2048.0078125</ele>
      </trkpt>
      <trkpt lat="46.255767345428467" lon="11.836309432983398">
        <ele>2047.421875</ele>
      </trkpt>
      <trkpt lat="46.255874633789063" lon="11.83626651763916">
        <ele>2046.49609375</ele>
      </trkpt>
      <trkpt lat="46.256003379821777" lon="11.836137771606445">
        <ele>2042.26171875</ele>
      </trkpt>
      <trkpt lat="46.256067752838135" lon="11.836051940917969">
        <ele>2039.4375</ele>
      </trkpt>
      <trkpt lat="46.256153583526611" lon="11.835901737213135">
        <ele>2037.65234375</ele>
      </trkpt>
      <trkpt lat="46.25593900680542" lon="11.836051940917969">
        <ele>2037.86328125</ele>
      </trkpt>
      <trkpt lat="46.256110668182373" lon="11.835794448852539">
        <ele>2030.59765625</ele>
      </trkpt>
      <trkpt lat="46.25619649887085" lon="11.835558414459229">
        <ele>2024.52734375</ele>
      </trkpt>
      <trkpt lat="46.255960464477539" lon="11.835858821868896">
        <ele>2029.8828125</ele>
      </trkpt>
      <trkpt lat="46.255917549133301" lon="11.835901737213135">
        <ele>2031.1015625</ele>
      </trkpt>
      <trkpt lat="46.256003379821777" lon="11.835644245147705">
        <ele>2020.68359375</ele>
      </trkpt>
      <trkpt lat="46.256067752838135" lon="11.83551549911499">
        <ele>2017.19921875</ele>
      </trkpt>
      <trkpt lat="46.256132125854492" lon="11.835429668426514">
        <ele>2016.33203125</ele>
      </trkpt>
      <trkpt lat="46.256110668182373" lon="11.835365295410156">
        <ele>2013.2265625</ele>
      </trkpt>
      <trkpt lat="46.256067752838135" lon="11.835386753082275">
        <ele>2011.83984375</ele>
      </trkpt>
      <trkpt lat="46.256024837493896" lon="11.835429668426514">
        <ele>2011.73046875</ele>
      </trkpt>
      <trkpt lat="46.255960464477539" lon="11.835494041442871">
        <ele>2012.05078125</ele>
      </trkpt>
      <trkpt lat="46.255853176116943" lon="11.835536956787109">
        <ele>2010.23046875</ele>
      </trkpt>
      <trkpt lat="46.255960464477539" lon="11.835408210754395">
        <ele>2007.8359375</ele>
      </trkpt>
      <trkpt lat="46.255810260772705" lon="11.83551549911499">
        <ele>2007.375</ele>
      </trkpt>
      <trkpt lat="46.255896091461182" lon="11.835386753082275">
        <ele>2003.7421875</ele>
      </trkpt>
      <trkpt lat="46.255917549133301" lon="11.83527946472168">
        <ele>2002.3984375</ele>
      </trkpt>
      <trkpt lat="46.255981922149658" lon="11.835193634033203">
        <ele>2004.27734375</ele>
      </trkpt>
      <trkpt lat="46.256024837493896" lon="11.835107803344727">
        <ele>2005.37890625</ele>
      </trkpt>
      <trkpt lat="46.255917549133301" lon="11.835215091705322">
        <ele>2001.08984375</ele>
      </trkpt>
      <trkpt lat="46.255960464477539" lon="11.835086345672607">
        <ele>2001.1015625</ele>
      </trkpt>
      <trkpt lat="46.255896091461182" lon="11.835150718688965">
        <ele>1998.52734375</ele>
      </trkpt>
      <trkpt lat="46.255874633789063" lon="11.835215091705322">
        <ele>1998.71484375</ele>
      </trkpt>
      <trkpt lat="46.255831718444824" lon="11.835236549377441">
        <ele>1996.86328125</ele>
      </trkpt>
      <trkpt lat="46.255917549133301" lon="11.835043430328369">
        <ele>1997.59375</ele>
      </trkpt>
      <trkpt lat="46.255960464477539" lon="11.834936141967773">
        <ele>1998.34375</ele>
      </trkpt>
      <trkpt lat="46.255896091461182" lon="11.835043430328369">
        <ele>1996.234375</ele>
      </trkpt>
      <trkpt lat="46.255853176116943" lon="11.835043430328369">
        <ele>1993.515625</ele>
      </trkpt>
      <trkpt lat="46.255810260772705" lon="11.835107803344727">
        <ele>1992.43359375</ele>
      </trkpt>
      <trkpt lat="46.255896091461182" lon="11.834828853607178">
        <ele>1991.08984375</ele>
      </trkpt>
      <trkpt lat="46.255896091461182" lon="11.834785938262939">
        <ele>1989.90625</ele>
      </trkpt>
      <trkpt lat="46.255874633789063" lon="11.83476448059082">
        <ele>1987.5234375</ele>
      </trkpt>
      <trkpt lat="46.255874633789063" lon="11.834807395935059">
        <ele>1988.79296875</ele>
      </trkpt>
      <trkpt lat="46.255767345428467" lon="11.834957599639893">
        <ele>1985.73046875</ele>
      </trkpt>
      <trkpt lat="46.255831718444824" lon="11.834785938262939">
        <ele>1984.65625</ele>
      </trkpt>
      <trkpt lat="46.255788803100586" lon="11.834785938262939">
        <ele>1981.15625</ele>
      </trkpt>
      <trkpt lat="46.255702972412109" lon="11.834871768951416">
        <ele>1978.07421875</ele>
      </trkpt>
      <trkpt lat="46.25568151473999" lon="11.834979057312012">
        <ele>1980.625</ele>
      </trkpt>
      <trkpt lat="46.255660057067871" lon="11.834936141967773">
        <ele>1977.8125</ele>
      </trkpt>
      <trkpt lat="46.255767345428467" lon="11.834657192230225">
        <ele>1974.3046875</ele>
      </trkpt>
      <trkpt lat="46.255745887756348" lon="11.834635734558105">
        <ele>1971.40234375</ele>
      </trkpt>
      <trkpt lat="46.255702972412109" lon="11.834721565246582">
        <ele>1971.21875</ele>
      </trkpt>
      <trkpt lat="46.255638599395752" lon="11.834743022918701">
        <ele>1966.6875</ele>
      </trkpt>
      <trkpt lat="46.255617141723633" lon="11.834807395935059">
        <ele>1968.3046875</ele>
      </trkpt>
      <trkpt lat="46.255595684051514" lon="11.83476448059082">
        <ele>1965.17578125</ele>
      </trkpt>
      <trkpt lat="46.255617141723633" lon="11.834657192230225">
        <ele>1960.24609375</ele>
      </trkpt>
      <trkpt lat="46.255552768707275" lon="11.834828853607178">
        <ele>1967.50390625</ele>
      </trkpt>
      <trkpt lat="46.255531311035156" lon="11.83476448059082">
        <ele>1963.3671875</ele>
      </trkpt>
      <trkpt lat="46.255574226379395" lon="11.834635734558105">
        <ele>1957.546875</ele>
      </trkpt>
      <trkpt lat="46.255617141723633" lon="11.834614276885986">
        <ele>1957.9453125</ele>
      </trkpt>
      <trkpt lat="46.25568151473999" lon="11.834571361541748">
        <ele>1962.18359375</ele>
      </trkpt>
      <trkpt lat="46.255702972412109" lon="11.834485530853271">
        <ele>1960.4453125</ele>
      </trkpt>
      <trkpt lat="46.255745887756348" lon="11.834421157836914">
        <ele>1959.90625</ele>
      </trkpt>
      <trkpt lat="46.255767345428467" lon="11.834335327148438">
        <ele>1952.6796875</ele>
      </trkpt>
      <trkpt lat="46.255788803100586" lon="11.834142208099365">
        <ele>1933.87890625</ele>
      </trkpt>
      <trkpt lat="46.255831718444824" lon="11.834077835083008">
        <ele>1933.06640625</ele>
      </trkpt>
      <trkpt lat="46.255874633789063" lon="11.83403491973877">
        <ele>1934.98046875</ele>
      </trkpt>
      <trkpt lat="46.25593900680542" lon="11.833992004394531">
        <ele>1940.62109375</ele>
      </trkpt>
      <trkpt lat="46.256046295166016" lon="11.833927631378174">
        <ele>1952.51953125</ele>
      </trkpt>
      <trkpt lat="46.255896091461182" lon="11.833949089050293">
        <ele>1931.0234375</ele>
      </trkpt>
      <trkpt lat="46.255896091461182" lon="11.833927631378174">
        <ele>1929.55859375</ele>
      </trkpt>
      <trkpt lat="46.25593900680542" lon="11.833927631378174">
        <ele>1936.12109375</ele>
      </trkpt>
      <trkpt lat="46.256024837493896" lon="11.833884716033936">
        <ele>1946.0859375</ele>
      </trkpt>
      <trkpt lat="46.256153583526611" lon="11.833884716033936">
        <ele>1952.63671875</ele>
      </trkpt>
      <trkpt lat="46.25619649887085" lon="11.833863258361816">
        <ele>1950.4375</ele>
      </trkpt>
      <trkpt lat="46.256260871887207" lon="11.833820343017578">
        <ele>1946.4609375</ele>
      </trkpt>
      <trkpt lat="46.256346702575684" lon="11.833755970001221">
        <ele>1940.859375</ele>
      </trkpt>
      <trkpt lat="46.256368160247803" lon="11.833691596984863">
        <ele>1936.1796875</ele>
      </trkpt>
      <trkpt lat="46.25643253326416" lon="11.833670139312744">
        <ele>1934.07421875</ele>
      </trkpt>
      <trkpt lat="46.256539821624756" lon="11.833648681640625">
        <ele>1931.6484375</ele>
      </trkpt>
      <trkpt lat="46.256797313690186" lon="11.833713054656982">
        <ele>1933.85546875</ele>
      </trkpt>
      <trkpt lat="46.256861686706543" lon="11.833798885345459">
        <ele>1937.1171875</ele>
      </trkpt>
      <trkpt lat="46.2569260597229" lon="11.833755970001221">
        <ele>1934.57421875</ele>
      </trkpt>
      <trkpt lat="46.256968975067139" lon="11.833691596984863">
        <ele>1931.765625</ele>
      </trkpt>
      <trkpt lat="46.25694751739502" lon="11.833562850952148">
        <ele>1926.9921875</ele>
      </trkpt>
      <trkpt lat="46.25694751739502" lon="11.833498477935791">
        <ele>1924.56640625</ele>
      </trkpt>
      <trkpt lat="46.256968975067139" lon="11.833455562591553">
        <ele>1923.140625</ele>
      </trkpt>
      <trkpt lat="46.257054805755615" lon="11.833240985870361">
        <ele>1920.0234375</ele>
      </trkpt>
      <trkpt lat="46.257119178771973" lon="11.833155155181885">
        <ele>1920.53125</ele>
      </trkpt>
      <trkpt lat="46.257140636444092" lon="11.833090782165527">
        <ele>1918.453125</ele>
      </trkpt>
      <trkpt lat="46.257162094116211" lon="11.833047866821289">
        <ele>1917.95703125</ele>
      </trkpt>
      <trkpt lat="46.257226467132568" lon="11.83302640914917">
        <ele>1921.16796875</ele>
      </trkpt>
      <trkpt lat="46.257269382476807" lon="11.83302640914917">
        <ele>1923.58203125</ele>
      </trkpt>
      <trkpt lat="46.257312297821045" lon="11.832962036132813">
        <ele>1925.7890625</ele>
      </trkpt>
      <trkpt lat="46.257333755493164" lon="11.832876205444336">
        <ele>1927.05859375</ele>
      </trkpt>
      <trkpt lat="46.257333755493164" lon="11.832790374755859">
        <ele>1926.97265625</ele>
      </trkpt>
      <trkpt lat="46.257290840148926" lon="11.832661628723145">
        <ele>1922.7421875</ele>
      </trkpt>
      <trkpt lat="46.257290840148926" lon="11.83253288269043">
        <ele>1921.66015625</ele>
      </trkpt>
      <trkpt lat="46.257247924804688" lon="11.832361221313477">
        <ele>1916.02734375</ele>
      </trkpt>
      <trkpt lat="46.257247924804688" lon="11.831696033477783">
        <ele>1921.34375</ele>
      </trkpt>
      <trkpt lat="46.257226467132568" lon="11.831631660461426">
        <ele>1921.9140625</ele>
      </trkpt>
      <trkpt lat="46.257119178771973" lon="11.831438541412354">
        <ele>1919.3671875</ele>
      </trkpt>
      <trkpt lat="46.257033348083496" lon="11.831245422363281">
        <ele>1917.09375</ele>
      </trkpt>
      <trkpt lat="46.257011890411377" lon="11.831052303314209">
        <ele>1917.12109375</ele>
      </trkpt>
      <trkpt lat="46.257011890411377" lon="11.830837726593018">
        <ele>1919.34375</ele>
      </trkpt>
      <trkpt lat="46.256990432739258" lon="11.830708980560303">
        <ele>1913.34375</ele>
      </trkpt>
      <trkpt lat="46.256990432739258" lon="11.830644607543945">
        <ele>1908.015625</ele>
      </trkpt>
      <trkpt lat="46.257011890411377" lon="11.830580234527588">
        <ele>1905.70703125</ele>
      </trkpt>
      <trkpt lat="46.257054805755615" lon="11.830558776855469">
        <ele>1913.640625</ele>
      </trkpt>
      <trkpt lat="46.257076263427734" lon="11.83051586151123">
        <ele>1915.2265625</ele>
      </trkpt>
      <trkpt lat="46.257097721099854" lon="11.830451488494873">
        <ele>1915.42578125</ele>
      </trkpt>
      <trkpt lat="46.256968975067139" lon="11.830494403839111">
        <ele>1894.59765625</ele>
      </trkpt>
      <trkpt lat="46.257054805755615" lon="11.830408573150635">
        <ele>1901.84375</ele>
      </trkpt>
      <trkpt lat="46.25694751739502" lon="11.830430030822754">
        <ele>1888.67578125</ele>
      </trkpt>
      <trkpt lat="46.257054805755615" lon="11.830322742462158">
        <ele>1895.10546875</ele>
      </trkpt>
      <trkpt lat="46.25694751739502" lon="11.830365657806396">
        <ele>1883.734375</ele>
      </trkpt>
      <trkpt lat="46.257033348083496" lon="11.830258369445801">
        <ele>1886.18359375</ele>
      </trkpt>
      <trkpt lat="46.2569260597229" lon="11.830301284790039">
        <ele>1878.39453125</ele>
      </trkpt>
      <trkpt lat="46.257033348083496" lon="11.830193996429443">
        <ele>1884.21484375</ele>
      </trkpt>
      <trkpt lat="46.256883144378662" lon="11.830258369445801">
        <ele>1874.96875</ele>
      </trkpt>
      <trkpt lat="46.25694751739502" lon="11.830172538757324">
        <ele>1872.4609375</ele>
      </trkpt>
      <trkpt lat="46.257011890411377" lon="11.830043792724609">
        <ele>1873.12890625</ele>
      </trkpt>
      <trkpt lat="46.25694751739502" lon="11.830065250396729">
        <ele>1867.41796875</ele>
      </trkpt>
      <trkpt lat="46.256990432739258" lon="11.829979419708252">
        <ele>1866.69140625</ele>
      </trkpt>
      <trkpt lat="46.25694751739502" lon="11.829979419708252">
        <ele>1863.3828125</ele>
      </trkpt>
      <trkpt lat="46.256990432739258" lon="11.829893589019775">
        <ele>1863.36328125</ele>
      </trkpt>
      <trkpt lat="46.2569260597229" lon="11.829936504364014">
        <ele>1859.53125</ele>
      </trkpt>
      <trkpt lat="46.256968975067139" lon="11.829829216003418">
        <ele>1858.58984375</ele>
      </trkpt>
      <trkpt lat="46.2569260597229" lon="11.829850673675537">
        <ele>1855.14453125</ele>
      </trkpt>
      <trkpt lat="46.25694751739502" lon="11.82978630065918">
        <ele>1854.86328125</ele>
      </trkpt>
      <trkpt lat="46.256904602050781" lon="11.82978630065918">
        <ele>1850.265625</ele>
      </trkpt>
      <trkpt lat="46.256968975067139" lon="11.829700469970703">
        <ele>1854.30078125</ele>
      </trkpt>
      <trkpt lat="46.256904602050781" lon="11.829700469970703">
        <ele>1847.25</ele>
      </trkpt>
      <trkpt lat="46.25694751739502" lon="11.829614639282227">
        <ele>1849.0390625</ele>
      </trkpt>
      <trkpt lat="46.256883144378662" lon="11.829550266265869">
        <ele>1839.53515625</ele>
      </trkpt>
      <trkpt lat="46.256861686706543" lon="11.829485893249512">
        <ele>1834.7578125</ele>
      </trkpt>
      <trkpt lat="46.256883144378662" lon="11.829357147216797">
        <ele>1832.69921875</ele>
      </trkpt>
      <trkpt lat="46.256861686706543" lon="11.829185485839844">
        <ele>1825.33984375</ele>
      </trkpt>
      <trkpt lat="46.256883144378662" lon="11.829099655151367">
        <ele>1825.21484375</ele>
      </trkpt>
      <trkpt lat="46.2569260597229" lon="11.829056739807129">
        <ele>1828.4453125</ele>
      </trkpt>
      <trkpt lat="46.25694751739502" lon="11.829013824462891">
        <ele>1829.30859375</ele>
      </trkpt>
      <trkpt lat="46.256904602050781" lon="11.828842163085937">
        <ele>1820.44921875</ele>
      </trkpt>
      <trkpt lat="46.256861686706543" lon="11.828627586364746">
        <ele>1812.84765625</ele>
      </trkpt>
      <trkpt lat="46.256797313690186" lon="11.828734874725342">
        <ele>1808.92578125</ele>
      </trkpt>
      <trkpt lat="46.256775856018066" lon="11.828606128692627">
        <ele>1805.45703125</ele>
      </trkpt>
      <trkpt lat="46.256797313690186" lon="11.82854175567627">
        <ele>1806.359375</ele>
      </trkpt>
      <trkpt lat="46.256775856018066" lon="11.828455924987793">
        <ele>1803.625</ele>
      </trkpt>
      <trkpt lat="46.256668567657471" lon="11.828327178955078">
        <ele>1799.1953125</ele>
      </trkpt>
      <trkpt lat="46.256689187139273" lon="11.828320892527699">
        <ele>1800.81640625</ele>
      </trkpt>
      <trkpt lat="46.256668567657471" lon="11.828327178955078">
        <ele>1799.1953125</ele>
      </trkpt>
      <trkpt lat="46.256368160247803" lon="11.827876567840576">
        <ele>1793.01953125</ele>
      </trkpt>
      <trkpt lat="46.256303787231445" lon="11.827726364135742">
        <ele>1790.8359375</ele>
      </trkpt>
      <trkpt lat="46.256260871887207" lon="11.82753324508667">
        <ele>1790.53515625</ele>
      </trkpt>
      <trkpt lat="46.256217956542969" lon="11.827425956726074">
        <ele>1787.81640625</ele>
      </trkpt>
      <trkpt lat="46.256217956542969" lon="11.827318668365479">
        <ele>1788.3515625</ele>
      </trkpt>
      <trkpt lat="46.256153583526611" lon="11.82703971862793">
        <ele>1784.26953125</ele>
      </trkpt>
      <trkpt lat="46.25619649887085" lon="11.826674938201904">
        <ele>1784.4296875</ele>
      </trkpt>
      <trkpt lat="46.25619649887085" lon="11.826460361480713">
        <ele>1783.71484375</ele>
      </trkpt>
      <trkpt lat="46.256132125854492" lon="11.826267242431641">
        <ele>1778.94921875</ele>
      </trkpt>
      <trkpt lat="46.256110668182373" lon="11.826159954071045">
        <ele>1777.5078125</ele>
      </trkpt>
      <trkpt lat="46.256110668182373" lon="11.825129985809326">
        <ele>1771.70703125</ele>
      </trkpt>
      <trkpt lat="46.256089210510254" lon="11.825258731842041">
        <ele>1770.15234375</ele>
      </trkpt>
      <trkpt lat="46.256067752838135" lon="11.825323104858398">
        <ele>1769.28515625</ele>
      </trkpt>
      <trkpt lat="46.25593900680542" lon="11.825644969940186">
        <ele>1763.02734375</ele>
      </trkpt>
      <trkpt lat="46.255917549133301" lon="11.826009750366211">
        <ele>1763.71875</ele>
      </trkpt>
      <trkpt lat="46.255896091461182" lon="11.826052665710449">
        <ele>1762.53515625</ele>
      </trkpt>
      <trkpt lat="46.255874633789063" lon="11.826009750366211">
        <ele>1760.8671875</ele>
      </trkpt>
      <trkpt lat="46.255810260772705" lon="11.825752258300781">
        <ele>1755.23828125</ele>
      </trkpt>
      <trkpt lat="46.255853176116943" lon="11.825473308563232">
        <ele>1756.72265625</ele>
      </trkpt>
      <trkpt lat="46.255767345428467" lon="11.82504415512085">
        <ele>1751.01953125</ele>
      </trkpt>
      <trkpt lat="46.25568151473999" lon="11.82478666305542">
        <ele>1746.4375</ele>
      </trkpt>
      <trkpt lat="46.255745887756348" lon="11.824550628662109">
        <ele>1750.54296875</ele>
      </trkpt>
      <trkpt lat="46.255724430084229" lon="11.824378967285156">
        <ele>1748.89453125</ele>
      </trkpt>
      <trkpt lat="46.255660057067871" lon="11.824572086334229">
        <ele>1745.03515625</ele>
      </trkpt>
      <trkpt lat="46.255638599395752" lon="11.824700832366943">
        <ele>1743.6953125</ele>
      </trkpt>
      <trkpt lat="46.255595684051514" lon="11.824722290039063">
        <ele>1740.9453125</ele>
      </trkpt>
      <trkpt lat="46.255574226379395" lon="11.824765205383301">
        <ele>1739.58984375</ele>
      </trkpt>
      <trkpt lat="46.255509853363037" lon="11.824851036071777">
        <ele>1735.51171875</ele>
      </trkpt>
      <trkpt lat="46.255531311035156" lon="11.824936866760254">
        <ele>1736.625</ele>
      </trkpt>
      <trkpt lat="46.255509853363037" lon="11.824979782104492">
        <ele>1735.23046875</ele>
      </trkpt>
      <trkpt lat="46.255595684051514" lon="11.825408935546875">
        <ele>1740.359375</ele>
      </trkpt>
      <trkpt lat="46.255466938018799" lon="11.825001239776611">
        <ele>1732.58984375</ele>
      </trkpt>
      <trkpt lat="46.25544548034668" lon="11.824872493743896">
        <ele>1731.5703125</ele>
      </trkpt>
      <trkpt lat="46.255359649658203" lon="11.824657917022705">
        <ele>1726.7578125</ele>
      </trkpt>
      <trkpt lat="46.255381107330322" lon="11.824572086334229">
        <ele>1728.140625</ele>
      </trkpt>
      <trkpt lat="46.255359649658203" lon="11.824507713317871">
        <ele>1726.9375</ele>
      </trkpt>
      <trkpt lat="46.255338191986084" lon="11.824550628662109">
        <ele>1725.60546875</ele>
      </trkpt>
      <trkpt lat="46.255316734313965" lon="11.824743747711182">
        <ele>1724.0546875</ele>
      </trkpt>
      <trkpt lat="46.255230903625488" lon="11.82504415512085">
        <ele>1718.2109375</ele>
      </trkpt>
      <trkpt lat="46.25518798828125" lon="11.825172901153564">
        <ele>1715.3359375</ele>
      </trkpt>
      <trkpt lat="46.255166530609131" lon="11.825129985809326">
        <ele>1714.12890625</ele>
      </trkpt>
      <trkpt lat="46.255145072937012" lon="11.824765205383301">
        <ele>1713.62890625</ele>
      </trkpt>
      <trkpt lat="46.255145072937012" lon="11.824615001678467">
        <ele>1713.953125</ele>
      </trkpt>
      <trkpt lat="46.255145072937012" lon="11.824680296704173">
        <ele>1713.8125</ele>
      </trkpt>
      <trkpt lat="46.25518798828125" lon="11.824680380523205">
        <ele>1716.390625</ele>
      </trkpt>
      <trkpt lat="46.255145072937012" lon="11.824680296704173">
        <ele>1713.8125</ele>
      </trkpt>
      <trkpt lat="46.255145072937012" lon="11.824615001678467">
        <ele>1713.953125</ele>
      </trkpt>
      <trkpt lat="46.255123615264893" lon="11.824657917022705">
        <ele>1712.6015625</ele>
      </trkpt>
      <trkpt lat="46.255080699920654" lon="11.824722290039063">
        <ele>1709.9609375</ele>
      </trkpt>
      <trkpt lat="46.254994869232178" lon="11.824936866760254">
        <ele>1704.06640625</ele>
      </trkpt>
      <trkpt lat="46.254973411560059" lon="11.824979782104492">
        <ele>1702.5546875</ele>
      </trkpt>
      <trkpt lat="46.254909038543701" lon="11.825172901153564">
        <ele>1697.51171875</ele>
      </trkpt>
      <trkpt lat="46.254887580871582" lon="11.825108528137207">
        <ele>1696.50390625</ele>
      </trkpt>
      <trkpt lat="46.254887580871582" lon="11.824228763580322">
        <ele>1698.8515625</ele>
      </trkpt>
      <trkpt lat="46.254909038543701" lon="11.824164390563965">
        <ele>1699.796875</ele>
      </trkpt>
      <trkpt lat="46.254909038543701" lon="11.824078559875488">
        <ele>1699.34765625</ele>
      </trkpt>
      <trkpt lat="46.254951953887939" lon="11.823713779449463">
        <ele>1699.06640625</ele>
      </trkpt>
      <trkpt lat="46.25493049621582" lon="11.823606491088867">
        <ele>1696.6328125</ele>
      </trkpt>
      <trkpt lat="46.25493049621582" lon="11.82302713394165">
        <ele>1693.0625</ele>
      </trkpt>
      <trkpt lat="46.254801750183105" lon="11.822662353515625">
        <ele>1690.8515625</ele>
      </trkpt>
      <trkpt lat="46.254651546478271" lon="11.822447776794434">
        <ele>1687.56640625</ele>
      </trkpt>
      <trkpt lat="46.254587173461914" lon="11.82227611541748">
        <ele>1686.19921875</ele>
      </trkpt>
      <trkpt lat="46.254458427429199" lon="11.821846961975098">
        <ele>1687.296875</ele>
      </trkpt>
      <trkpt lat="46.254329681396484" lon="11.821568012237549">
        <ele>1689.046875</ele>
      </trkpt>
      <trkpt lat="46.254222393035889" lon="11.821374893188477">
        <ele>1687.83984375</ele>
      </trkpt>
      <trkpt lat="46.254158020019531" lon="11.8212890625">
        <ele>1686.11328125</ele>
      </trkpt>
      <trkpt lat="46.254029273986816" lon="11.821074485778809">
        <ele>1684.0703125</ele>
      </trkpt>
      <trkpt lat="46.253793239593506" lon="11.820881366729736">
        <ele>1675.8046875</ele>
      </trkpt>
      <trkpt lat="46.253535747528076" lon="11.820559501647949">
        <ele>1669.9609375</ele>
      </trkpt>
      <trkpt lat="46.253299713134766" lon="11.8202805519104">
        <ele>1661.46484375</ele>
      </trkpt>
      <trkpt lat="46.253233244642615" lon="11.820252053439617">
        <ele>1659.265625</ele>
      </trkpt>
      <trkpt lat="46.253214217722416" lon="11.820345092564821">
        <ele>1657.0703125</ele>
      </trkpt>
      <trkpt lat="46.253233244642615" lon="11.820252053439617">
        <ele>1659.265625</ele>
      </trkpt>
      <trkpt lat="46.253149509429932" lon="11.820216178894043">
        <ele>1656.5234375</ele>
      </trkpt>
      <trkpt lat="46.253106594085693" lon="11.820173263549805">
        <ele>1655.51953125</ele>
      </trkpt>
      <trkpt lat="46.253106594085693" lon="11.820108890533447">
        <ele>1656.35546875</ele>
      </trkpt>
      <trkpt lat="46.253149509429932" lon="11.820065975189209">
        <ele>1656.63671875</ele>
      </trkpt>
      <trkpt lat="46.253256797790527" lon="11.819937229156494">
        <ele>1656.91015625</ele>
      </trkpt>
      <trkpt lat="46.253385543823242" lon="11.819679737091064">
        <ele>1655.85546875</ele>
      </trkpt>
      <trkpt lat="46.25342845916748" lon="11.81952953338623">
        <ele>1654.69921875</ele>
      </trkpt>
      <trkpt lat="46.253471374511719" lon="11.819443702697754">
        <ele>1654.7890625</ele>
      </trkpt>
      <trkpt lat="46.253514289855957" lon="11.819272041320801">
        <ele>1652.19140625</ele>
      </trkpt>
      <trkpt lat="46.253514289855957" lon="11.818885803222656">
        <ele>1640.35546875</ele>
      </trkpt>
      <trkpt lat="46.253578662872314" lon="11.818735599517822">
        <ele>1638.38671875</ele>
      </trkpt>
      <trkpt lat="46.253600120544434" lon="11.818692684173584">
        <ele>1637.76171875</ele>
      </trkpt>
      <trkpt lat="46.253728866577148" lon="11.818456649780273">
        <ele>1633.703125</ele>
      </trkpt>
      <trkpt lat="46.25394344329834" lon="11.818113327026367">
        <ele>1630.0703125</ele>
      </trkpt>
      <trkpt lat="46.253969762474298" lon="11.818050295114517">
        <ele>1629.19921875</ele>
      </trkpt>
      <trkpt lat="46.253913603723049" lon="11.818001344799995">
        <ele>1625.70703125</ele>
      </trkpt>
      <trkpt lat="46.253969762474298" lon="11.818050295114517">
        <ele>1629.19921875</ele>
      </trkpt>
      <trkpt lat="46.254329681396484" lon="11.817190647125244">
        <ele>1618.27734375</ele>
      </trkpt>
      <trkpt lat="46.254372596740723" lon="11.817126274108887">
        <ele>1617.1015625</ele>
      </trkpt>
      <trkpt lat="46.254458427429199" lon="11.81704044342041">
        <ele>1615.12890625</ele>
      </trkpt>
      <trkpt lat="46.254544258117676" lon="11.817018985748291">
        <ele>1614.375</ele>
      </trkpt>
      <trkpt lat="46.254780292510986" lon="11.817018985748291">
        <ele>1614.796875</ele>
      </trkpt>
      <trkpt lat="46.254909038543701" lon="11.816976070404053">
        <ele>1614.2734375</ele>
      </trkpt>
      <trkpt lat="46.254994869232178" lon="11.816911697387695">
        <ele>1612.453125</ele>
      </trkpt>
      <trkpt lat="46.255123615264893" lon="11.8168044090271">
        <ele>1609.9921875</ele>
      </trkpt>
      <trkpt lat="46.25518798828125" lon="11.816675662994385">
        <ele>1608.15234375</ele>
      </trkpt>
      <trkpt lat="46.255230903625488" lon="11.81654691696167">
        <ele>1606.296875</ele>
      </trkpt>
      <trkpt lat="46.255316734313965" lon="11.816182136535645">
        <ele>1599.94140625</ele>
      </trkpt>
      <trkpt lat="46.25544548034668" lon="11.816010475158691">
        <ele>1599.5625</ele>
      </trkpt>
      <trkpt lat="46.255531311035156" lon="11.815924644470215">
        <ele>1599.8359375</ele>
      </trkpt>
      <trkpt lat="46.255638599395752" lon="11.815838813781738">
        <ele>1600.41796875</ele>
      </trkpt>
      <trkpt lat="46.255767345428467" lon="11.815688610076904">
        <ele>1598.87890625</ele>
      </trkpt>
      <trkpt lat="46.255788803100586" lon="11.815602779388428">
        <ele>1596.98046875</ele>
      </trkpt>
      <trkpt lat="46.255767345428467" lon="11.815559864044189">
        <ele>1595.3515625</ele>
      </trkpt>
      <trkpt lat="46.255724430084229" lon="11.815559864044189">
        <ele>1594.44140625</ele>
      </trkpt>
      <trkpt lat="46.255466938018799" lon="11.815624237060547">
        <ele>1589.234375</ele>
      </trkpt>
      <trkpt lat="46.255338191986084" lon="11.815731525421143">
        <ele>1588.296875</ele>
      </trkpt>
      <trkpt lat="46.255166530609131" lon="11.815817356109619">
        <ele>1585.51953125</ele>
      </trkpt>
      <trkpt lat="46.254973411560059" lon="11.815946102142334">
        <ele>1586.2421875</ele>
      </trkpt>
      <trkpt lat="46.254866123199463" lon="11.815967559814453">
        <ele>1585.16796875</ele>
      </trkpt>
      <trkpt lat="46.25469446182251" lon="11.815946102142334">
        <ele>1582.01953125</ele>
      </trkpt>
      <trkpt lat="46.254651546478271" lon="11.815881729125977">
        <ele>1579.17578125</ele>
      </trkpt>
      <trkpt lat="46.254951953887939" lon="11.815667152404785">
        <ele>1577.4765625</ele>
      </trkpt>
      <trkpt lat="46.255102157592773" lon="11.815495491027832">
        <ele>1574.5546875</ele>
      </trkpt>
      <trkpt lat="46.255531311035156" lon="11.815066337585449">
        <ele>1571.17578125</ele>
      </trkpt>
      <trkpt lat="46.255745887756348" lon="11.81480884552002">
        <ele>1568.15234375</ele>
      </trkpt>
      <trkpt lat="46.25619649887085" lon="11.814401149749756">
        <ele>1562.41015625</ele>
      </trkpt>
      <trkpt lat="46.256282329559326" lon="11.814336776733398">
        <ele>1560.73046875</ele>
      </trkpt>
      <trkpt lat="46.256439490243793" lon="11.814249353483319">
        <ele>1559.11328125</ele>
      </trkpt>
      <trkpt lat="46.256668567657471" lon="11.814122200012207">
        <ele>1558.921875</ele>
      </trkpt>
      <trkpt lat="46.256968975067139" lon="11.813886165618896">
        <ele>1558.35546875</ele>
      </trkpt>
      <trkpt lat="46.25718355178833" lon="11.813607215881348">
        <ele>1551.0234375</ele>
      </trkpt>
      <trkpt lat="46.257462501525879" lon="11.813457012176514">
        <ele>1548.88671875</ele>
      </trkpt>
      <trkpt lat="46.2579345703125" lon="11.813371181488037">
        <ele>1543.2734375</ele>
      </trkpt>
      <trkpt lat="46.258149147033691" lon="11.813414096832275">
        <ele>1544.453125</ele>
      </trkpt>
      <trkpt lat="46.258256435394287" lon="11.813392639160156">
        <ele>1543.15625</ele>
      </trkpt>
      <trkpt lat="46.258342266082764" lon="11.813328266143799">
        <ele>1540.7421875</ele>
      </trkpt>
      <trkpt lat="46.258599758148193" lon="11.813263893127441">
        <ele>1540.3984375</ele>
      </trkpt>
      <trkpt lat="46.258964538574219" lon="11.813027858734131">
        <ele>1537.0625</ele>
      </trkpt>
      <trkpt lat="46.259093284606934" lon="11.812984943389893">
        <ele>1537.5625</ele>
      </trkpt>
      <trkpt lat="46.259200572967529" lon="11.812877655029297">
        <ele>1536.28125</ele>
      </trkpt>
      <trkpt lat="46.259286403656006" lon="11.812534332275391">
        <ele>1528.21875</ele>
      </trkpt>
      <trkpt lat="46.259372234344482" lon="11.812427043914795">
        <ele>1527.1328125</ele>
      </trkpt>
      <trkpt lat="46.25969409942627" lon="11.811912059783936">
        <ele>1523.3828125</ele>
      </trkpt>
      <trkpt lat="46.259801387786865" lon="11.811783313751221">
        <ele>1523.1171875</ele>
      </trkpt>
      <trkpt lat="46.25993013381958" lon="11.811697483062744">
        <ele>1521.41796875</ele>
      </trkpt>
      <trkpt lat="46.260831356048584" lon="11.811525821685791">
        <ele>1519.5859375</ele>
      </trkpt>
      <trkpt lat="46.26166820526123" lon="11.811203956604004">
        <ele>1513.24609375</ele>
      </trkpt>
      <trkpt lat="46.261754035949707" lon="11.811203956604004">
        <ele>1513.03515625</ele>
      </trkpt>
      <trkpt lat="46.262032985687256" lon="11.81128978729248">
        <ele>1514.81640625</ele>
      </trkpt>
      <trkpt lat="46.262118816375732" lon="11.811268329620361">
        <ele>1514.69921875</ele>
      </trkpt>
      <trkpt lat="46.262226104736328" lon="11.811225414276123">
        <ele>1517.38671875</ele>
      </trkpt>
      <trkpt lat="46.262269020080566" lon="11.811139583587646">
        <ele>1516.83203125</ele>
      </trkpt>
      <trkpt lat="46.262269020080566" lon="11.811096668243408">
        <ele>1515.8125</ele>
      </trkpt>
      <trkpt lat="46.262269020080566" lon="11.810946464538574">
        <ele>1512.2421875</ele>
      </trkpt>
      <trkpt lat="46.262247562408447" lon="11.810860633850098">
        <ele>1509.45703125</ele>
      </trkpt>
      <trkpt lat="46.262226104736328" lon="11.81079626083374">
        <ele>1510.49609375</ele>
      </trkpt>
      <trkpt lat="46.262075901031494" lon="11.810581684112549">
        <ele>1511.15625</ele>
      </trkpt>
      <trkpt lat="46.262011528015137" lon="11.810474395751953">
        <ele>1510.8828125</ele>
      </trkpt>
      <trkpt lat="46.262011528015137" lon="11.810302734375">
        <ele>1512.52734375</ele>
      </trkpt>
      <trkpt lat="46.262032985687256" lon="11.810216903686523">
        <ele>1513.3984375</ele>
      </trkpt>
      <trkpt lat="46.262054443359375" lon="11.810152530670166">
        <ele>1514.23828125</ele>
      </trkpt>
      <trkpt lat="46.262118816375732" lon="11.810002326965332">
        <ele>1516.125</ele>
      </trkpt>
      <trkpt lat="46.262397766113281" lon="11.809659004211426">
        <ele>1520.46484375</ele>
      </trkpt>
      <trkpt lat="46.262612342834473" lon="11.809337139129639">
        <ele>1521.7890625</ele>
      </trkpt>
      <trkpt lat="46.262698173522949" lon="11.809165477752686">
        <ele>1521.62109375</ele>
      </trkpt>
      <trkpt lat="46.262741088867188" lon="11.809101104736328">
        <ele>1521.734375</ele>
      </trkpt>
      <trkpt lat="46.262869834899902" lon="11.80905818939209">
        <ele>1523.765625</ele>
      </trkpt>
      <trkpt lat="46.262977123260498" lon="11.808972358703613">
        <ele>1524.625</ele>
      </trkpt>
      <trkpt lat="46.263062953948975" lon="11.808822154998779">
        <ele>1525.2109375</ele>
      </trkpt>
      <trkpt lat="46.263127326965332" lon="11.808629035949707">
        <ele>1524.70703125</ele>
      </trkpt>
      <trkpt lat="46.26317024230957" lon="11.80856466293335">
        <ele>1525.390625</ele>
      </trkpt>
      <trkpt lat="46.263234615325928" lon="11.808500289916992">
        <ele>1526.91015625</ele>
      </trkpt>
      <trkpt lat="46.263513565063477" lon="11.808328628540039">
        <ele>1532.671875</ele>
      </trkpt>
      <trkpt lat="46.263620853424072" lon="11.808221340179443">
        <ele>1531.45703125</ele>
      </trkpt>
      <trkpt lat="46.26392126083374" lon="11.807663440704346">
        <ele>1529.109375</ele>
      </trkpt>
      <trkpt lat="46.264007091522217" lon="11.807577610015869">
        <ele>1529.84375</ele>
      </trkpt>
      <trkpt lat="46.264050006866455" lon="11.807534694671631">
        <ele>1530.27734375</ele>
      </trkpt>
      <trkpt lat="46.264092922210693" lon="11.807470321655273">
        <ele>1530.5390625</ele>
      </trkpt>
      <trkpt lat="46.264157295227051" lon="11.80729866027832">
        <ele>1530.3203125</ele>
      </trkpt>
      <trkpt lat="46.264200210571289" lon="11.807234287261963">
        <ele>1530.50390625</ele>
      </trkpt>
      <trkpt lat="46.264221668243408" lon="11.807105541229248">
        <ele>1529.5625</ele>
      </trkpt>
      <trkpt lat="46.264307498931885" lon="11.806976795196533">
        <ele>1529.19140625</ele>
      </trkpt>
      <trkpt lat="46.264758110046387" lon="11.806333065032959">
        <ele>1528.2578125</ele>
      </trkpt>
      <trkpt lat="46.265037059783936" lon="11.805968284606934">
        <ele>1527.31640625</ele>
      </trkpt>
      <trkpt lat="46.265079975128174" lon="11.805903911590576">
        <ele>1527.1796875</ele>
      </trkpt>
      <trkpt lat="46.265115849673748" lon="11.805832078680396">
        <ele>1526.9609375</ele>
      </trkpt>
      <trkpt lat="46.265104366466403" lon="11.805820344015956">
        <ele>1526.6484375</ele>
      </trkpt>
    </trkseg>
  </trk>

</gpx>